Date StartTime U_cm/s V_cm/s W_cm/s Ustd_cm/s Vstd_cm/s Wstd_cm/s Uvar_(cm/s)^2 Vvar_(cm/s)^2 Wvar_(cm/s)^2 KE_(m/s)^2 TurbulentKE_(m/s)^2 HorizWindSpeed_cm/s FrictionSpeec_cm/s DragCoef SpeedOfSound_m/s SonicTemperature_C Pressure_mb 
04/20/2014  00:00:00     -186.962      175.006      -43.415       93.229       73.752       50.884     8691.616     5439.295     2589.201        4.209        0.836      256.090       60.054        0.055      338.992       12.017      864.497
04/20/2014  00:01:00     -173.091      201.274      -43.162       95.640       69.606       52.182     9147.073     4844.992     2722.943        4.452        0.836      265.465       48.906        0.034      339.004       12.037      864.506
04/20/2014  00:02:00     -108.735      101.169      -27.059       34.357       61.745       29.649     1180.424     3812.448      879.066        1.433        0.294      148.521       13.128        0.008      339.023       12.071      864.506
04/20/2014  00:03:00      -88.811       28.333       -2.488       47.672       42.799       30.055     2272.639     1831.793      903.297        0.685        0.250       93.221       16.977        0.033      339.024       12.075      864.512
04/20/2014  00:04:00      -46.677       83.887        0.957       42.059      101.605       35.010     1768.982    10323.618     1225.734        1.126        0.666       95.999       43.168        0.202      338.950       11.948      864.510
04/20/2014  00:05:00      -52.986       42.259        4.422       66.896       56.804       40.750     4475.064     3226.749     1660.538        0.699        0.468       67.774       36.583        0.291      338.988       12.013      864.502
04/20/2014  00:06:00     -134.779      137.419      -41.926       61.964       92.554       44.536     3839.597     8566.204     1983.465        2.660        0.719      192.482       21.427        0.012      338.981       12.000      864.500
04/20/2014  00:07:00      -67.410       95.391       -6.023       55.031       70.278       37.082     3028.447     4939.041     1375.039        1.151        0.467      116.806       31.320        0.072      338.982       12.002      864.497
04/20/2014  00:08:00     -108.764       75.209      -21.523       77.419       78.402       41.660     5993.710     6146.905     1735.596        1.591        0.694      132.235       45.800        0.120      339.073       12.155      864.505
04/20/2014  00:09:00     -131.286      238.776      -35.050       82.607      100.955       46.085     6823.881    10191.852     2123.823        4.731        0.957      272.489       35.499        0.017      339.005       12.039      864.516
04/20/2014  00:10:00     -138.977      178.099      -41.728       73.725       82.451       49.258     5435.329     6798.156     2426.386        3.371        0.733      225.907       35.664        0.025      338.963       11.968      864.520
04/20/2014  00:11:00     -167.692      248.989      -34.322       77.177      104.843       48.529     5956.355    10992.073     2355.076        5.529        0.965      300.193       43.218        0.021      338.960       11.963      864.531
04/20/2014  00:12:00     -207.233      118.291      -26.950       65.105      102.477       56.094     4238.682    10501.579     3146.493        3.777        0.894      238.617       42.440        0.032      339.021       12.066      864.531
04/20/2014  00:13:00     -122.929      173.977      -23.990       83.492       70.227       47.044     6970.982     4931.813     2213.143        3.003        0.706      213.024       48.207        0.051      338.936       11.924      864.534
04/20/2014  00:14:00      -75.615      129.941      -15.234       62.512       68.416       42.817     3907.767     4680.799     1833.312        1.663        0.521      150.341       42.059        0.078      338.994       12.021      864.524
04/20/2014  00:15:00     -116.477      160.692      -17.893       61.896       90.001       52.712     3831.113     8100.262     2778.546        2.721        0.735      198.466       38.584        0.038      338.969       11.980      864.516
04/20/2014  00:16:00     -119.509      145.089      -24.127       51.978       54.974       43.498     2701.715     3022.131     1892.045        2.176        0.381      187.971       42.023        0.050      338.981       12.000      864.534
04/20/2014  00:17:00     -114.555      199.546      -28.374       60.989      102.563       41.216     3719.600    10519.206     1698.790        3.484        0.797      230.090       44.613        0.038      338.961       11.968      864.553
04/20/2014  00:18:00     -136.466      178.377      -34.092       48.516       84.372       41.777     2353.850     7118.662     1745.298        3.141        0.561      224.591       37.666        0.028      338.961       11.965      864.579
04/20/2014  00:19:00     -142.227      126.704      -23.756       70.025       73.165       41.024     4903.502     5353.114     1682.954        2.439        0.597      190.480       44.135        0.054      338.987       12.011      864.593
04/20/2014  00:20:00     -138.461      230.980      -43.159       91.618      116.210       54.522     8393.788    13504.834     2972.681        4.962        1.244      269.301       49.435        0.034      338.892       11.848      864.587
04/20/2014  00:21:00      -81.249      219.213      -38.797       91.970       98.118       49.097     8458.417     9627.138     2410.490        3.832        1.025      233.785       50.230        0.046      338.872       11.816      864.564
04/20/2014  00:22:00     -202.343      299.076      -64.046      111.829      149.906       65.929    12505.802    22471.857     4346.672        8.690        1.966      361.095       77.017        0.045      338.827       11.740      864.563
04/20/2014  00:23:00     -179.896      224.457      -24.992      143.351      144.162       68.801    20549.484    20782.636     4733.539        6.471        2.303      287.652       64.265        0.050      338.813       11.717      864.538
04/20/2014  00:24:00     -216.171      262.447      -39.266       87.339      121.265       67.913     7628.118    14705.256     4612.185        7.204        1.347      340.012       59.502        0.031      338.758       11.624      864.517
04/20/2014  00:25:00     -245.001      231.882      -42.084      100.224      122.364       64.056    10044.782    14972.838     4103.153        7.234        1.456      337.335       64.495        0.037      338.739       11.593      864.496
04/20/2014  00:26:00     -260.973      293.876      -63.832      111.362      164.684       80.050    12401.510    27120.733     6407.966       10.223        2.297      393.027       80.629        0.042      338.736       11.587      864.487
04/20/2014  00:27:00     -228.749      180.378      -34.277      128.130      104.044       66.327    16417.200    10825.103     4399.209        5.883        1.582      291.311       70.606        0.059      338.766       11.639      864.495
04/20/2014  00:28:00     -224.112      157.809      -19.559      108.787       86.377       62.898    11834.568     7460.918     3956.191        4.938        1.163      274.098       51.300        0.035      338.751       11.612      864.468
04/20/2014  00:29:00     -195.973      231.697      -44.089      131.416      150.423       73.103    17270.057    22627.210     5343.985        6.963        2.262      303.462       71.376        0.055      338.798       11.692      864.422
04/20/2014  00:30:00     -165.494      123.562      -25.745       94.812      133.400       60.430     8989.333    17795.528     3651.808        3.687        1.522      206.533       53.966        0.068      338.847       11.775      864.381
04/20/2014  00:31:00     -198.428      107.026      -30.175      108.130      105.266       59.372    11692.106    11080.897     3525.054        3.901        1.315      225.452       55.940        0.062      338.903       11.867      864.363
04/20/2014  00:32:00     -152.419       51.508       -6.989      119.006       99.525       58.659    14162.342     9905.309     3440.906        2.672        1.375      160.887       44.699        0.077      338.951       11.951      864.357
04/20/2014  00:33:00     -175.253       77.907      -20.682       97.954      111.225       60.849     9594.944    12371.001     3702.605        3.143        1.283      191.789       57.436        0.090      338.965       11.974      864.339
04/20/2014  00:34:00     -213.908      206.786      -40.139       91.151       95.816       51.241     8308.588     9180.699     2625.690        5.512        1.006      297.518       47.225        0.025      338.927       11.908      864.341
04/20/2014  00:35:00     -169.712      159.884      -18.713       89.317       77.151       50.732     7977.560     5952.333     2573.689        3.561        0.825      233.163       42.625        0.033      338.905       11.871      864.315
04/20/2014  00:36:00     -225.739      266.697      -46.965       97.186      128.064       61.213     9445.045    16400.434     3747.088        7.694        1.480      349.407       50.590        0.021      338.977       11.991      864.330
04/20/2014  00:37:00     -206.702      241.165      -49.657       78.966      111.581       58.395     6235.588    12450.272     3410.010        6.272        1.105      317.626       48.066        0.023      338.917       11.891      864.352
04/20/2014  00:38:00     -139.893      100.307      -13.000       89.865       88.220       61.419     8075.668     7782.833     3772.273        2.471        0.982      172.138       59.751        0.120      338.892       11.849      864.361
04/20/2014  00:39:00     -131.633      201.849      -15.938       90.295      107.105       56.946     8153.173    11471.476     3242.818        4.059        1.143      240.978       66.098        0.075      338.852       11.783      864.361
04/20/2014  00:40:00     -268.600      231.727      -59.611       92.645      105.944       54.698     8583.122    11224.133     2991.852        7.609        1.140      354.744       56.278        0.025      338.871       11.814      864.398
04/20/2014  00:41:00     -204.896      178.164      -36.860       95.921      123.937       51.523     9200.782    15360.306     2654.631        5.114        1.361      271.523       63.942        0.055      338.919       11.896      864.432
04/20/2014  00:42:00     -223.774      267.501      -55.857       85.706      113.813       57.960     7345.518    12953.376     3359.387        7.420        1.183      348.757       35.687        0.010      338.810       11.712      864.473
04/20/2014  00:43:00     -199.329      163.401      -27.618      102.879      133.421       57.912    10584.005    17801.057     3353.818        4.946        1.587      257.744       54.774        0.045      338.798       11.691      864.495
04/20/2014  00:44:00     -172.684      231.921      -36.288       78.543      107.866       53.955     6169.062    11635.064     2911.171        5.282        1.036      289.149       50.907        0.031      338.739       11.592      864.538
04/20/2014  00:45:00     -199.569      211.323      -38.181      112.669      106.745       59.707    12694.272    11394.574     3564.869        5.679        1.383      290.663       62.101        0.046      338.762       11.632      864.546
04/20/2014  00:46:00     -157.626      177.618      -36.711       94.844       83.697       46.764     8995.327     7005.213     2186.917        3.796        0.909      237.474       41.726        0.031      338.794       11.685      864.549
04/20/2014  00:47:00     -233.884      184.614      -58.553       85.087       85.028       49.842     7239.745     7229.701     2484.217        5.458        0.848      297.966       43.326        0.021      338.867       11.807      864.558
04/20/2014  00:48:00     -159.036      141.724      -36.327       98.531       84.115       45.572     9708.333     7075.344     2076.809        3.278        0.943      213.021       48.581        0.052      338.884       11.838      864.569
04/20/2014  00:49:00     -141.506      118.182      -18.277       97.310      100.311       50.849     9469.179    10062.288     2585.600        2.822        1.106      184.367       66.790        0.131      338.805       11.706      864.561
04/20/2014  00:50:00     -120.863       64.528       -1.637      114.279       76.191       53.480    13059.754     5805.105     2860.059        2.025        1.086      137.010       47.595        0.121      338.807       11.706      864.561
04/20/2014  00:51:00     -177.137      236.775      -37.996       76.403      144.476       63.554     5837.478    20873.423     4039.090        5.981        1.537      295.702       58.683        0.039      338.730       11.575      864.566
04/20/2014  00:52:00     -215.200      187.876      -43.016      118.244      102.983       69.480    13981.739    10605.561     4827.538        5.643        1.471      285.672       62.423        0.048      338.727       11.570      864.568
04/20/2014  00:53:00     -188.208       51.597      -35.572      118.703       85.358       57.387    14090.503     7286.021     3293.239        3.200        1.233      195.152       47.467        0.059      338.718       11.558      864.544
04/20/2014  00:54:00     -203.113      130.945      -39.119       95.640      101.680       52.403     9147.097    10338.799     2746.073        4.108        1.112      241.664       55.414        0.053      338.765       11.636      864.528
04/20/2014  00:55:00     -173.089       32.315      -27.231       63.677       91.903       32.399     4054.814     8446.191     1049.697        2.265        0.678      176.080       17.347        0.010      338.838       11.758      864.508
04/20/2014  00:56:00     -212.132      -28.387      -24.553      116.550       85.584       52.762    13583.955     7324.616     2783.832        3.505        1.185      214.022       65.351        0.093      338.799       11.694      864.498
04/20/2014  00:57:00     -148.061       -9.713      -27.796      105.212       89.619       57.998    11069.534     8031.583     3363.788        2.262        1.123      148.379       37.419        0.064      338.796       11.690      864.478
04/20/2014  00:58:00     -190.960       56.535      -28.875      105.148      114.181       57.747    11056.120    13037.225     3334.668        3.396        1.371      199.153       59.219        0.088      338.871       11.815      864.481
04/20/2014  00:59:00      -81.687       11.570       -6.359       88.641       86.083       60.666     7857.141     7410.362     3680.410        1.289        0.947       82.502       47.834        0.336      338.784       11.670      864.483
04/20/2014  01:00:00     -106.665      -25.416       -0.601       84.971       85.516       40.294     7220.088     7312.966     1623.586        1.409        0.808      109.651       37.936        0.120      338.793       11.684      864.493
04/20/2014  01:01:00     -198.133      -90.318       -0.650       89.208       74.310       51.762     7958.087     5522.036     2679.258        3.178        0.808      217.748       34.261        0.025      338.638       11.423      864.486
04/20/2014  01:02:00     -128.696       -5.317       -3.551       79.193       49.655       37.961     6271.485     2465.583     1441.063        1.339        0.509      128.806       36.626        0.081      338.564       11.300      864.504
04/20/2014  01:03:00      -14.169       13.281        9.903       55.151       47.702       24.964     3041.621     2275.479      623.196        0.321        0.297       19.420       21.610        1.238      338.569       11.310      864.513
04/20/2014  01:04:00      -86.034      -64.723       -6.376       56.006       55.485       34.543     3136.688     3078.538     1193.199        0.952        0.370      107.661       20.034        0.035      338.609       11.376      864.535
04/20/2014  01:05:00      -34.876       53.200        2.912       83.431       92.090       39.411     6960.685     8480.523     1553.246        1.052        0.850       63.613       33.312        0.274      338.616       11.388      864.531
04/20/2014  01:06:00     -156.276      -95.630        1.294       97.523       71.666       45.712     9510.663     5136.047     2089.559        2.515        0.837      183.213       41.826        0.052      338.486       11.166      864.521
04/20/2014  01:07:00     -110.820     -150.110       15.169      112.120       85.787       53.475    12570.868     7359.356     2859.610        2.891        1.139      186.586       62.057        0.111      338.421       11.059      864.513
04/20/2014  01:08:00     -143.776     -101.629       -5.631       93.044       50.172       46.419     8657.271     2517.223     2154.699        2.218        0.666      176.069       42.653        0.059      338.350       10.940      864.498
04/20/2014  01:09:00     -109.566      -86.558        6.205      123.578       81.430       56.839    15271.490     6630.772     3230.728        2.233        1.257      139.632       49.073        0.124      338.346       10.935      864.491
04/20/2014  01:10:00     -221.771     -111.849       -3.226      127.785      100.607       67.362    16328.981    10121.689     4537.634        4.634        1.549      248.380       72.167        0.084      338.364       10.963      864.454
04/20/2014  01:11:00     -240.280     -136.840      -10.466       98.441       72.008       45.913     9690.653     5185.150     2108.014        4.677        0.849      276.513       42.131        0.023      338.431       11.075      864.442
04/20/2014  01:12:00     -163.579      -91.770       -3.878      154.320       92.122       61.949    23814.641     8486.471     3837.637        3.566        1.807      187.563       72.278        0.148      338.492       11.179      864.410
04/20/2014  01:13:00     -157.398      -63.020        1.241      138.305       97.512       60.160    19128.142     9508.551     3619.228        3.050        1.613      169.546       69.239        0.167      338.516       11.219      864.394
04/20/2014  01:14:00     -234.589      -34.716      -16.981      100.152       81.082       50.206    10030.497     6574.305     2520.632        3.782        0.956      237.144       44.072        0.035      338.553       11.279      864.399
04/20/2014  01:15:00     -210.594      -94.271        1.706      150.092       97.648       57.362    22527.648     9535.175     3290.401        4.429        1.768      230.731       59.035        0.065      338.455       11.114      864.408
04/20/2014  01:16:00     -211.230      -79.564       -7.536      108.013       82.082       48.592    11666.890     6737.401     2361.173        3.588        1.038      225.718       53.217        0.056      338.444       11.096      864.394
04/20/2014  01:17:00     -147.541      -61.241        0.525      127.916       94.782       59.702    16362.563     8983.568     3564.286        2.721        1.446      159.746       52.954        0.110      338.475       11.150      864.370
04/20/2014  01:18:00     -309.642      -79.060      -15.689      178.937      133.511       72.590    32018.499    17825.094     5269.261        7.873        2.756      319.575       92.711        0.084      338.422       11.060      864.379
04/20/2014  01:19:00     -336.825      -66.764      -11.523      144.909      111.149       68.029    20998.544    12354.187     4627.933        7.800        1.899      343.378       75.157        0.048      338.581       11.328      864.383
04/20/2014  01:20:00     -290.617      -20.238      -18.802       63.906       74.565       42.948     4084.026     5559.910     1844.549        4.835        0.574      291.320       28.096        0.009      338.588       11.337      864.377
04/20/2014  01:21:00     -213.420      -77.879       -4.586      101.663       92.979       49.069    10335.338     8645.088     2407.749        3.651        1.069      227.185       52.322        0.053      338.666       11.470      864.373
04/20/2014  01:22:00     -112.264        2.379        7.261       98.076      104.093       49.613     9618.869    10835.321     2461.430        1.778        1.146      112.289       49.097        0.191      338.694       11.519      864.383
04/20/2014  01:23:00     -271.203      -54.659      -10.284      124.413       87.907       57.006    15478.531     7727.587     3249.652        5.154        1.323      276.656       65.779        0.057      338.731       11.578      864.388
04/20/2014  01:24:00     -193.308      -92.070        0.638      114.196       91.374       43.120    13040.641     8349.236     1859.352        3.454        1.162      214.114       40.009        0.035      338.723       11.566      864.395
04/20/2014  01:25:00     -183.814       28.012      -17.559      126.687       72.026       60.233    16049.714     5187.729     3628.054        2.987        1.243      185.936       69.608        0.140      339.007       12.045      864.391
04/20/2014  01:26:00     -250.279      -56.022        2.110       91.678      118.243       59.241     8404.863    13981.351     3509.458        4.583        1.295      256.473       56.041        0.048      339.069       12.146      864.377
04/20/2014  01:27:00     -183.015      -67.247       -6.960      131.261       92.624       51.450    17229.486     8579.134     2647.055        3.325        1.423      194.979       57.193        0.086      338.858       11.792      864.398
04/20/2014  01:28:00     -164.603     -130.778       -0.088      111.279       73.597       54.433    12383.034     5416.501     2962.952        3.248        1.038      210.231       55.760        0.070      338.638       11.423      864.386
04/20/2014  01:29:00     -169.239      -61.122        2.315       87.636       86.812       43.604     7680.112     7536.344     1901.281        2.475        0.856      179.938       38.892        0.047      338.624       11.399      864.381
04/20/2014  01:30:00     -210.702      -90.130        1.937       82.228       63.989       38.815     6761.455     4094.622     1506.613        3.244        0.618      229.170       38.518        0.028      338.459       11.121      864.363
04/20/2014  01:31:00     -235.913     -144.274       -7.822       97.839       68.610       41.542     9572.563     4707.366     1725.745        4.627        0.800      276.532       44.633        0.026      338.470       11.139      864.368
04/20/2014  01:32:00     -185.056     -112.196       -5.650       86.734       63.821       41.584     7522.755     4073.091     1729.228        3.009        0.666      216.411       47.404        0.048      338.420       11.055      864.372
04/20/2014  01:33:00     -163.455     -106.039        0.924       94.112       76.967       44.132     8857.015     5923.989     1947.593        2.734        0.836      194.838       54.552        0.078      338.455       11.116      864.370
04/20/2014  01:34:00     -126.588      -58.362       -4.061       86.322       52.332       40.073     7451.422     2738.614     1605.853        1.562        0.590      139.394       33.363        0.057      338.451       11.111      864.369
04/20/2014  01:35:00     -157.823      -38.531       -9.805       63.915       48.499       38.183     4085.177     2352.178     1457.924        1.719        0.395      162.458       38.231        0.055      338.473       11.148      864.395
04/20/2014  01:36:00     -101.104      -71.936       -2.528       47.942       60.016       29.370     2298.428     3601.939      862.602        1.108        0.338      124.084       26.602        0.046      338.430       11.074      864.427
04/20/2014  01:37:00      -37.215      -34.974       11.277       45.524       46.008       34.471     2072.447     2116.736     1188.218        0.406        0.269       51.070       29.967        0.344      338.398       11.022      864.443
04/20/2014  01:38:00      -28.058      -11.763       17.536       44.304       35.138       22.340     1962.885     1234.710      499.096        0.246        0.185       30.424       21.924        0.519      338.462       11.129      864.453
04/20/2014  01:39:00      -41.206      -25.998        5.610       25.433       19.540       22.901      646.862      381.830      524.466        0.198        0.078       48.723       17.364        0.127      338.452       11.113      864.476
04/20/2014  01:40:00      -64.401      -35.192       -6.106       26.534       19.392       13.355      704.047      376.046      178.349        0.334        0.063       73.389       10.143        0.019      338.436       11.085      864.498
04/20/2014  01:41:00     -101.943      -60.071      -11.089       67.823       26.695       21.439     4599.916      712.631      459.651        0.995        0.289      118.325       25.263        0.046      338.462       11.130      864.516
04/20/2014  01:42:00      -61.083      -18.257       -2.245       40.446       30.953       19.215     1635.880      958.081      369.233        0.352        0.148       63.753       16.531        0.067      338.395       11.017      864.536
04/20/2014  01:43:00      -26.135      -64.074       12.615       24.507       14.807       18.156      600.612      219.247      329.629        0.305        0.057       69.199       10.018        0.021      338.449       11.108      864.546
04/20/2014  01:44:00      -32.025      -43.022       -3.499       32.530       18.985       17.059     1058.182      360.437      291.020        0.230        0.085       53.633        9.791        0.033      338.402       11.031      864.545
04/20/2014  01:45:00      -36.820      -91.347       -6.040       21.599       29.059       15.796      466.507      844.432      249.499        0.565        0.078       98.489        6.979        0.005      338.583       11.332      864.550
04/20/2014  01:46:00      -18.909      -82.591       -2.328       22.486       18.729       17.133      505.623      350.778      293.555        0.417        0.057       84.728       11.243        0.018      338.658       11.460      864.566
04/20/2014  01:47:00      -40.431      -82.453        5.019       33.494       27.001       23.669     1121.851      729.069      560.216        0.543        0.121       91.832       19.250        0.044      338.641       11.430      864.597
04/20/2014  01:48:00       19.457      -41.439        8.325       41.816       42.290       37.716     1748.549     1788.427     1422.476        0.356        0.248       45.779       28.987        0.401      338.498       11.189      864.604
04/20/2014  01:49:00        9.878      -46.465       12.561       47.530       43.453       32.664     2259.079     1888.168     1066.942        0.381        0.261       47.503       28.016        0.348      338.419       11.056      864.621
04/20/2014  01:50:00      -29.271      -30.338       12.216       40.669       43.306       26.781     1653.997     1875.420      717.214        0.309        0.212       42.156       21.756        0.266      338.494       11.182      864.656
04/20/2014  01:51:00      -50.984      -64.768        2.457       28.625       27.731       19.071      819.377      768.996      363.718        0.438        0.098       82.428        7.570        0.008      338.536       11.255      864.678
04/20/2014  01:52:00       -6.956       14.107       17.698       21.814       18.107       23.786      475.842      327.864      565.774        0.096        0.068       15.729       11.635        0.547      338.390       11.008      864.698
04/20/2014  01:53:00       -6.830       28.962       48.061       19.135       21.687       15.183      366.129      470.342      230.531        0.213        0.053       29.756       13.341        0.201      338.208       10.703      864.725
04/20/2014  01:54:00       26.641       12.587       19.578       20.771       13.141       15.963      431.441      172.675      254.829        0.106        0.043       29.465       12.096        0.169      338.254       10.779      864.752
04/20/2014  01:55:00       -7.928        5.374        7.486       13.100        8.952        7.343      171.621       80.136       53.920        0.023        0.015        9.577        5.289        0.305      338.196       10.684      864.775
04/20/2014  01:56:00       13.019        4.770       12.790       16.777       10.012       10.002      281.483      100.249      100.048        0.042        0.024       13.866        9.306        0.450      338.185       10.664      864.791
04/20/2014  01:57:00       43.862       33.735        8.551       28.003       19.194       17.660      784.191      368.392      311.874        0.230        0.073       55.335       15.074        0.074      338.294       10.848      864.793
04/20/2014  01:58:00       51.371       26.282        4.526       22.102       18.368       13.984      488.480      337.370      195.565        0.219        0.051       57.704        7.556        0.017      338.088       10.503      864.782
04/20/2014  01:59:00      -11.455       35.962      -19.584       19.934       20.287        8.746      397.379      411.574       76.485        0.135        0.044       37.742        8.176        0.047      337.957       10.282      864.797
04/20/2014  02:00:00       -4.272        4.382       18.194       13.953       18.147       32.443      194.700      329.302     1052.518        0.097        0.079        6.120       22.014       12.940      338.121       10.558      864.770
04/20/2014  02:01:00       14.898      -38.046       10.904       21.824       61.495       41.394      476.281     3781.583     1713.428        0.388        0.299       40.859       46.982        1.322      338.189       10.672      864.731
04/20/2014  02:02:00      -18.502      -35.709       -3.518       28.412       36.425       24.390      807.228     1326.791      594.878        0.218        0.136       40.218       19.686        0.240      338.311       10.876      864.721
04/20/2014  02:03:00      -60.084        6.326       -3.881       34.100       37.560       19.016     1162.788     1410.779      361.610        0.330        0.147       60.416       17.512        0.084      338.394       11.015      864.750
04/20/2014  02:04:00      -21.126       65.180        7.359       23.707       30.006       25.221      562.030      900.336      636.075        0.342        0.105       68.518       20.800        0.092      338.206       10.700      864.789
04/20/2014  02:05:00       60.143       58.838        2.401       40.667       22.143       21.536     1653.786      490.293      463.781        0.485        0.130       84.138       15.952        0.036      338.210       10.707      864.784
04/20/2014  02:06:00       24.038       64.850       62.135       64.210       53.111       49.346     4122.955     2820.735     2435.027        0.901        0.469       69.162       39.605        0.328      338.187       10.668      864.746
04/20/2014  02:07:00       10.508        4.876       42.068       37.875       57.864       38.760     1434.482     3348.276     1502.309        0.409        0.314       11.584       39.717       11.755      338.226       10.733      864.766
04/20/2014  02:08:00       22.475      -71.871       -2.272       31.589       33.210       21.873      997.836     1102.907      478.429        0.413        0.129       75.303       18.084        0.058      338.486       11.171      864.804
04/20/2014  02:09:00       -4.720      -31.852        5.158       30.674       27.274       21.629      940.915      743.875      467.794        0.161        0.108       32.200       22.051        0.469      338.459       11.124      864.806
04/20/2014  02:10:00      -20.593      -46.855        6.585       27.025       47.441       21.739      730.332     2250.606      472.605        0.306        0.173       51.181       13.773        0.072      338.431       11.078      864.801
04/20/2014  02:11:00      -95.469       71.576      -17.942       34.776       29.144       23.919     1209.376      849.368      572.113        0.859        0.132      119.321       13.856        0.013      338.300       10.858      864.832
04/20/2014  02:12:00     -115.456       45.143       -9.983       39.271       24.531       20.170     1542.204      601.789      406.818        0.901        0.128      123.968       20.029        0.026      338.412       11.045      864.846
04/20/2014  02:13:00       -9.506       -4.412      -17.473       68.894       54.516       27.848     4746.367     2971.964      775.503        0.445        0.425       10.480       19.986        3.637      338.849       11.780      864.807
04/20/2014  02:14:00      -59.368      -85.967      -13.226       81.667       39.630       31.245     6669.449     1570.526      976.273        1.015        0.461      104.474       18.683        0.032      338.697       11.524      864.734
04/20/2014  02:15:00     -137.976     -111.854       -5.784       68.093       48.043       32.778     4636.589     2308.139     1074.366        1.980        0.401      177.619       26.583        0.022      338.593       11.348      864.749
04/20/2014  02:16:00      -73.145     -144.884       -2.220       60.384       63.802       38.496     3646.262     4070.745     1481.907        1.777        0.460      162.301       40.292        0.062      338.690       11.511      864.754
04/20/2014  02:17:00      -87.352     -247.107       -8.668       48.751       55.782       25.555     2376.623     3111.609      653.059        3.745        0.307      262.091       27.612        0.011      338.762       11.628      864.704
04/20/2014  02:18:00      -96.389     -147.125        1.165       94.394      103.767       63.572     8910.148    10767.525     4041.343        2.732        1.186      175.888       62.143        0.125      338.824       11.736      864.674
04/20/2014  02:19:00     -177.206      -59.314       -3.040      122.439       64.868       45.398    14991.200     4207.810     2060.951        2.809        1.063      186.870       59.745        0.102      338.773       11.650      864.680
04/20/2014  02:20:00     -179.312       -5.039        0.833      104.867       67.584       44.744    10997.166     4567.562     2002.030        2.487        0.878      179.382       57.871        0.104      338.611       11.378      864.716
04/20/2014  02:21:00     -174.963     -163.741        8.838       95.860       73.863       52.928     9189.182     5455.781     2801.365        3.747        0.872      239.631       53.582        0.050      338.462       11.127      864.647
04/20/2014  02:22:00     -255.997     -118.416       14.066      124.869       99.924       55.850    15592.266     9984.720     3119.269        5.422        1.435      282.058       62.359        0.049      338.411       11.041      864.638
04/20/2014  02:23:00     -274.295      -88.903      -24.318      106.481       57.064       42.219    11338.285     3256.355     1782.407        5.005        0.819      288.343       35.654        0.015      338.323       10.892      864.647
04/20/2014  02:24:00     -196.469      -44.395       -4.356      112.513       83.991       62.205    12659.094     7054.480     3869.508        3.208        1.179      201.422       59.526        0.087      338.251       10.772      864.618
04/20/2014  02:25:00     -228.996      -42.809      -21.570       81.362       66.430       45.021     6619.724     4413.002     2026.892        3.390        0.653      232.963       37.096        0.025      338.213       10.709      864.606
04/20/2014  02:26:00     -294.368      -33.890       -7.506      149.272       87.973       51.088    22282.091     7739.227     2609.952        6.024        1.632      296.312       59.796        0.041      338.152       10.605      864.593
04/20/2014  02:27:00     -347.251      -80.649       -4.325      144.423      124.010       75.729    20858.146    15378.427     5734.911        8.453        2.099      356.493       81.766        0.053      338.078       10.482      864.587
04/20/2014  02:28:00     -290.550     -156.618        1.519      146.189      123.094       70.919    21371.133    15152.073     5029.525        7.524        2.078      330.074       84.958        0.066      338.202       10.690      864.539
04/20/2014  02:29:00     -251.612     -140.355       -9.963      170.522      133.750       83.181    29077.597    17889.048     6919.034        6.849        2.694      288.111       69.923        0.059      338.369       10.970      864.470
04/20/2014  02:30:00     -165.139        8.447      -11.981      103.869       76.209       52.260    10788.717     5807.754     2731.097        2.340        0.966      165.355       52.682        0.102      338.307       10.869      864.517
04/20/2014  02:31:00     -146.137      -45.450       -0.578      133.181       59.215       33.637    17737.274     3506.402     1131.471        2.289        1.119      153.042       43.317        0.080      338.281       10.825      864.573
04/20/2014  02:32:00     -302.339      -84.006      -12.608       87.117       71.556       46.401     7589.357     5120.238     2153.084        5.674        0.743      313.793       43.722        0.019      338.206       10.696      864.594
04/20/2014  02:33:00     -212.647      -36.887      -15.161      131.866       99.362       66.162    17388.710     9872.787     4377.408        3.922        1.582      215.822       71.554        0.110      338.261       10.790      864.594
04/20/2014  02:34:00     -208.584      -64.339       -7.887      116.455       95.517       40.771    13561.851     9123.417     1662.298        3.602        1.217      218.282       39.290        0.032      338.355       10.947      864.635
04/20/2014  02:35:00     -219.882      -57.803      -18.159       82.228       64.262       48.913     6761.470     4129.621     2392.525        3.265        0.664      227.353       42.193        0.034      338.319       10.888      864.670
04/20/2014  02:36:00     -126.725      -54.583        3.148       77.722       54.972       32.701     6040.686     3021.933     1069.341        1.459        0.507      137.980       31.474        0.052      338.266       10.799      864.697
04/20/2014  02:37:00     -181.464      -23.145       -8.406       96.793       71.614       34.167     9368.970     5128.533     1167.417        2.460        0.783      182.934       39.425        0.046      338.431       11.076      864.726
04/20/2014  02:38:00     -155.284       -4.523       -4.886       42.853       43.147       25.927     1836.395     1861.640      672.222        1.426        0.219      155.350       24.475        0.025      338.388       11.006      864.747
04/20/2014  02:39:00     -192.923      -36.353       -7.556       81.961       52.504       31.423     6717.568     2756.658      987.413        2.453        0.523      196.318       35.407        0.033      338.325       10.896      864.785
04/20/2014  02:40:00     -109.293      -76.063       -4.901       53.320       28.243       26.836     2843.026      797.681      720.169        1.106        0.218      133.156       19.013        0.020      338.385       11.000      864.788
04/20/2014  02:41:00     -116.590      -67.034       -9.978       23.162       21.872       14.754      536.476      478.371      217.671        0.971        0.062      134.487       12.199        0.008      338.427       11.070      864.795
04/20/2014  02:42:00      -55.235      -76.254       14.208       56.226       51.026       33.588     3161.330     2603.613     1128.162        0.798        0.345       94.157       27.358        0.084      338.376       10.984      864.814
04/20/2014  02:43:00      -33.182      -87.948       11.310       44.929       54.374       30.342     2018.626     2956.569      920.622        0.743        0.295       93.999       26.767        0.081      338.342       10.926      864.825
04/20/2014  02:44:00      -31.919      -15.087        8.444       37.793       44.614       33.246     1428.331     1990.410     1105.307        0.292        0.226       35.305       34.879        0.976      338.211       10.708      864.856
04/20/2014  02:45:00       -9.435       -4.103        6.261       30.325       20.418       17.123      919.635      416.894      293.200        0.089        0.081       10.288       18.738        3.317      338.211       10.709      864.871
04/20/2014  02:46:00       -8.188        9.163       12.728       15.876       15.442       16.576      252.034      238.451      274.779        0.054        0.038       12.289        6.478        0.278      338.163       10.627      864.870
04/20/2014  02:47:00      -20.415      -16.438       11.573       22.841       31.975       18.438      521.708     1022.411      339.961        0.135        0.094       26.211       15.516        0.350      338.195       10.682      864.905
04/20/2014  02:48:00      -11.308       24.719       65.610       40.474       52.088       38.332     1638.143     2713.122     1469.364        0.543        0.291       27.183       38.545        2.011      338.078       10.484      864.895
04/20/2014  02:49:00       65.629      -38.528       23.861       60.955       90.449       57.702     3715.570     8181.045     3329.561        1.079        0.761       76.102       67.354        0.783      338.012       10.375      864.888
04/20/2014  02:50:00       66.298      -98.838      -31.239       61.811       41.021       27.513     3820.589     1682.713      756.955        1.070        0.313      119.014       23.147        0.038      338.146       10.599      864.900
04/20/2014  02:51:00      -28.715      -25.745        1.713       25.904       33.395       15.968      671.029     1115.220      254.979        0.177        0.102       38.566       11.726        0.092      338.216       10.718      864.916
04/20/2014  02:52:00      -12.575       43.041       48.253       20.559       26.235       38.357      422.663      688.294     1471.254        0.346        0.129       44.841       26.633        0.353      338.032       10.408      864.941
04/20/2014  02:53:00       14.907       56.446       66.193       48.337       44.178       27.492     2336.423     1951.656      755.801        0.642        0.252       58.381       16.492        0.080      338.029       10.402      864.970
04/20/2014  02:54:00       74.869      112.914      109.580       60.991       53.237       54.002     3719.897     2834.183     2916.205        1.991        0.474      135.480       45.347        0.112      337.996       10.347      864.992
04/20/2014  02:55:00       70.180      117.254      136.539       63.303       79.431       55.582     4007.315     6309.258     3089.389        2.536        0.670      136.652       60.620        0.197      337.972       10.306      865.014
04/20/2014  02:56:00       28.803       32.054       99.876       42.296       65.152       42.902     1788.917     4244.751     1840.544        0.985        0.394       43.094       40.199        0.870      338.012       10.374      865.054
04/20/2014  02:57:00       75.284       51.051       97.587       70.448       77.176       54.644     4962.984     5956.154     2985.969        1.585        0.695       90.961       58.608        0.415      338.000       10.354      865.088
04/20/2014  02:58:00       97.950       95.404      113.046       72.482       60.909       48.701     5253.601     3709.898     2371.739        2.140        0.567      136.734       36.123        0.070      337.947       10.264      865.119
04/20/2014  02:59:00       81.798       91.101       94.909       70.682       82.014       77.269     4995.942     6726.229     5970.549        2.084        0.885      122.435       58.305        0.227      337.973       10.309      865.147
04/20/2014  03:00:00       18.286       55.956      100.395       41.766       49.189       28.154     1744.375     2419.596      792.624        0.925        0.248       58.868       26.906        0.209      337.918       10.217      865.167
04/20/2014  03:01:00       85.360       73.786       81.472       73.257       50.197       53.665     5366.567     2519.730     2879.929        1.507        0.538      112.831       38.375        0.116      337.755        9.943      865.195
04/20/2014  03:02:00       90.899       -2.884       22.862       65.830       53.230       37.450     4333.637     2833.444     1402.488        0.868        0.428       90.945       30.502        0.112      337.698        9.847      865.212
04/20/2014  03:03:00      117.181       49.271       47.693       76.732       58.956       50.765     5887.730     3475.816     2577.076        1.518        0.597      127.118       45.749        0.130      337.680        9.818      865.219
04/20/2014  03:04:00      113.131       57.296       40.716       77.455       56.798       54.258     5999.206     3226.048     2943.976        1.495        0.608      126.813       31.829        0.063      337.562        9.620      865.205
04/20/2014  03:05:00       72.843       43.363       20.093       46.133       46.523       27.962     2128.256     2164.403      781.851        0.633        0.254       84.773       19.889        0.055      337.521        9.552      865.196
04/20/2014  03:06:00       71.301      -11.699       24.489       61.423       41.117       31.310     3772.819     1690.606      980.333        0.613        0.322       72.254       29.273        0.164      337.543        9.587      865.198
04/20/2014  03:07:00        4.233       25.997       -1.901       22.512       32.282       29.203      506.810     1042.096      852.838        0.155        0.120       26.339       23.494        0.796      337.585        9.657      865.179
04/20/2014  03:08:00     -114.075      -66.376       -4.624       66.243       50.445       23.158     4388.076     2544.711      536.298        1.245        0.373      131.981       21.715        0.027      337.695        9.842      865.187
04/20/2014  03:09:00      -62.265      -51.539        1.795       61.966       37.549       21.536     3839.845     1409.961      463.787        0.612        0.286       80.828       27.214        0.113      337.747        9.930      865.219
04/20/2014  03:10:00      -24.863      -58.792        3.255       42.475       31.379       22.031     1804.158      984.624      485.362        0.368        0.164       63.833       17.644        0.076      337.815       10.044      865.237
04/20/2014  03:11:00      -32.636      -21.931        8.020       52.419       25.703       26.867     2747.753      660.638      721.822        0.287        0.207       39.320       33.302        0.717      337.729        9.900      865.231
04/20/2014  03:12:00      -34.888      -28.610       10.994       48.056       42.391       28.484     2309.416     1796.970      811.347        0.354        0.246       45.119       28.085        0.387      337.814       10.043      865.237
04/20/2014  03:13:00      -30.766     -109.604        7.930       29.795       60.973       31.174      887.751     3717.679      971.788        0.930        0.279      113.840       30.686        0.073      337.951       10.273      865.243
04/20/2014  03:14:00       18.237      -40.833       12.170       37.622       67.131       37.341     1415.412     4506.553     1394.374        0.473        0.366       44.720       35.140        0.617      337.816       10.045      865.257
04/20/2014  03:15:00       47.010      -13.151       17.139       55.749       53.860       37.595     3107.916     2900.850     1413.356        0.505        0.371       48.815       44.868        0.845      337.749        9.933      865.266
04/20/2014  03:16:00       35.328       27.183        6.306       24.262       19.955       24.604      588.621      398.191      605.360        0.181        0.080       44.576       17.448        0.153      337.797       10.014      865.257
04/20/2014  03:17:00       34.706       37.103        2.868       20.584       23.244       18.622      423.693      540.293      346.772        0.195        0.066       50.805       12.752        0.063      337.782        9.988      865.233
04/20/2014  03:18:00       21.954       20.231        8.899       14.309       16.582       15.985      204.757      274.962      255.521        0.085        0.037       29.855        7.633        0.065      337.719        9.885      865.226
04/20/2014  03:19:00       42.066      -62.735       -7.821       21.118       32.716       17.985      445.969     1070.339      323.457        0.380        0.092       75.533       15.288        0.041      337.834       10.076      865.243
04/20/2014  03:20:00        6.744      -28.632       -6.517       30.041       27.839       23.320      902.456      774.990      543.832        0.156        0.111       29.415       12.661        0.185      337.835       10.077      865.281
04/20/2014  03:21:00       11.508       53.765      -10.075       32.095       29.376       16.792     1030.064      862.928      281.961        0.265        0.109       54.983       18.246        0.110      337.710        9.867      865.334
04/20/2014  03:22:00       61.069       24.454       -5.053       31.795       25.174       20.101     1010.910      633.731      404.058        0.320        0.102       65.783       11.444        0.030      337.483        9.486      865.369
04/20/2014  03:23:00       36.375       15.229        9.565       34.728       14.968       10.525     1206.004      224.033      110.773        0.159        0.077       39.434       11.111        0.079      337.470        9.465      865.396
04/20/2014  03:24:00       -9.382       -4.769        1.205        9.432       10.626       10.431       88.959      112.922      108.803        0.021        0.016       10.524        6.930        0.434      337.563        9.621      865.416
04/20/2014  03:25:00      -50.921       -3.967       -8.991       18.790       10.609        6.767      353.048      112.545       45.797        0.160        0.026       51.075        2.685        0.003      337.613        9.706      865.431
04/20/2014  03:26:00      -77.090      -32.429       -9.502       16.038       13.362        6.674      257.217      178.544       44.538        0.378        0.024       83.633        5.135        0.004      337.510        9.534      865.434
04/20/2014  03:27:00      -99.150      -60.697       -5.224       29.228       17.090       10.874      854.254      292.056      118.241        0.740        0.063      116.254       10.561        0.008      337.596        9.678      865.433
04/20/2014  03:28:00      -89.060      -46.496       -1.427       54.075       33.462       21.753     2924.075     1119.696      473.177        0.731        0.226      100.467       26.537        0.070      337.589        9.665      865.433
04/20/2014  03:29:00      -77.714      -37.086       -1.063       35.739       35.446       25.123     1277.268     1256.390      631.159        0.529        0.158       86.109       19.275        0.050      337.574        9.639      865.434
04/20/2014  03:30:00     -154.883      -83.490       -7.030       40.275       45.707       26.872     1622.091     2089.135      722.091        1.772        0.222      175.953       20.192        0.013      337.519        9.549      865.437
04/20/2014  03:31:00     -136.775      -79.285       -6.195       51.641       44.156       26.425     2666.759     1949.748      698.307        1.517        0.266      158.093       23.621        0.022      337.310        9.198      865.457
04/20/2014  03:32:00     -139.724      -66.825       -5.945       76.862       51.240       35.818     5907.829     2625.511     1282.925        1.692        0.491      154.882       33.086        0.046      337.189        8.994      865.481
04/20/2014  03:33:00     -142.740      -97.719        1.254       76.036       50.825       31.626     5781.423     2583.162     1000.231        1.964        0.468      172.985       31.380        0.033      337.102        8.848      865.510
04/20/2014  03:34:00      -72.270      -64.683        4.544       60.820       38.815       32.596     3699.079     1506.579     1062.484        0.785        0.313       96.989       29.375        0.092      337.061        8.781      865.548
04/20/2014  03:35:00     -136.112      -75.581       -6.631       56.892       47.134       26.971     3236.670     2221.613      727.412        1.523        0.309      155.689       25.205        0.026      337.045        8.753      865.579
04/20/2014  03:36:00     -141.701      -49.376        0.136       63.585       41.875       29.650     4043.097     1753.475      879.099        1.460        0.334      150.057       33.706        0.050      336.960        8.612      865.620
04/20/2014  03:37:00     -139.999      -24.149       -4.782       54.246       46.897       23.902     2942.579     2199.310      571.307        1.296        0.286      142.066       22.734        0.026      336.905        8.519      865.650
04/20/2014  03:38:00      -55.472      -49.937        0.705       46.803       34.760       20.419     2190.560     1208.241      416.936        0.469        0.191       74.638       20.899        0.078      336.913        8.533      865.658
04/20/2014  03:39:00      -24.520      -25.284       11.428       30.245       22.839       16.303      914.763      521.610      265.775        0.154        0.085       35.221       14.259        0.164      336.991        8.663      865.656
04/20/2014  03:40:00      -75.753      -49.073        6.282       43.041       23.612       21.810     1852.542      557.525      475.672        0.554        0.144       90.259       24.162        0.072      336.966        8.621      865.635
04/20/2014  03:41:00      -82.711      -51.152        4.233       37.618       34.576       18.657     1415.118     1195.524      348.102        0.622        0.148       97.250       12.807        0.017      337.012        8.698      865.622
04/20/2014  03:42:00     -109.145      -21.487       -2.728       37.374       28.553       21.179     1396.817      815.296      448.547        0.752        0.133      111.240       17.549        0.025      336.992        8.664      865.628
04/20/2014  03:43:00      -47.968       -9.457        2.972       41.041       30.899       22.182     1684.339      954.744      492.024        0.276        0.157       48.891       17.426        0.127      337.118        8.875      865.645
04/20/2014  03:44:00      -93.839       36.475       -3.709       59.538       31.843       26.575     3544.822     1013.995      706.221        0.771        0.263      100.679       24.749        0.060      337.192        9.000      865.669
04/20/2014  03:45:00     -119.461       38.829       -4.324       39.742       33.000       23.791     1579.427     1089.005      566.001        0.952        0.162      125.613       21.075        0.028      337.242        9.083      865.680
04/20/2014  03:46:00      -72.087       14.956       -4.703       33.468       30.562       24.946     1120.090      934.013      622.310        0.406        0.134       73.622       19.217        0.068      337.262        9.117      865.692
04/20/2014  03:47:00      -59.868       25.829       -5.871       24.095       24.796       17.565      580.570      614.851      308.536        0.289        0.075       65.202       10.073        0.024      337.336        9.242      865.688
04/20/2014  03:48:00      -49.385       19.910       -4.612       23.456       17.807       18.926      550.184      317.085      358.175        0.204        0.061       53.247       13.166        0.061      337.256        9.107      865.678
04/20/2014  03:49:00      -62.933      -11.269       -6.690       15.742       27.770       15.551      247.823      771.163      241.830        0.270        0.063       63.934       13.265        0.043      337.265        9.123      865.661
04/20/2014  03:50:00      -68.189      -47.784       -7.924       15.563       20.251       10.508      242.212      410.083      110.426        0.388        0.038       83.265        4.587        0.003      337.118        8.876      865.647
04/20/2014  03:51:00      -79.162      -40.258       -4.726       14.446       18.648       10.283      208.676      347.740      105.737        0.429        0.033       88.810        8.214        0.009      337.066        8.788      865.638
04/20/2014  03:52:00      -49.770      -35.186        1.214       30.463       20.134       16.470      927.989      405.368      271.265        0.266        0.080       60.952       14.746        0.059      337.024        8.719      865.634
04/20/2014  03:53:00      -42.235      -23.712        4.848       44.283       31.667       17.100     1960.971     1002.815      292.411        0.281        0.163       48.437       19.059        0.155      337.014        8.701      865.640
04/20/2014  03:54:00      -54.710        6.183       -7.338       23.300       25.508       13.149      542.904      650.647      172.902        0.223        0.068       55.058       12.891        0.055      336.921        8.548      865.658
04/20/2014  03:55:00      -59.813       26.482      -10.688       18.604       16.029       14.245      346.091      256.942      202.922        0.260        0.040       65.413        8.725        0.018      336.843        8.418      865.658
04/20/2014  03:56:00      -69.025       37.911      -10.770       22.156       18.163       11.862      490.876      329.890      140.708        0.364        0.048       78.750        9.604        0.015      337.033        8.733      865.631
04/20/2014  03:57:00      -54.719       53.897      -17.939       21.863       24.910       12.948      477.980      620.526      167.644        0.374        0.063       76.806       11.885        0.024      337.004        8.685      865.610
04/20/2014  03:58:00      -78.131       -3.437      -12.725       18.220       24.627        8.837      331.984      606.509       78.090        0.365        0.051       78.206        3.503        0.002      337.027        8.723      865.596
04/20/2014  03:59:00     -107.491      -16.675      -10.715       28.720       14.517       13.163      824.818      210.756      173.276        0.658        0.060      108.777       11.353        0.011      337.000        8.678      865.578
04/20/2014  04:00:00     -167.588       -4.121      -18.084       50.293       28.136       21.266     2529.390      791.615      452.262        1.610        0.189      167.639       21.520        0.016      336.881        8.478      865.578
04/20/2014  04:01:00     -180.546        2.381      -19.599       37.966       26.403       20.959     1441.403      697.119      439.284        1.778        0.129      180.562       16.654        0.009      336.858        8.442      865.582
04/20/2014  04:02:00     -167.123      -11.650      -10.933       46.890       37.768       28.698     2198.713     1426.429      823.585        1.632        0.222      167.528       24.585        0.022      336.988        8.658      865.574
04/20/2014  04:03:00     -149.866      -37.153        0.942       44.783       37.017       21.405     2005.544     1370.253      458.189        1.384        0.192      154.403       17.412        0.013      337.010        8.696      865.585
04/20/2014  04:04:00     -126.010      -29.494       -5.577       36.422       32.631       22.205     1326.568     1064.766      493.071        0.983        0.144      129.415       21.706        0.028      337.024        8.718      865.596
04/20/2014  04:05:00     -141.922       -7.600      -13.453       51.545       33.063       24.011     2656.917     1093.142      576.546        1.235        0.216      142.126       25.670        0.033      337.012        8.699      865.610
04/20/2014  04:06:00     -211.354      -12.877      -23.636       68.822       34.749       28.126     4736.449     1207.475      791.097        2.606        0.337      211.746       25.190        0.014      336.827        8.386      865.627
04/20/2014  04:07:00     -176.819      -14.951       -9.333       70.664       35.272       35.516     4993.351     1244.104     1261.361        1.954        0.375      177.450       38.264        0.046      336.703        8.181      865.614
04/20/2014  04:08:00     -185.465       -4.918      -20.972       49.712       36.179       26.844     2471.315     1308.907      720.575        1.968        0.225      185.530       26.339        0.020      336.620        8.045      865.609
04/20/2014  04:09:00     -162.847      -32.018      -13.883       33.146       41.304       26.178     1098.666     1706.004      685.266        1.561        0.174      165.965       22.102        0.018      336.626        8.055      865.598
04/20/2014  04:10:00     -159.552      -36.261       -7.853       39.973       35.938       29.480     1597.878     1291.552      869.061        1.530        0.188      163.621       22.436        0.019      336.617        8.040      865.575
04/20/2014  04:11:00      -96.493      -62.815        7.790       74.941       64.100       36.686     5616.117     4108.805     1345.842        1.219        0.554      115.137       42.343        0.135      336.626        8.055      865.576
04/20/2014  04:12:00     -122.425      -23.800       -8.803       54.576       50.159       34.325     2978.572     2515.888     1178.220        1.115        0.334      124.717       32.781        0.069      336.654        8.102      865.579
04/20/2014  04:13:00     -145.902        5.174      -16.759       32.706       38.552       23.169     1069.651     1486.270      536.815        1.234        0.155      145.994       16.759        0.013      336.659        8.111      865.595
04/20/2014  04:14:00     -226.313       34.439      -18.850       25.894       31.552       19.118      670.488      995.513      365.479        2.739        0.102      228.919       15.660        0.005      336.721        8.210      865.603
04/20/2014  04:15:00     -208.559       -7.081      -17.352       37.551       36.846       25.643     1410.068     1357.611      657.540        2.364        0.171      208.679       20.979        0.010      336.716        8.203      865.626
04/20/2014  04:16:00     -124.285      -32.061       -6.061       51.117       36.899       25.431     2612.951     1361.533      646.756        1.057        0.231      128.354       20.393        0.025      336.678        8.143      865.635
04/20/2014  04:17:00     -167.359      -44.646       -9.925       49.075       49.153       29.536     2408.354     2416.010      872.364        1.790        0.285      173.212       29.103        0.028      336.752        8.265      865.648
04/20/2014  04:18:00      -74.106      -17.503        4.848       44.085       45.756       24.454     1943.445     2093.611      597.989        0.523        0.232       76.144       15.486        0.041      336.636        8.073      865.656
04/20/2014  04:19:00      -61.996      -47.584       -6.282       39.960       40.025       22.907     1596.781     1602.003      524.727        0.493        0.186       78.152       12.306        0.025      336.575        7.971      865.662
04/20/2014  04:20:00     -100.943      -28.988      -13.288       36.083       61.873       29.686     1302.018     3828.301      881.279        0.861        0.301      105.022       23.777        0.051      336.567        7.956      865.659
04/20/2014  04:21:00      -41.900      -24.869       10.781       44.650       34.271       27.111     1993.658     1174.515      735.020        0.320        0.195       48.725       28.932        0.353      336.538        7.907      865.666
04/20/2014  04:22:00      -92.066        0.936      -11.543       36.008       31.035       16.859     1296.611      963.180      284.233        0.558        0.127       92.070        8.216        0.008      336.505        7.852      865.674
04/20/2014  04:23:00     -175.645      -29.220      -19.200       45.882       56.742       29.274     2105.199     3219.619      856.949        1.913        0.309      178.059       22.180        0.016      336.553        7.931      865.684
04/20/2014  04:24:00     -147.839      -38.387      -19.145       32.657       31.917       24.869     1066.481     1018.723      618.471        1.320        0.135      152.741       13.341        0.008      336.512        7.863      865.693
04/20/2014  04:25:00     -134.500      -34.942      -11.365       39.776       30.165       19.498     1582.103      909.956      380.167        1.116        0.144      138.964       14.843        0.011      336.540        7.911      865.711
04/20/2014  04:26:00     -108.582        1.678       -6.675       39.127       32.024       19.018     1530.939     1025.537      361.688        0.738        0.146      108.595       19.945        0.034      336.528        7.892      865.721
04/20/2014  04:27:00      -88.727      -15.092       -6.286       22.731       32.105       16.052      516.715     1030.711      257.682        0.497        0.090       90.001       12.817        0.020      336.562        7.948      865.741
04/20/2014  04:28:00      -48.927      -31.376       -1.030       29.619       24.288       16.960      877.258      589.917      287.647        0.257        0.088       58.123       10.659        0.034      336.533        7.898      865.757
04/20/2014  04:29:00      -60.260      -14.497       -1.722       23.609       24.450       14.657      557.378      597.794      214.841        0.261        0.069       61.980       10.991        0.031      336.559        7.943      865.769
04/20/2014  04:30:00      -44.439      -31.634        7.973       19.183       20.758       13.756      367.970      430.905      189.236        0.201        0.049       54.548       12.458        0.052      336.517        7.873      865.772
04/20/2014  04:31:00      -27.670      -55.230        6.342       31.405       27.767       15.368      986.265      771.016      236.182        0.292        0.100       61.774       15.090        0.060      336.654        8.102      865.763
04/20/2014  04:32:00       -4.905      -66.978       -7.956       13.119       19.417       16.911      172.120      377.036      285.988        0.270        0.042       67.158        9.427        0.020      336.721        8.213      865.759
04/20/2014  04:33:00       12.577      -56.415      -15.460       10.546       10.510        9.040      111.216      110.469       81.722        0.194        0.015       57.800        3.816        0.004      336.820        8.379      865.738
04/20/2014  04:34:00      -39.537      -32.025       -0.896       36.938       23.153       18.092     1364.427      536.046      327.311        0.241        0.111       50.880       20.415        0.161      336.841        8.414      865.726
04/20/2014  04:35:00      -27.120      -45.629        5.226       15.696       30.731       10.246      246.368      944.379      104.980        0.207        0.065       53.080       14.355        0.073      336.882        8.481      865.733
04/20/2014  04:36:00      -19.122       -4.328        3.446       22.214       13.903       12.845      493.484      193.295      164.998        0.062        0.043       19.606       10.700        0.298      336.785        8.320      865.733
04/20/2014  04:37:00       12.116       22.423       14.992       14.168       19.973       15.645      200.744      398.938      244.761        0.086        0.042       25.487        8.687        0.116      336.710        8.195      865.748
04/20/2014  04:38:00        3.663       24.950       30.083       18.549       17.718       13.511      344.072      313.941      182.550        0.119        0.042       25.217        5.491        0.047      336.512        7.864      865.759
04/20/2014  04:39:00        8.987       26.460       20.160       24.283       26.997       14.497      589.687      728.856      210.149        0.136        0.076       27.945        6.697        0.057      336.334        7.566      865.786
04/20/2014  04:40:00        7.210      -52.920       -7.576       19.529       33.370       19.260      381.385     1113.532      370.959        0.239        0.093       53.409       19.978        0.140      336.574        7.968      865.806
04/20/2014  04:41:00       12.709      -50.653      -17.192       25.544       31.648       21.122      652.519     1001.609      446.151        0.256        0.105       52.223        8.839        0.029      336.564        7.952      865.804
04/20/2014  04:42:00      -34.343       -6.326       -1.015       28.976       15.294       12.247      839.631      233.920      149.981        0.122        0.061       34.921       14.805        0.180      336.482        7.812      865.804
04/20/2014  04:43:00      -57.950      -15.879       -2.864       22.391       19.915       12.858      501.344      396.592      165.317        0.234        0.053       60.086       11.854        0.039      336.473        7.798      865.800
04/20/2014  04:44:00     -111.137      -35.312       -3.974       22.895       19.693       15.918      524.161      387.832      253.368        0.739        0.058      116.612       14.617        0.016      336.435        7.734      865.802
04/20/2014  04:45:00     -128.560      -48.641      -12.140       24.015       27.973       19.101      576.711      782.508      364.851        1.038        0.086      137.454       13.897        0.010      336.383        7.648      865.790
04/20/2014  04:46:00     -125.103      -50.984       -4.929       33.470       31.393       15.944     1120.227      985.489      254.215        1.032        0.118      135.093       13.775        0.010      336.351        7.593      865.776
04/20/2014  04:47:00     -150.709      -24.463       -9.556       32.163       22.996       21.766     1034.467      528.835      473.739        1.272        0.102      152.681       19.224        0.016      336.268        7.455      865.766
04/20/2014  04:48:00     -164.623      -63.172       -5.840       36.653       33.385       22.120     1343.439     1114.558      489.299        1.704        0.147      176.328       19.702        0.012      336.397        7.672      865.757
04/20/2014  04:49:00      -98.808      -48.870        9.807       66.896       43.173       27.601     4475.018     1863.946      761.789        0.967        0.355      110.233       29.855        0.073      336.470        7.794      865.761
04/20/2014  04:50:00     -107.138      -22.588        1.014       35.266       41.036       20.747     1243.678     1683.940      430.429        0.767        0.168      109.493       19.487        0.032      336.461        7.779      865.764
04/20/2014  04:51:00      -87.170      -36.931        2.915       26.292       18.635       16.989      691.293      347.282      288.609        0.515        0.066       94.670       14.328        0.023      336.501        7.845      865.764
04/20/2014  04:52:00      -82.390      -51.594      -12.390       38.274       22.544       14.449     1464.895      508.217      208.784        0.589        0.109       97.211        9.214        0.009      336.553        7.932      865.764
04/20/2014  04:53:00      -79.404      -46.365       -4.729       40.106       28.183       21.189     1608.480      794.291      448.963        0.566        0.143       91.950       18.560        0.041      336.459        7.776      865.777
04/20/2014  04:54:00      -72.606      -22.693       -5.426       34.964       22.262       15.594     1222.457      495.608      243.173        0.389        0.098       76.069       14.038        0.034      336.428        7.723      865.786
04/20/2014  04:55:00      -23.208      -91.379        2.409       32.465       28.173       20.002     1053.990      793.741      400.091        0.557        0.112       94.280       19.282        0.042      336.621        8.046      865.792
04/20/2014  04:56:00      -40.855      -36.881       -2.671       33.346       27.362       18.389     1111.971      748.695      338.160        0.262        0.110       55.040       12.617        0.053      336.596        8.003      865.801
04/20/2014  04:57:00      -32.587      -94.085        2.614       33.058       56.614       20.248     1092.840     3205.124      409.992        0.731        0.235       99.569       22.594        0.051      336.457        7.772      865.810
04/20/2014  04:58:00      -66.575      -74.931        3.509       39.933       32.743       25.581     1594.606     1072.106      654.377        0.669        0.166      100.234       19.343        0.037      336.291        7.493      865.804
04/20/2014  04:59:00     -112.372      -95.102        1.857       71.373       54.862       32.184     5094.163     3009.869     1035.804        1.541        0.457      147.214       31.076        0.045      336.154        7.264      865.805
04/20/2014  05:00:00     -120.685      -82.279        1.878       57.863       49.048       26.796     3348.175     2405.701      718.000        1.390        0.324      146.065       25.757        0.031      335.986        6.983      865.798
04/20/2014  05:01:00     -117.823      -79.888        9.327       69.777       47.370       37.175     4868.864     2243.902     1382.004        1.442        0.425      142.353       33.609        0.056      335.977        6.969      865.768
04/20/2014  05:02:00     -139.642      -80.605       -0.603       61.961       54.255       31.278     3839.223     2943.556      978.328        1.688        0.388      161.236       34.313        0.045      335.993        6.995      865.753
04/20/2014  05:03:00     -123.818      -75.063        0.170       60.276       42.605       25.234     3633.214     1815.159      636.733        1.352        0.304      144.794       30.172        0.043      336.003        7.013      865.758
04/20/2014  05:04:00     -102.402      -43.668        5.155       51.006       39.855       20.274     2601.568     1588.420      411.045        0.851        0.230      111.324       20.410        0.034      336.072        7.128      865.771
04/20/2014  05:05:00      -69.777      -33.479       -7.571       36.945       29.365       18.339     1364.936      862.285      336.305        0.430        0.128       77.393       11.110        0.021      336.085        7.149      865.794
04/20/2014  05:06:00     -113.583      -51.327        1.070       48.019       40.842       26.183     2305.852     1668.076      685.528        1.010        0.233      124.642       22.611        0.033      336.042        7.078      865.813
04/20/2014  05:07:00      -65.965      -45.498       -0.962       34.812       39.194       24.630     1211.884     1536.136      606.656        0.489        0.168       80.134       21.788        0.074      336.095        7.167      865.828
04/20/2014  05:08:00      -54.492      -31.536       15.899       41.983       33.101       19.938     1762.595     1095.661      397.525        0.374        0.163       62.960       21.350        0.115      336.189        7.322      865.850
04/20/2014  05:09:00     -100.873      -55.570       -6.483       37.142       23.031       17.111     1379.510      530.406      292.790        0.775        0.110      115.167       11.418        0.010      336.121        7.209      865.884
04/20/2014  05:10:00      -88.642      -48.891       -5.095       32.163       27.390       15.761     1034.451      750.237      248.400        0.615        0.102      101.232        9.025        0.008      336.089        7.157      865.904
04/20/2014  05:11:00      -63.748      -16.673       -6.106       20.126       24.538       11.258      405.059      602.094      126.739        0.276        0.057       65.892        6.086        0.009      336.095        7.165      865.910
04/20/2014  05:12:00      -95.165      -52.575      -15.195       28.373       18.042       14.070      805.019      325.503      197.976        0.669        0.066      108.722        8.455        0.006      336.123        7.212      865.928
04/20/2014  05:13:00      -70.735      -52.934      -10.171       51.293       31.613       21.091     2630.936      999.398      444.820        0.599        0.204       88.349       12.107        0.019      336.110        7.190      865.927
04/20/2014  05:14:00     -102.768      -76.251        1.423       38.257       27.164       19.448     1463.633      737.863      378.242        0.948        0.129      127.967       20.361        0.025      336.082        7.144      865.916
04/20/2014  05:15:00      -91.126      -54.005        0.893       56.925       28.977       21.019     3240.511      839.644      441.791        0.787        0.226      105.927       27.925        0.069      336.091        7.160      865.896
04/20/2014  05:16:00      -41.358      -43.257       16.177       62.898       36.271       32.391     3956.186     1315.555     1049.187        0.508        0.316       59.847       30.891        0.266      336.011        7.024      865.886
04/20/2014  05:17:00      -93.676      -81.824        3.029       40.349       46.059       29.189     1628.002     2121.461      851.987        1.004        0.230      124.380       24.049        0.037      336.004        7.014      865.882
04/20/2014  05:18:00     -140.852      -54.799       -9.310       24.912       21.068       15.880      620.621      443.850      252.164        1.212        0.066      151.137       14.484        0.009      335.960        6.940      865.878
04/20/2014  05:19:00     -107.119      -52.869      -13.173       45.801       31.407       14.367     2097.769      986.384      206.419        0.887        0.165      119.456       13.480        0.013      336.002        7.011      865.873
04/20/2014  05:20:00     -116.464      -47.856       -4.253       30.495       26.326       20.134      929.975      693.066      405.382        0.895        0.101      125.913       14.114        0.013      335.997        7.002      865.878
04/20/2014  05:21:00      -89.462      -30.293       -5.432       25.181       22.133       17.411      634.069      489.854      303.151        0.519        0.071       94.452       15.419        0.027      335.943        6.913      865.895
04/20/2014  05:22:00      -64.585      -54.802        2.751       46.489       23.527       23.186     2161.223      553.507      537.579        0.522        0.163       84.702       23.448        0.077      336.023        7.047      865.920
04/20/2014  05:23:00      -32.750      -68.149      -11.774       22.212       17.572       11.036      493.391      308.760      121.787        0.339        0.046       75.609        2.996        0.002      336.126        7.218      865.938
04/20/2014  05:24:00      -17.283      -37.274       -1.564       16.972       18.633       12.662      288.056      347.203      160.333        0.124        0.040       41.086        4.489        0.012      336.127        7.219      865.960
04/20/2014  05:25:00        8.609        9.636       10.854       27.963       26.079       17.425      781.941      680.126      303.638        0.102        0.088       12.921        4.734        0.134      336.052        7.095      865.993
04/20/2014  05:26:00        5.627       90.121      102.624       29.733       41.913       33.328      884.023     1756.658     1110.750        1.122        0.188       90.296       30.086        0.111      335.982        6.977      866.028
04/20/2014  05:27:00       23.917       95.869      104.562       52.411       44.369       35.033     2746.871     1968.601     1227.342        1.332        0.297       98.808       35.675        0.130      335.818        6.706      866.046
04/20/2014  05:28:00       68.673       63.016       71.805       61.599       36.719       29.575     3794.441     1348.259      874.662        0.993        0.301       93.205       28.872        0.096      335.788        6.656      866.048
04/20/2014  05:29:00       35.184        5.921       36.384       24.228       30.042       22.565      587.001      902.500      509.177        0.230        0.100       35.679       21.972        0.379      335.852        6.763      866.038
04/20/2014  05:30:00       42.128      -64.014       -0.493       46.395       35.266       23.370     2152.459     1243.669      546.138        0.491        0.197       76.632       19.132        0.062      336.034        7.064      866.016
04/20/2014  05:31:00      -14.407      -37.982       13.942       53.958       31.260       24.882     2911.473      977.164      619.107        0.318        0.225       40.623       18.044        0.197      335.999        7.007      866.012
04/20/2014  05:32:00     -112.131      -79.435       -3.201       49.328       35.126       30.478     2433.231     1233.852      928.920        1.174        0.230      137.416       26.322        0.037      335.890        6.825      866.022
04/20/2014  05:33:00      -85.791      -55.417       -8.351       54.712       31.935       29.406     2993.386     1019.854      864.704        0.769        0.244      102.133       22.378        0.048      335.793        6.663      866.020
04/20/2014  05:34:00      -61.579      -55.849        1.670       48.494       44.893       27.778     2351.623     2015.416      771.631        0.603        0.257       83.133       19.889        0.057      335.807        6.688      866.028
04/20/2014  05:35:00      -33.541      -43.831        4.721       51.194       43.753       21.974     2620.843     1914.293      482.863        0.404        0.251       55.192       20.015        0.132      335.824        6.716      866.040
04/20/2014  05:36:00     -113.570      -56.977        4.148       54.905       48.080       32.451     3014.542     2311.724     1053.093        1.127        0.319      127.061       23.723        0.035      335.713        6.529      866.042
04/20/2014  05:37:00     -128.290     -107.073       -6.865       46.462       46.987       23.849     2158.755     2207.799      568.780        1.645        0.247      167.102       23.876        0.020      335.731        6.560      866.030
04/20/2014  05:38:00     -151.957     -110.245        8.590       64.661       47.425       39.462     4181.061     2249.178     1557.213        2.165        0.399      187.736       38.624        0.042      335.705        6.515      866.008
04/20/2014  05:39:00     -156.585     -134.037       -4.418       79.086       56.560       39.689     6254.580     3198.978     1575.180        2.676        0.551      206.118       43.385        0.044      335.802        6.675      866.000
04/20/2014  05:40:00     -145.554     -108.437        5.244       87.697       55.766       34.488     7690.815     3109.821     1189.413        2.248        0.600      181.507       41.074        0.051      335.836        6.731      865.996
04/20/2014  05:41:00     -111.098      -84.713        9.832       66.148       50.445       32.695     4375.617     2544.685     1068.981        1.380        0.399      139.711       35.745        0.065      335.892        6.827      865.991
04/20/2014  05:42:00     -131.079      -73.074        6.226       65.474       43.933       30.303     4286.877     1930.101      918.254        1.485        0.357      150.071       31.007        0.043      335.864        6.781      865.995
04/20/2014  05:43:00      -90.683      -65.534       12.279       55.302       49.829       29.762     3058.274     2482.959      885.773        0.955        0.321      111.885       28.304        0.064      335.873        6.796      866.012
04/20/2014  05:44:00      -80.506     -117.108       -2.562       49.342       53.755       24.168     2434.586     2889.560      584.081        1.305        0.295      142.111       19.709        0.019      335.861        6.777      866.023
04/20/2014  05:45:00      -86.227     -111.937      -13.472       51.459       71.421       36.141     2648.061     5101.010     1306.198        1.460        0.453      141.297       30.172        0.046      335.801        6.675      866.034
04/20/2014  05:46:00      -54.530      -72.856        5.611       53.024       53.002       33.697     2811.520     2809.169     1135.511        0.753        0.338       91.003       28.645        0.099      335.731        6.562      866.055
04/20/2014  05:47:00      -91.319      -68.203       -1.743       64.795       46.802       31.421     4198.333     2190.450      987.304        1.018        0.369      113.977       34.509        0.092      335.659        6.440      866.063
04/20/2014  05:48:00     -113.769     -114.414      -13.216       34.825       24.152       24.680     1212.751      583.313      609.126        1.431        0.120      161.350       18.274        0.013      335.629        6.392      866.064
04/20/2014  05:49:00      -93.751      -57.089      -15.361       19.719       37.910       15.720      388.824     1437.178      247.128        0.718        0.104      109.766       15.125        0.019      335.635        6.400      866.074
04/20/2014  05:50:00     -114.268      -49.933      -12.781       36.313       31.695       21.221     1318.670     1004.581      450.329        0.924        0.139      124.702       11.202        0.008      335.660        6.443      866.076
04/20/2014  05:51:00     -128.603       10.331       -4.407       67.168       37.602       28.103     4511.561     1413.935      789.804        1.169        0.336      129.017       32.471        0.063      335.364        5.947      866.079
04/20/2014  05:52:00     -137.215      -13.488       -1.644       47.271       48.357       25.909     2234.540     2338.399      671.261        1.213        0.262      137.876       25.112        0.033      335.184        5.648      866.073
04/20/2014  05:53:00     -131.153      -36.068       -3.235       42.974       37.001       21.039     1846.800     1369.073      442.645        1.108        0.183      136.022       21.070        0.024      335.327        5.887      866.088
04/20/2014  05:54:00     -125.557      -43.908       -0.786       33.531       28.439       20.088     1124.341      808.759      403.546        1.001        0.117      133.013       19.858        0.022      335.248        5.756      866.117
04/20/2014  05:55:00     -127.890      -35.099      -10.765       17.438       29.252       13.636      304.074      855.691      185.937        0.952        0.067      132.619        7.106        0.003      335.352        5.926      866.144
04/20/2014  05:56:00      -87.378      -42.825       -4.558       31.461       26.135       17.136      989.824      683.056      293.649        0.573        0.098       97.308       14.880        0.023      335.444        6.081      866.165
04/20/2014  05:57:00      -39.637      -60.053       -3.421       46.286       29.363       20.025     2142.386      862.209      400.983        0.430        0.170       71.954       26.166        0.132      335.541        6.244      866.193
04/20/2014  05:58:00      -18.447      -31.382        5.838       27.106       17.400       14.493      734.713      302.758      210.045        0.130        0.062       36.403       11.729        0.104      335.603        6.346      866.214
04/20/2014  05:59:00      -60.236      -46.716      -10.409       22.736       19.486       11.768      516.908      379.690      138.490        0.348        0.052       76.228       11.308        0.022      335.534        6.231      866.217
04/20/2014  06:00:00      -43.921      -64.270        4.160       37.869       38.665       20.165     1434.045     1494.955      406.644        0.471        0.167       77.843       23.496        0.091      335.564        6.282      866.221
04/20/2014  06:01:00      -82.346      -72.168        2.862       41.434       36.954       25.894     1716.808     1365.612      670.522        0.787        0.188      109.495       20.084        0.034      335.586        6.318      866.223
04/20/2014  06:02:00      -99.692      -75.638       -3.773       35.244       38.242       20.013     1242.128     1462.471      400.536        0.939        0.155      125.138       17.010        0.018      335.571        6.294      866.238
04/20/2014  06:03:00      -80.167      -80.605       -3.193       50.729       34.974       22.003     2573.419     1223.181      484.142        0.861        0.214      113.683       24.516        0.047      335.545        6.251      866.246
04/20/2014  06:04:00      -86.627      -94.403       -3.193       31.766       43.203       20.604     1009.059     1866.469      424.510        0.986        0.165      128.126       10.962        0.007      335.583        6.313      866.243
04/20/2014  06:05:00     -109.452     -106.759        0.895       41.674       36.956       26.976     1736.733     1365.714      727.728        1.360        0.192      152.896       25.884        0.029      335.593        6.331      866.242
04/20/2014  06:06:00     -125.757     -116.947       -3.553       56.601       52.615       26.405     3203.622     2768.363      697.225        1.809        0.333      171.731       28.248        0.027      335.625        6.382      866.241
04/20/2014  06:07:00     -146.243     -118.640       -2.147       50.353       47.264       37.822     2535.385     2233.844     1430.489        2.083        0.310      188.315       33.504        0.032      335.596        6.333      866.251
04/20/2014  06:08:00     -135.138     -114.503       -6.341       51.573       39.157       36.676     2659.728     1533.232     1345.102        1.847        0.277      177.125       25.010        0.020      335.608        6.353      866.260
04/20/2014  06:09:00     -117.158      -93.195       -4.136       49.332       45.099       28.986     2433.631     2033.936      840.181        1.387        0.265      149.704       19.735        0.017      335.600        6.342      866.267
04/20/2014  06:10:00     -112.756      -78.716        0.399       55.227       42.013       29.565     3050.059     1765.073      874.067        1.230        0.284      137.514       26.390        0.037      335.627        6.385      866.285
04/20/2014  06:11:00     -121.815      -70.105       -0.342       50.476       44.653       30.230     2547.851     1993.880      913.867        1.260        0.273      140.548       27.387        0.038      335.606        6.350      866.316
04/20/2014  06:12:00     -124.501      -78.333       -8.858       61.738       52.133       31.279     3811.621     2717.832      978.351        1.461        0.375      147.094       33.395        0.052      335.538        6.238      866.329
04/20/2014  06:13:00      -99.583      -92.189       -2.755       67.794       53.010       37.632     4596.004     2810.011     1416.190        1.362        0.441      135.704       38.287        0.080      335.502        6.177      866.332
04/20/2014  06:14:00     -111.673      -57.117       -1.385       47.969       31.427       26.418     2301.040      987.644      697.890        0.986        0.199      125.432       18.181        0.021      335.488        6.156      866.340
04/20/2014  06:15:00      -98.142      -10.646        8.053       62.078       46.976       32.421     3853.704     2206.788     1051.144        0.846        0.356       98.718       34.544        0.122      335.371        5.960      866.340
04/20/2014  06:16:00     -142.402      -37.943       -0.404       67.751       50.126       38.317     4590.248     2512.575     1468.177        1.514        0.429      147.370       42.698        0.084      335.307        5.853      866.331
04/20/2014  06:17:00     -203.123      -19.190       -8.913       66.296       49.248       33.791     4395.122     2425.396     1141.847        2.483        0.398      204.027       35.200        0.030      335.289        5.820      866.339
04/20/2014  06:18:00     -141.830      -22.443        6.611       86.933       56.307       29.891     7557.322     3170.436      893.450        1.614        0.581      143.595       35.896        0.062      335.228        5.721      866.354
04/20/2014  06:19:00     -109.884      -10.460        2.105       62.410       43.244       38.414     3895.005     1870.026     1475.601        0.971        0.362      110.381       38.232        0.120      335.164        5.617      866.357
04/20/2014  06:20:00     -166.421      -36.326        0.358       51.047       50.394       35.324     2605.811     2539.552     1247.814        1.770        0.320      170.340       27.616        0.026      335.174        5.632      866.373
04/20/2014  06:21:00     -140.622      -31.535       -0.106       38.645       43.795       29.576     1493.438     1917.999      874.712        1.253        0.214      144.115       21.871        0.023      335.208        5.690      866.381
04/20/2014  06:22:00      -98.168      -51.472        2.827       46.463       58.523       27.417     2158.818     3424.959      751.688        0.931        0.317      110.844       26.015        0.055      335.218        5.704      866.384
04/20/2014  06:23:00     -115.810      -69.334       -3.473       46.996       52.713       29.287     2208.582     2778.644      857.722        1.204        0.292      134.979       24.532        0.033      335.197        5.670      866.396
04/20/2014  06:24:00      -77.228      -48.269        1.679       58.134       41.290       24.780     3379.579     1704.840      614.030        0.700        0.285       91.072       30.567        0.113      335.170        5.626      866.396
04/20/2014  06:25:00     -129.541      -18.200       -9.965       56.899       47.397       28.172     3237.512     2246.452      793.651        1.174        0.314      130.813       29.135        0.050      335.152        5.597      866.403
04/20/2014  06:26:00     -121.050      -28.656        9.785       74.356       52.275       39.405     5528.883     2732.662     1552.762        1.269        0.491      124.395       45.097        0.131      335.027        5.389      866.426
04/20/2014  06:27:00     -138.649      -42.737       -0.003       60.802       49.919       31.273     3696.854     2491.948      977.983        1.411        0.358      145.086       34.564        0.057      335.033        5.399      866.435
04/20/2014  06:28:00     -124.804      -68.422       -2.790       49.360       44.068       26.964     2436.442     1941.998      727.072        1.268        0.255      142.329       24.577        0.030      335.024        5.384      866.454
04/20/2014  06:29:00     -119.609      -59.890       -9.307       31.392       38.408       24.601      985.464     1475.154      605.210        1.052        0.153      133.765       18.634        0.019      335.022        5.381      866.467
04/20/2014  06:30:00     -134.083      -52.094       -4.141       39.121       34.314       24.469     1530.474     1177.417      598.738        1.201        0.165      143.848       16.452        0.013      335.038        5.406      866.476
04/20/2014  06:31:00      -40.718      -34.813        7.146       37.645       22.193       14.407     1417.109      492.524      207.550        0.252        0.106       53.571       17.959        0.112      335.110        5.527      866.498
04/20/2014  06:32:00      -36.854      -57.522       10.629       36.931       28.651       18.780     1363.912      820.893      352.687        0.366        0.127       68.316       13.096        0.037      335.198        5.673      866.512
04/20/2014  06:33:00      -31.092      -52.993        2.774       36.262       47.019       20.751     1314.953     2210.800      430.614        0.387        0.198       61.441       19.564        0.101      335.214        5.699      866.540
04/20/2014  06:34:00      -93.489      -80.266       -5.098       41.312       40.534       20.928     1706.704     1643.003      437.973        0.950        0.189      123.218       23.023        0.035      335.055        5.435      866.565
04/20/2014  06:35:00     -123.842      -96.999      -10.223       39.487       45.309       22.410     1559.213     2052.867      502.230        1.448        0.206      157.308       14.145        0.008      335.019        5.376      866.564
04/20/2014  06:36:00     -127.992      -84.830       -4.847       46.701       27.360       22.109     2181.026      748.567      488.792        1.351        0.171      153.551       25.371        0.027      335.000        5.343      866.577
04/20/2014  06:37:00      -86.404      -78.216       -2.403       63.330       36.543       31.351     4010.684     1335.427      982.854        0.996        0.316      116.548       33.129        0.081      335.115        5.536      866.577
04/20/2014  06:38:00     -135.669     -122.640      -14.973       37.247       30.580       24.251     1387.305      935.148      588.096        1.829        0.146      182.884       18.034        0.010      335.032        5.398      866.574
04/20/2014  06:39:00     -116.287      -80.975        2.940       78.435       40.960       33.478     6152.077     1677.718     1120.781        1.452        0.448      141.702       39.358        0.077      335.063        5.449      866.590
04/20/2014  06:40:00      -80.087      -81.780       12.371       58.309       47.437       31.605     3399.905     2250.297      998.898        0.995        0.332      114.464       23.225        0.041      335.105        5.519      866.595
04/20/2014  06:41:00      -95.433      -83.415       -3.306       68.822       49.014       32.260     4736.519     2402.404     1040.733        1.213        0.409      126.750       20.584        0.026      335.110        5.527      866.599
04/20/2014  06:42:00     -125.933      -96.007        1.412       77.998       58.815       42.250     6083.666     3459.246     1785.103        1.820        0.566      158.356       41.397        0.068      335.020        5.377      866.612
04/20/2014  06:43:00     -100.972      -63.452        5.325       89.193       46.316       42.751     7955.401     2145.126     1827.636        1.309        0.596      119.254       46.830        0.154      335.006        5.355      866.613
04/20/2014  06:44:00     -117.780      -73.585        4.259       74.214       58.941       47.366     5507.745     3474.026     2243.505        1.526        0.561      138.877       40.164        0.084      334.974        5.300      866.616
04/20/2014  06:45:00     -105.240      -94.974        9.200       67.958       48.620       44.003     4618.281     2363.891     1936.306        1.455        0.446      141.758       32.938        0.054      334.948        5.258      866.623
04/20/2014  06:46:00     -119.593      -93.423       -3.763       75.418       78.073       38.581     5687.813     6095.453     1488.530        1.816        0.664      151.758       43.531        0.082      334.932        5.231      866.630
04/20/2014  06:47:00     -138.337      -88.660      -17.012       60.115       48.614       37.836     3613.788     2363.326     1431.537        1.735        0.370      164.310       29.299        0.032      334.905        5.184      866.636
04/20/2014  06:48:00     -148.997     -101.226       -4.059       66.420       53.928       38.386     4411.602     2908.181     1473.479        2.063        0.440      180.130       38.118        0.045      334.896        5.171      866.645
04/20/2014  06:49:00     -146.693     -120.802      -11.533       61.564       49.876       35.785     3790.068     2487.632     1280.574        2.190        0.378      190.032       32.228        0.029      334.884        5.149      866.666
04/20/2014  06:50:00     -134.254      -97.810      -14.213       48.793       45.825       29.557     2380.783     2099.967      873.630        1.657        0.268      166.105       21.272        0.016      334.926        5.222      866.686
04/20/2014  06:51:00      -97.264      -82.801       -2.078       76.112       70.754       33.851     5793.104     5006.182     1145.883        1.413        0.597      127.735       35.227        0.076      334.963        5.282      866.705
04/20/2014  06:52:00     -144.107     -132.766       -5.754       74.564       65.417       43.250     5559.819     4279.374     1870.587        2.507        0.585      195.943       43.963        0.050      334.945        5.252      866.721
04/20/2014  06:53:00     -134.126      -93.299        3.948       62.962       54.246       35.782     3964.225     2942.614     1280.360        1.745        0.409      163.385       29.354        0.032      334.987        5.322      866.747
04/20/2014  06:54:00      -63.109      -62.039       14.184       45.461       55.275       33.263     2066.683     3055.347     1106.433        0.713        0.311       88.496       27.478        0.096      335.045        5.418      866.779
04/20/2014  06:55:00     -106.624      -91.096       -5.498       44.680       38.253       35.386     1996.311     1463.321     1252.189        1.220        0.236      140.240       27.181        0.038      334.984        5.319      866.806
04/20/2014  06:56:00      -72.152      -47.267        0.256       45.358       49.655       28.081     2057.310     2465.638      788.562        0.637        0.266       86.256       27.888        0.105      335.009        5.359      866.823
04/20/2014  06:57:00     -107.578      -67.850        4.911       75.053       49.317       32.305     5633.025     2432.144     1043.615        1.265        0.455      127.187       40.363        0.101      335.076        5.469      866.820
04/20/2014  06:58:00     -152.899      -52.994       -2.950       66.657       39.314       29.599     4443.155     1545.592      876.087        1.653        0.343      161.823       34.840        0.046      335.002        5.347      866.817
04/20/2014  06:59:00     -159.826      -87.181       -1.494       46.330       44.632       30.394     2146.483     1991.986      923.781        1.910        0.253      182.058       30.377        0.028      335.053        5.432      866.809
04/20/2014  07:00:00     -115.190      -80.836       -4.941       41.432       39.405       21.962     1716.584     1552.750      482.348        1.179        0.188      140.724       19.174        0.019      335.095        5.502      866.808
04/20/2014  07:01:00     -127.114      -70.651       -2.477       43.354       36.874       20.103     1879.566     1359.694      404.140        1.240        0.182      145.429       19.309        0.018      335.168        5.622      866.812
04/20/2014  07:02:00      -93.550      -70.802       -3.624       39.672       28.548       25.647     1573.873      814.986      657.778        0.841        0.152      117.322       19.744        0.028      335.212        5.695      866.811
04/20/2014  07:03:00      -96.699      -60.606        0.254       51.096       34.412       25.352     2610.839     1184.172      642.712        0.873        0.222      114.122       22.031        0.037      335.309        5.856      866.812
04/20/2014  07:04:00     -134.830      -37.782       -0.854       41.183       36.888       20.964     1696.029     1360.753      439.474        1.155        0.175      140.023       19.612        0.020      335.172        5.629      866.812
04/20/2014  07:05:00      -91.619      -25.561       -0.477       37.477       31.355       20.286     1404.528      983.142      411.527        0.592        0.140       95.118       21.727        0.052      335.191        5.661      866.830
04/20/2014  07:06:00      -54.903      -60.700        4.328       37.770       30.516       20.249     1426.541      931.210      410.011        0.474        0.138       81.846       17.249        0.044      335.309        5.855      866.853
04/20/2014  07:07:00      -46.870      -34.533        6.818       39.424       27.874       20.040     1554.224      776.971      401.597        0.308        0.137       58.218       22.115        0.144      335.335        5.900      866.875
04/20/2014  07:08:00      -44.696      -18.566        6.752       22.312       22.271       15.399      497.803      495.997      237.142        0.181        0.062       48.399       11.135        0.053      335.370        5.957      866.900
04/20/2014  07:09:00      -28.963      -56.661        1.484       15.642       16.787       11.876      244.665      281.798      141.040        0.236        0.033       63.635        5.716        0.008      335.327        5.886      866.921
04/20/2014  07:10:00      -16.043      -44.279       -6.311       24.415       21.300       21.614      596.074      453.689      467.156        0.189        0.076       47.096        8.290        0.031      335.519        6.207      866.920
04/20/2014  07:11:00      -47.737      -31.616      -10.445       21.500       21.661       11.784      462.230      469.188      138.869        0.223        0.054       57.257        8.165        0.020      335.391        5.993      866.931
04/20/2014  07:12:00      -56.202      -18.509       -2.022       20.803       17.979       16.456      432.782      323.258      270.796        0.227        0.051       59.172       15.585        0.069      335.471        6.125      866.936
04/20/2014  07:13:00      -63.906      -49.573       -7.181       26.412       30.858       17.017      697.587      952.193      289.583        0.427        0.097       80.879       12.532        0.024      335.374        5.965      866.938
04/20/2014  07:14:00      -43.204      -30.837        1.798       29.855       18.572       18.826      891.321      344.927      354.402        0.221        0.080       53.080        9.714        0.033      335.447        6.087      866.945
04/20/2014  07:15:00      -45.366      -40.295        2.502       28.292       24.025       15.361      800.442      577.187      235.950        0.265        0.081       60.677       13.796        0.052      335.468        6.122      866.962
04/20/2014  07:16:00      -61.053      -67.591      -10.427       28.764       35.390       13.788      827.377     1252.475      190.114        0.534        0.113       91.082       10.760        0.014      335.407        6.020      866.969
04/20/2014  07:17:00      -78.165      -75.333       -8.656       28.308       23.213       19.143      801.336      538.857      366.452        0.678        0.085      108.558       11.993        0.012      335.456        6.101      866.981
04/20/2014  07:18:00      -50.434      -48.800       -0.094       37.037       29.083       25.638     1371.719      845.829      657.332        0.390        0.144       70.179       19.943        0.081      335.516        6.201      866.981
04/20/2014  07:19:00      -39.705      -25.363       -2.508       34.215       24.888       23.517     1170.685      619.407      553.056        0.228        0.117       47.114       19.355        0.169      335.551        6.261      866.979
04/20/2014  07:20:00      -51.171      -19.312        4.964       29.953       17.898       14.342      897.156      320.330      205.698        0.222        0.071       54.694        9.530        0.030      335.519        6.207      866.982
04/20/2014  07:21:00      -90.187      -58.000       -8.996       37.830       20.022       15.900     1431.094      400.869      252.821        0.683        0.104      107.227       14.024        0.017      335.501        6.177      866.981
04/20/2014  07:22:00      -67.697      -57.051       -0.282       26.462       19.264       16.500      700.216      371.093      272.234        0.459        0.067       88.531       13.029        0.022      335.541        6.242      866.988
04/20/2014  07:23:00      -67.714      -45.073       -7.085       28.075       20.758       15.138      788.230      430.876      229.152        0.406        0.072       81.343        9.470        0.014      335.608        6.355      866.978
04/20/2014  07:24:00      -33.472      -22.702        1.001       19.952       16.214        7.667      398.096      262.906       58.790        0.118        0.036       40.445        5.721        0.020      335.680        6.475      866.980
04/20/2014  07:25:00      -46.589        3.914       -5.567       17.657       10.830        8.687      311.763      117.293       75.460        0.136        0.025       46.753        5.568        0.014      335.650        6.424      866.988
04/20/2014  07:26:00      -36.263       -1.463        3.268       35.167        9.686        7.053     1236.752       93.818       49.751        0.135        0.069       36.292       10.576        0.085      335.759        6.608      866.992
04/20/2014  07:27:00     -101.415      -11.952       -5.673       20.965       17.973       14.521      439.528      323.038      210.870        0.572        0.049      102.117       11.921        0.014      335.707        6.520      867.004
04/20/2014  07:28:00      -84.207      -17.882       -7.954       17.691       22.166       12.291      312.978      491.322      151.072        0.421        0.048       86.085        9.101        0.011      335.784        6.648      867.010
04/20/2014  07:29:00      -37.014      -14.206       -0.334       25.166       12.961       10.148      633.308      167.983      102.978        0.124        0.045       39.647       11.949        0.091      335.989        6.991      867.021
04/20/2014  07:30:00      -11.655       -0.399       11.755       13.511       16.524       17.359      182.547      273.045      301.347        0.052        0.038       11.661       11.686        1.004      336.191        7.327      867.040
04/20/2014  07:31:00      -47.639      -33.748        0.360       15.263       21.307       13.896      232.945      453.982      193.098        0.214        0.044       58.382       15.627        0.072      335.833        6.731      867.058
04/20/2014  07:32:00      -33.655      -14.569       -5.046       12.870        6.547        5.798      165.647       42.867       33.620        0.081        0.012       36.673        3.109        0.007      335.899        6.841      867.075
04/20/2014  07:33:00      -33.298       -0.406        0.575        7.770        9.720       10.066       60.373       94.485      101.324        0.068        0.013       33.301        4.577        0.019      335.964        6.946      867.088
04/20/2014  07:34:00      -33.104       10.907        2.055       17.369       13.139        8.020      301.686      172.644       64.328        0.088        0.027       34.855        3.923        0.013      336.134        7.230      867.097
04/20/2014  07:35:00      -19.099      -55.371        5.184       27.432       29.790       22.331      752.520      887.460      498.694        0.280        0.107       58.572       14.367        0.060      336.245        7.418      867.097
04/20/2014  07:36:00      -46.912      -38.601        0.591       25.485       18.581       13.804      649.461      345.266      190.548        0.244        0.059       60.751       10.671        0.031      336.092        7.162      867.104
04/20/2014  07:37:00      -23.612      -24.932        2.148       24.335       25.153       16.174      592.207      632.671      261.591        0.133        0.074       34.338       12.559        0.134      336.108        7.188      867.105
04/20/2014  07:38:00      -35.526       -7.770        2.040       17.886       21.327       15.140      319.895      454.829      229.204        0.117        0.050       36.366       14.617        0.162      336.194        7.332      867.111
04/20/2014  07:39:00      -37.429      -28.502        3.873       21.930       19.376       13.124      480.942      375.438      172.243        0.163        0.051       47.046       12.590        0.072      336.256        7.435      867.123
04/20/2014  07:40:00      -57.017      -34.802        1.442       16.465       22.428       15.703      271.112      503.012      246.569        0.274        0.051       66.799       12.293        0.034      336.227        7.388      867.144
04/20/2014  07:41:00      -38.174      -27.827       -1.492       27.706       21.769       16.453      767.613      473.881      270.704        0.187        0.076       47.239        9.529        0.041      336.254        7.432      867.164
04/20/2014  07:42:00      -44.618       -2.389        4.365       19.913       17.063       14.734      396.516      291.161      217.101        0.146        0.045       44.682       10.630        0.057      336.329        7.558      867.185
04/20/2014  07:43:00      -38.896       -5.647        4.267       16.399       14.067       17.417      268.927      197.875      303.346        0.117        0.039       39.303       11.429        0.085      336.301        7.510      867.201
04/20/2014  07:44:00      -51.608       -6.883        9.780       14.334       15.422       13.385      205.475      237.828      179.163        0.171        0.031       52.065        8.190        0.025      336.280        7.475      867.214
04/20/2014  07:45:00      -39.679       -7.274       -5.969       15.412       15.752       11.152      237.543      248.129      124.357        0.114        0.031       40.340        7.816        0.038      336.346        7.587      867.233
04/20/2014  07:46:00      -16.239      -30.872       -8.816       25.122       28.038       22.707      631.129      786.128      515.624        0.161        0.097       34.882       14.752        0.179      336.542        7.915      867.248
04/20/2014  07:47:00       -2.136      -18.998       35.107       23.452       40.854       24.027      550.017     1669.079      577.279        0.220        0.140       19.117       22.881        1.432      336.990        8.663      867.274
04/20/2014  07:48:00       -2.727       -5.227       32.151       25.820       32.432       24.740      666.691     1051.807      612.043        0.170        0.117        5.896       22.036       13.970      337.000        8.680      867.295
04/20/2014  07:49:00      -10.226       30.035       64.591       13.892       29.535       17.451      192.986      872.293      304.549        0.327        0.068       31.728       15.540        0.240      337.085        8.821      867.314
04/20/2014  07:50:00      -19.737       26.187       45.166       18.405       23.115       22.254      338.745      534.290      495.249        0.224        0.068       32.792       16.082        0.241      337.007        8.690      867.320
04/20/2014  07:51:00      -16.732       19.287       40.172       23.146       26.912       22.607      535.744      724.230      511.090        0.202        0.089       25.534       18.257        0.511      337.123        8.885      867.330
04/20/2014  07:52:00      -27.146       13.122       30.606       16.438       20.613       15.688      270.209      424.913      246.129        0.139        0.047       30.151       12.534        0.173      337.110        8.864      867.328
04/20/2014  07:53:00       -0.586       -9.500       30.647       16.491       17.991       21.316      271.942      323.689      454.370        0.104        0.053        9.518        8.125        0.729      337.376        9.308      867.331
04/20/2014  07:54:00      -22.725       -9.615        3.690       14.064       11.094        9.355      197.801      123.082       87.510        0.052        0.020       24.676        3.855        0.024      336.797        8.341      867.324
04/20/2014  07:55:00      -34.224      -24.417       -6.970       17.327       11.347       10.214      300.229      128.757      104.331        0.117        0.027       42.042        7.867        0.035      336.752        8.265      867.326
04/20/2014  07:56:00       -9.917        1.227       16.035       27.774       21.923       18.232      771.407      480.616      332.407        0.097        0.079        9.993       18.789        3.535      337.204        9.021      867.330
04/20/2014  07:57:00       11.197        5.438       24.063       21.739       15.017       15.550      472.595      225.504      241.812        0.084        0.047       12.448       11.486        0.851      337.538        9.580      867.347
04/20/2014  07:58:00       -7.460        8.891       33.932       15.237       32.261       14.769      232.160     1040.778      218.121        0.139        0.075       11.607        9.018        0.604      337.516        9.543      867.357
04/20/2014  07:59:00       44.382       42.235       45.315       34.163       23.386       27.556     1167.093      546.894      759.337        0.414        0.124       61.267       16.794        0.075      337.051        8.765      867.371
04/20/2014  08:00:00       22.778       29.660       39.721       28.396       34.452       22.905      806.314     1186.957      524.653        0.275        0.126       37.397       10.890        0.085      336.942        8.582      867.381
04/20/2014  08:01:00       19.649      -49.525       16.125       21.509       37.456       28.749      462.628     1402.974      826.515        0.289        0.135       53.280       13.263        0.062      337.111        8.864      867.379
04/20/2014  08:02:00        9.679      -36.059       21.824       15.323       34.515       21.379      234.787     1191.268      457.076        0.188        0.094       37.335       11.348        0.092      337.219        9.046      867.390
04/20/2014  08:03:00        8.619        5.314       32.928       22.331       28.535       15.780      498.671      814.235      248.996        0.137        0.078       10.126       10.560        1.088      337.508        9.530      867.395
04/20/2014  08:04:00       84.145       35.349       23.000       53.342       27.190       35.209     2845.319      739.284     1239.664        0.684        0.241       91.269       27.527        0.091      337.187        8.992      867.397
04/20/2014  08:05:00      139.983       89.046       -2.018       38.096       37.718       30.755     1451.288     1422.612      945.885        1.567        0.191      165.905       20.672        0.016      336.799        8.342      867.400
04/20/2014  08:06:00       84.439       85.923       21.533       32.789       40.610       37.717     1075.086     1649.206     1422.605        0.956        0.207      120.469        8.444        0.005      336.995        8.670      867.417
04/20/2014  08:07:00       67.805       67.262       46.282       44.175       28.090       22.962     1951.452      789.041      527.273        0.727        0.163       95.507       14.212        0.022      337.117        8.874      867.423
04/20/2014  08:08:00       11.250       21.935       49.022       36.017       33.331       26.756     1297.245     1110.961      715.879        0.307        0.156       24.652       22.474        0.831      337.503        9.521      867.430
04/20/2014  08:09:00        7.235       29.829       65.024       32.584       38.735       24.835     1061.728     1500.380      616.776        0.417        0.159       30.694       22.856        0.555      337.557        9.611      867.439
04/20/2014  08:10:00       35.376       26.061       55.275       45.892       35.373       25.138     2106.069     1251.235      631.902        0.449        0.199       43.939       25.439        0.335      337.511        9.534      867.442
04/20/2014  08:11:00        5.952       18.930       52.399       32.773       37.564       22.981     1074.041     1411.022      528.133        0.308        0.151       19.844       24.729        1.553      337.473        9.470      867.444
04/20/2014  08:12:00       44.553       29.026       49.074       41.645       40.731       30.438     1734.318     1659.054      926.464        0.478        0.216       53.174       23.612        0.197      337.375        9.306      867.440
04/20/2014  08:13:00       33.235      -21.675       47.325       48.942       79.781       44.824     2395.312     6364.939     2009.221        0.729        0.538       39.678       50.389        1.613      337.541        9.585      867.429
04/20/2014  08:14:00       -4.767       28.696       72.764       21.179       43.724       22.737      448.542     1911.755      516.974        0.451        0.144       29.090       17.943        0.380      337.647        9.761      867.429
04/20/2014  08:15:00       -4.027       39.144       61.933       21.498       32.727       34.653      462.178     1071.048     1200.833        0.406        0.137       39.351       26.402        0.450      337.676        9.812      867.436
04/20/2014  08:16:00       63.123       69.825       72.374       55.168       43.383       46.990     3043.458     1882.101     2208.082        1.061        0.357       94.128       39.696        0.178      337.046        8.757      867.440
04/20/2014  08:17:00       88.322       -7.124       40.739       51.172       48.252       34.671     2618.614     2328.265     1202.103        0.783        0.307       88.608       35.516        0.161      337.036        8.741      867.447
04/20/2014  08:18:00       46.508      -37.226        5.211       56.987       56.189       44.839     3247.562     3157.250     2010.575        0.599        0.421       59.572       44.937        0.569      337.412        9.369      867.441
04/20/2014  08:19:00       19.482        9.034       51.048       33.229       45.747       31.567     1104.185     2092.753      996.473        0.363        0.210       21.475       32.331        2.267      337.738        9.914      867.447
04/20/2014  08:20:00       11.850       28.165       45.983       18.597       39.034       22.963      345.846     1523.624      527.287        0.272        0.120       30.556       26.693        0.763      337.387        9.327      867.445
04/20/2014  08:21:00       48.330       11.911        3.493       29.152       29.470       26.205      849.847      868.457      686.684        0.245        0.120       49.776       18.938        0.145      337.220        9.048      867.430
04/20/2014  08:22:00        1.731       -8.556       19.671       21.700       29.487       17.493      470.884      869.484      306.008        0.105        0.082        8.730       17.162        3.865      337.761        9.954      867.413
04/20/2014  08:23:00       39.686       51.979        5.821       51.526       38.528       24.765     2654.912     1484.412      613.316        0.453        0.238       65.397       26.181        0.160      337.553        9.604      867.405
04/20/2014  08:24:00       42.465       48.303       24.779       33.916       39.741       30.959     1150.327     1579.312      958.435        0.422        0.184       64.315       25.036        0.152      337.459        9.448      867.401
04/20/2014  08:25:00       26.412        9.269       40.986       33.927       26.293       33.777     1151.034      691.324     1140.890        0.272        0.149       27.991       22.866        0.667      337.896       10.181      867.397
04/20/2014  08:26:00       10.303       76.187       82.861       40.824       52.375       30.011     1666.567     2743.188      900.688        0.904        0.266       76.881       26.479        0.119      337.780        9.985      867.399
04/20/2014  08:27:00       57.761       51.521       27.997       43.878       41.010       33.829     1925.250     1681.807     1144.373        0.576        0.238       77.400       22.391        0.084      337.415        9.373      867.409
04/20/2014  08:28:00       54.736       43.185       19.223       37.565       26.896       30.959     1411.147      723.412      958.481        0.416        0.155       69.721       22.446        0.104      337.378        9.311      867.412
04/20/2014  08:29:00       93.237       45.809       14.489       28.361       30.877       27.111      804.352      953.404      734.991        0.675        0.125      103.882       14.849        0.020      337.289        9.164      867.417
04/20/2014  08:30:00       37.152       22.545        8.233       39.496       24.526       22.987     1559.902      601.531      528.419        0.232        0.134       43.457       18.364        0.179      337.460        9.449      867.409
04/20/2014  08:31:00       32.576       37.332       37.436       38.929       35.457       35.657     1515.472     1257.166     1271.448        0.395        0.202       49.547       32.712        0.436      337.658        9.781      867.398
04/20/2014  08:32:00       -3.595      -23.240       29.901       23.543       27.202       24.568      554.271      739.946      603.582        0.167        0.095       23.516       12.984        0.305      338.013       10.376      867.382
04/20/2014  08:33:00        0.913       14.755       35.956       21.341       27.282       19.173      455.438      744.281      367.590        0.154        0.078       14.783       14.306        0.937      338.427       11.072      867.365
04/20/2014  08:34:00      -21.158        6.096        2.147       22.245       12.976       18.850      494.840      168.384      355.336        0.075        0.051       22.018        9.109        0.171      337.928       10.235      867.350
04/20/2014  08:35:00      -35.900       26.530        3.786       27.392       17.645       26.514      750.340      311.338      702.987        0.189        0.088       44.639       17.009        0.145      337.671        9.804      867.329
04/20/2014  08:36:00      -16.133       17.142       12.829       26.402       16.054       18.877      697.047      257.727      356.342        0.101        0.066       23.540        8.739        0.138      337.984       10.328      867.317
04/20/2014  08:37:00       57.861       41.583       16.863       30.932       31.990       24.293      956.812     1023.373      590.149        0.397        0.129       71.254       18.175        0.065      337.774        9.976      867.305
04/20/2014  08:38:00       38.398       40.866       15.076       37.216       24.758       35.198     1384.998      612.947     1238.913        0.330        0.162       56.076       29.664        0.280      338.097       10.519      867.294
04/20/2014  08:39:00       65.016       75.973       47.222       42.852       35.059       37.812     1836.315     1229.125     1429.728        0.836        0.225       99.995       25.642        0.066      337.749        9.934      867.284
04/20/2014  08:40:00       33.743        4.049       25.111       34.199       38.294       26.207     1169.551     1466.397      686.790        0.255        0.166       33.985       19.692        0.336      337.935       10.244      867.285
04/20/2014  08:41:00       11.930       19.663        7.744       20.159       18.859       21.744      406.375      355.657      472.816        0.091        0.062       22.999       10.501        0.208      338.045       10.431      867.278
04/20/2014  08:42:00        3.801       18.018       21.942       16.227       20.663       23.112      263.319      426.949      534.151        0.102        0.061       18.415       10.806        0.344      338.363       10.964      867.286
04/20/2014  08:43:00       28.878       34.268       23.370       29.193       26.865       24.195      852.214      721.709      585.381        0.236        0.108       44.813       15.470        0.119      338.199       10.690      867.287
04/20/2014  08:44:00       15.158       -0.606       27.105       30.183       47.809       22.006      911.007     2285.695      484.267        0.232        0.184       15.170       21.081        1.931      338.368       10.973      867.296
04/20/2014  08:45:00       17.492       31.491       35.749       34.014       42.883       38.879     1156.929     1838.939     1511.538        0.354        0.225       36.023       23.917        0.441      338.342       10.929      867.303
04/20/2014  08:46:00       36.407       39.195       71.034       36.900       36.556       23.296     1361.585     1336.369      542.709        0.557        0.162       53.495       18.873        0.124      338.252       10.778      867.303
04/20/2014  08:47:00       68.368       39.575       59.573       31.273       25.941       45.406      978.014      672.936     2061.745        0.675        0.186       78.996       17.946        0.052      337.906       10.196      867.312
04/20/2014  08:48:00       28.161       42.655      -16.981       19.351       20.714       12.381      374.449      429.066      153.300        0.193        0.048       51.113       10.183        0.040      337.638        9.748      867.321
04/20/2014  08:49:00        9.144       11.044      -26.671       17.412       36.786       12.450      303.166     1353.243      155.000        0.136        0.091       14.338        8.997        0.394      337.706        9.862      867.326
04/20/2014  08:50:00       -9.847       22.751        2.599       19.683       24.961       27.145      387.412      623.043      736.826        0.118        0.087       24.791       17.841        0.518      338.251       10.776      867.323
04/20/2014  08:51:00       24.490       25.227      -20.485       15.305       14.729       14.954      234.248      216.946      223.611        0.117        0.034       35.159        9.459        0.072      337.872       10.140      867.325
04/20/2014  08:52:00      -14.972       20.891       13.292       25.763       21.449       19.823      663.743      460.039      392.934        0.118        0.076       25.702       20.698        0.649      338.462       11.130      867.323
04/20/2014  08:53:00       61.772       49.576       27.194       37.781       24.923       19.961     1427.374      621.142      398.439        0.473        0.122       79.206       15.749        0.040      338.163       10.629      867.326
04/20/2014  08:54:00       33.563       51.698        3.272       33.380       19.285       21.528     1114.215      371.907      463.470        0.288        0.097       61.638       10.497        0.029      338.021       10.388      867.324
04/20/2014  08:55:00       26.093       28.644        5.590       34.425       21.459       30.159     1185.092      460.487      909.566        0.204        0.128       38.747       12.392        0.102      338.250       10.774      867.318
04/20/2014  08:56:00       51.252      -50.106        9.042       36.723       49.337       37.356     1348.584     2434.122     1395.441        0.520        0.259       71.675       31.180        0.189      338.322       10.895      867.323
04/20/2014  08:57:00       36.359      -13.754       40.750       37.617       29.245       26.551     1415.024      855.275      704.964        0.307        0.149       38.873       21.650        0.310      338.503       11.199      867.314
04/20/2014  08:58:00       15.298       15.882       65.496       32.967       44.429       31.301     1086.821     1973.910      979.773        0.441        0.202       22.052       32.006        2.107      338.716       11.557      867.299
04/20/2014  08:59:00       50.696       37.516       32.477       33.691       29.618       29.657     1135.111      877.213      879.535        0.396        0.145       63.068       20.235        0.103      338.388       11.006      867.300
04/20/2014  09:00:00       23.877       27.594       19.375       60.590       28.503       25.203     3671.113      812.434      635.200        0.341        0.256       36.491       17.515        0.230      338.326       10.902      867.291
04/20/2014  09:01:00       66.408        0.213        6.899       33.322       36.658       34.782     1110.353     1343.812     1209.816        0.406        0.183       66.408       26.964        0.165      338.292       10.844      867.280
04/20/2014  09:02:00        6.133       28.574       -4.337       16.376       19.969       14.466      268.161      398.750      209.253        0.087        0.044       29.225       10.955        0.141      338.230       10.741      867.265
04/20/2014  09:03:00       30.926       25.551        9.478       32.382       40.033       25.333     1048.586     1602.630      641.746        0.250        0.165       40.116       19.102        0.227      338.701       11.531      867.249
04/20/2014  09:04:00       19.626       34.423       15.870       37.028       30.199       26.458     1371.044      912.004      700.041        0.240        0.149       39.625       17.783        0.201      338.821       11.734      867.237
04/20/2014  09:05:00        7.265        3.392       28.001       22.645       13.343       13.926      512.804      178.030      193.930        0.087        0.044        8.018       10.233        1.629      339.488       12.855      867.232
04/20/2014  09:06:00       24.905       30.383       17.620       23.605       20.250       21.348      557.179      410.059      455.738        0.164        0.071       39.286       12.588        0.103      338.957       11.962      867.226
04/20/2014  09:07:00       17.265      -45.703       13.085       39.979       67.514       42.340     1598.321     4558.105     1792.705        0.525        0.397       48.856       35.032        0.514      339.064       12.141      867.223
04/20/2014  09:08:00        7.561      -88.582       -1.336       27.958       29.255       27.912      781.626      855.843      779.074        0.516        0.121       88.904       18.845        0.045      338.817       11.727      867.214
04/20/2014  09:09:00        9.730        2.237       59.770       25.770       63.163       36.678      664.067     3989.543     1345.291        0.483        0.300        9.984       41.126       16.967      339.216       12.398      867.201
04/20/2014  09:10:00       15.413       57.244       71.193       35.981       46.804       41.116     1294.625     2190.658     1690.533        0.688        0.259       59.282       35.606        0.361      338.900       11.866      867.190
04/20/2014  09:11:00       36.153       45.810       66.298       44.637       36.154       28.500     1992.459     1307.083      812.261        0.596        0.206       58.357       23.009        0.155      338.876       11.826      867.186
04/20/2014  09:12:00       90.948       70.009       46.417       57.624       46.654       57.742     3320.574     2176.597     3334.190        1.208        0.442      114.773       49.946        0.189      338.519       11.226      867.175
04/20/2014  09:13:00       92.301      105.753       81.877       67.206       42.346       56.748     4516.653     1793.159     3220.358        1.797        0.477      140.368       52.579        0.140      338.556       11.287      867.166
04/20/2014  09:14:00       61.644       82.075      100.896       53.371       51.168       30.592     2848.489     2618.185      935.890        1.356        0.320      102.647       26.799        0.068      338.666       11.473      867.165
04/20/2014  09:15:00       50.224       76.145       90.279       48.518       45.543       38.482     2354.007     2074.198     1480.875        1.119        0.295       91.217       29.744        0.106      338.735       11.588      867.169
04/20/2014  09:16:00      108.605       74.852       51.793       74.668       47.645       55.901     5575.338     2270.059     3124.895        1.552        0.549      131.901       50.230        0.145      338.578       11.324      867.161
04/20/2014  09:17:00      103.227       73.141       36.659       56.367       47.575       47.532     3177.279     2263.352     2259.286        1.252        0.385      126.512       33.627        0.071      338.857       11.793      867.148
04/20/2014  09:18:00       16.287       34.164       42.348       41.519       47.933       50.658     1723.832     2297.568     2566.225        0.491        0.329       37.848       39.448        1.086      339.076       12.162      867.146
04/20/2014  09:19:00       21.352      -39.805       44.103       34.953       74.896       45.249     1221.696     5609.338     2047.438        0.643        0.444       45.170       46.692        1.069      339.108       12.216      867.143
04/20/2014  09:20:00        9.287     -114.007       -1.229       48.133       50.443       40.101     2316.759     2544.461     1608.053        0.978        0.323      114.385       28.290        0.061      339.047       12.113      867.135
04/20/2014  09:21:00       56.653      -95.340      -15.743       39.581       78.934       41.406     1566.636     6230.617     1714.494        1.103        0.476      110.902       44.803        0.163      338.950       11.950      867.134
04/20/2014  09:22:00        6.375       33.300       46.027       23.141       38.155       18.496      535.520     1455.769      342.103        0.280        0.117       33.905       19.903        0.345      339.410       12.726      867.129
04/20/2014  09:23:00        2.212       28.796        7.254       19.597       26.192       22.075      384.033      686.001      487.286        0.122        0.078       28.880       12.565        0.189      339.145       12.278      867.132
04/20/2014  09:24:00      -10.196       25.591       53.276       13.184       28.603       18.381      173.815      818.136      337.867        0.246        0.066       27.548       15.925        0.334      339.841       13.453      867.134
04/20/2014  09:25:00       38.481       46.370       47.920       40.461       35.934       26.131     1637.074     1291.287      682.841        0.477        0.181       60.258       22.341        0.137      339.146       12.280      867.140
04/20/2014  09:26:00       16.449      -44.316       21.431       40.879       44.962       47.044     1671.077     2021.550     2213.171        0.430        0.295       47.270       35.210        0.555      339.376       12.668      867.156
04/20/2014  09:27:00       34.607       98.225      117.106       43.209       44.380       32.288     1867.012     1969.577     1042.547        1.472        0.244      104.143       25.848        0.062      338.970       11.984      867.166
04/20/2014  09:28:00       10.202       41.752       68.426       22.527       38.428       16.649      507.481     1476.712      277.206        0.439        0.113       42.980       20.598        0.230      339.487       12.854      867.182
04/20/2014  09:29:00       54.293       55.861       33.281       42.115       27.693       41.976     1773.706      766.930     1761.966        0.574        0.215       77.898       32.080        0.170      339.279       12.504      867.207
04/20/2014  09:30:00       19.948      -23.701       10.241       38.478       53.284       37.436     1480.580     2839.162     1401.461        0.339        0.286       30.978       19.813        0.409      339.310       12.558      867.215
04/20/2014  09:31:00       28.973       59.256       28.907       33.582       41.278       36.117     1127.754     1703.860     1304.434        0.466        0.207       65.959       17.916        0.074      339.340       12.607      867.226
04/20/2014  09:32:00       56.889       55.100       29.586       37.312       26.443       37.539     1392.185      699.223     1409.200        0.532        0.175       79.198       11.821        0.022      339.433       12.763      867.230
04/20/2014  09:33:00       -1.311       16.429       48.199       19.300       34.022       19.445      372.508     1157.493      378.096        0.225        0.095       16.481       11.760        0.509      339.993       13.709      867.226
04/20/2014  09:34:00       15.378      -60.159        5.387       32.361       43.836       36.302     1047.236     1921.632     1317.799        0.408        0.214       62.093       32.023        0.266      339.401       12.711      867.234
04/20/2014  09:35:00      -29.012      -38.944       14.128       40.222       34.077       33.031     1617.843     1161.275     1091.019        0.321        0.194       48.563       30.669        0.399      339.495       12.868      867.225
04/20/2014  09:36:00      -19.154       19.879       51.385       20.615       38.806       24.879      424.990     1505.937      618.982        0.298        0.127       27.605       24.164        0.766      339.884       13.523      867.222
04/20/2014  09:37:00       48.658       10.946       60.404       65.998       41.937       38.227     4355.780     1758.749     1461.304        0.685        0.379       49.874       34.135        0.468      339.445       12.783      867.235
04/20/2014  09:38:00       28.438        2.859       29.746       27.949       35.065       31.868      781.151     1229.520     1015.561        0.236        0.151       28.581       24.190        0.716      339.353       12.628      867.232
04/20/2014  09:39:00       10.689       23.395       51.587       26.982       59.272       38.052      728.026     3513.193     1447.935        0.450        0.284       25.722       41.511        2.604      339.509       12.892      867.233
04/20/2014  09:40:00       57.462       91.263       79.575       40.615       33.208       30.554     1649.554     1102.776      933.538        1.082        0.184      107.846       22.304        0.043      339.179       12.335      867.231
04/20/2014  09:41:00       72.317      102.032      100.582       90.341       71.490       64.402     8161.522     5110.867     4147.627        2.159        0.871      125.061       63.737        0.260      339.250       12.453      867.224
04/20/2014  09:42:00        2.241       85.087      113.318       34.379       62.727       32.469     1181.902     3934.616     1054.242        1.313        0.309       85.116       35.405        0.173      339.505       12.883      867.229
04/20/2014  09:43:00       20.104       94.068      102.599       46.333       56.146       40.818     2146.757     3152.410     1666.149        1.337        0.348       96.192       32.396        0.113      339.264       12.478      867.257
04/20/2014  09:44:00       49.559       96.247       92.862       52.784       38.626       32.245     2786.175     1491.958     1039.714        1.283        0.266      108.257       27.051        0.062      339.269       12.486      867.274
04/20/2014  09:45:00       71.469       35.962       72.605       27.319       42.084       33.411      746.333     1771.027     1116.318        0.765        0.182       80.007       24.823        0.096      339.096       12.196      867.290
04/20/2014  09:46:00       27.442       23.845        7.087       31.506       37.435       32.518      992.645     1401.346     1057.421        0.241        0.173       36.355       14.034        0.149      339.283       12.512      867.299
04/20/2014  09:47:00       73.211       63.411       15.654       58.401       36.337       36.965     3410.730     1320.352     1366.421        0.786        0.305       96.854       24.438        0.064      339.447       12.789      867.300
04/20/2014  09:48:00       97.180       82.603       71.481       56.250       54.601       60.937     3164.050     2981.260     3713.367        1.562        0.493      127.543       19.907        0.024      339.313       12.560      867.304
04/20/2014  09:49:00       19.896      -13.407       52.133       56.521       73.636       37.210     3194.581     5422.298     1384.619        0.665        0.500       23.992       36.360        2.297      339.876       13.511      867.306
04/20/2014  09:50:00       29.622      -45.567       22.543       42.958       50.252       53.758     1845.384     2525.221     2889.889        0.536        0.363       54.349       20.466        0.142      339.667       13.157      867.323
04/20/2014  09:51:00       27.019       24.095       45.754       23.435       43.153       29.924      549.186     1862.205      895.444        0.335        0.165       36.202       17.213        0.226      339.800       13.383      867.331
04/20/2014  09:52:00       83.138       39.628       47.175       54.193       46.994       42.089     2936.898     2208.458     1771.476        0.881        0.346       92.100       31.068        0.114      339.379       12.671      867.339
04/20/2014  09:53:00       43.644       32.067       58.432       85.704       82.425       46.371     7345.214     6793.908     2150.282        1.132        0.814       54.158       42.727        0.622      339.781       13.350      867.328
04/20/2014  09:54:00       23.111      -79.745       18.825       54.649       69.698       54.423     2986.467     4857.870     2961.871        0.902        0.540       83.027       40.982        0.244      339.950       13.635      867.342
04/20/2014  09:55:00       69.217       97.073       54.809       60.863       48.340       50.431     3704.297     2336.714     2543.330        1.290        0.429      119.223       38.283        0.103      339.628       13.091      867.366
04/20/2014  09:56:00       -9.699       13.886       15.319       25.763       34.064       24.035      663.740     1160.344      577.665        0.146        0.120       16.938       18.002        1.130      340.018       13.751      867.390
04/20/2014  09:57:00       -8.116      -28.031       25.221       27.912       41.867       27.211      779.053     1752.874      740.412        0.238        0.164       29.182       10.981        0.142      340.405       14.403      867.403
04/20/2014  09:58:00       97.348       55.243       37.873       67.524       51.137       45.849     4559.536     2614.966     2102.135        1.162        0.464      111.930       29.271        0.068      339.923       13.589      867.419
04/20/2014  09:59:00       67.700      101.978       98.957      101.917       65.577       60.010    10387.132     4300.406     3601.165        2.153        0.914      122.404       57.582        0.221      339.831       13.434      867.430
04/20/2014  10:00:00       23.441      -49.142       21.285       43.079       48.701       41.923     1855.818     2371.748     1757.526        0.470        0.299       54.447       23.986        0.194      339.870       13.499      867.452
04/20/2014  10:01:00       19.057       55.342       23.127       33.982       45.584       38.687     1154.787     2077.916     1496.671        0.434        0.236       58.531       15.861        0.073      339.951       13.637      867.462
04/20/2014  10:02:00      -16.093       78.736       10.281       28.172       44.128       31.633      793.655     1947.264     1000.670        0.515        0.187       80.364       27.948        0.121      340.038       13.783      867.458
04/20/2014  10:03:00       -6.256       38.541       23.468       45.196       39.458       31.319     2042.682     1556.931      980.872        0.333        0.229       39.046       30.294        0.602      340.698       14.899      867.461
04/20/2014  10:04:00       22.209       79.613       90.704       55.743       71.330       58.446     3107.332     5087.985     3415.987        1.333        0.581       82.653       50.664        0.376      340.366       14.338      867.457
04/20/2014  10:05:00      119.094      102.586       70.924       53.986       41.911       42.434     2914.445     1756.544     1800.681        1.810        0.324      157.185       32.537        0.043      339.371       12.658      867.458
04/20/2014  10:06:00       56.691       63.094       12.034       31.047       35.401       30.665      963.929     1253.218      940.321        0.525        0.158       84.822       18.906        0.050      339.387       12.685      867.430
04/20/2014  10:07:00       79.540       62.464       42.449       54.619       47.550       52.531     2983.230     2260.985     2759.486        1.002        0.400      101.135       44.117        0.190      339.593       13.032      867.405
04/20/2014  10:08:00       92.953       72.671       68.576      102.504       79.008       54.861    10507.149     6242.332     3009.782        1.919        0.988      117.989       47.477        0.162      339.717       13.241      867.379
04/20/2014  10:09:00       98.981      -52.694       31.109       96.836      132.736       69.973     9377.297    17618.776     4896.211        2.271        1.595      112.133       89.867        0.642      340.307       14.236      867.350
04/20/2014  10:10:00       36.877       97.224      108.972       66.248       53.784       41.366     4388.822     2892.702     1711.150        1.584        0.450      103.983       38.851        0.140      340.166       13.999      867.348
04/20/2014  10:11:00       28.668        1.778       72.421       85.217       95.432       54.884     7261.855     9107.294     3012.270        1.272        0.969       28.723       56.203        3.829      340.417       14.422      867.336
04/20/2014  10:12:00        2.588      107.908      125.421       60.513       71.058       44.940     3661.841     5049.258     2019.612        1.905        0.537      107.939       48.623        0.203      340.383       14.365      867.332
04/20/2014  10:13:00       19.934      108.198      117.356       67.949       61.019       45.352     4617.027     3723.351     2056.797        1.813        0.520      110.019       38.655        0.123      340.367       14.339      867.330
04/20/2014  10:14:00      190.949      110.698       62.164      117.328       59.966       59.551    13765.808     3595.933     3546.276        3.674        1.045      220.716       61.398        0.077      340.120       13.918      867.328
04/20/2014  10:15:00       98.227      122.896      107.903       76.614       86.110       85.707     5869.704     7414.917     7345.663        2.851        1.032      157.328       58.367        0.138      340.290       14.206      867.321
04/20/2014  10:16:00      126.832      150.338       60.333       92.782       58.007       78.621     8608.451     3364.770     6181.320        3.024        0.908      196.692       58.003        0.087      339.782       13.348      867.322
04/20/2014  10:17:00       86.477      110.363       -3.726       90.231       59.962       58.411     8141.705     3595.497     3411.844        1.741        0.757      140.207       39.476        0.079      339.821       13.415      867.341
04/20/2014  10:18:00       38.343      156.462      -17.438       75.484       94.448       45.074     5697.765     8920.354     2031.666        2.145        0.832      161.091       48.387        0.090      339.777       13.342      867.313
04/20/2014  10:19:00      -42.167      138.155       -7.091       35.347       69.373       31.496     1249.385     4812.557      991.989        1.398        0.353      144.447       34.301        0.056      340.203       14.063      867.293
04/20/2014  10:20:00       30.215       38.344       25.617       54.747       42.298       33.576     2997.230     1789.113     1127.381        0.448        0.296       48.818       22.804        0.218      340.679       14.866      867.258
04/20/2014  10:21:00      163.296       63.400       90.095      124.155       93.049       86.295    15414.583     8658.067     7446.776        3.515        1.576      175.172       64.844        0.137      340.044       13.790      867.238
04/20/2014  10:22:00      144.832      133.000       90.797      111.013       81.022       74.840    12323.829     6564.499     5600.989        3.569        1.224      196.635       63.184        0.103      340.289       14.204      867.212
04/20/2014  10:23:00      153.374      111.856       99.173      141.587       85.813       99.566    20046.844     7363.888     9913.440        4.159        1.866      189.830       82.941        0.191      340.170       14.002      867.224
04/20/2014  10:24:00      127.062       70.024       43.992      105.541      106.759       76.034    11138.908    11397.407     5781.094        2.564        1.416      145.080       70.018        0.233      339.680       13.177      867.234
04/20/2014  10:25:00       19.458      108.215       -4.877       74.055       56.709       34.160     5484.187     3215.915     1166.934        1.099        0.493      109.950       36.420        0.110      340.015       13.745      867.224
04/20/2014  10:26:00       72.926       54.023       11.590       56.462       49.399       37.693     3187.963     2440.215     1420.754        0.771        0.352       90.756       25.867        0.081      340.216       14.082      867.224
04/20/2014  10:27:00       41.435       77.396       12.472       67.086       57.533       43.880     4500.514     3310.051     1925.491        0.880        0.487       87.790       32.745        0.139      340.628       14.779      867.236
04/20/2014  10:28:00      148.141      104.803       27.607       72.395       58.291       46.171     5240.997     3397.896     2131.803        2.223        0.539      181.465       28.094        0.024      340.193       14.042      867.235
04/20/2014  10:29:00       25.230      -28.493       42.027       39.922       46.054       28.032     1593.741     2120.959      785.797        0.386        0.225       38.058       23.782        0.390      340.544       14.638      867.233
04/20/2014  10:30:00       36.761        6.071       55.250       80.198      101.114       70.932     6431.674    10224.001     5031.324        1.306        1.084       37.259       74.407        3.988      340.641       14.801      867.217
04/20/2014  10:31:00      121.343       92.572       25.492       63.654       53.796       48.841     4051.793     2894.041     2385.444        1.664        0.467      152.623       17.318        0.013      340.375       14.351      867.221
04/20/2014  10:32:00       12.006      128.924      -11.831       70.788       53.895       34.864     5011.008     2904.666     1215.471        1.302        0.457      129.481       28.758        0.049      340.185       14.032      867.210
04/20/2014  10:33:00       23.840       32.714       20.050       44.103       27.995       26.250     1945.064      783.708      689.048        0.273        0.171       40.479       15.902        0.154      340.911       15.260      867.195
04/20/2014  10:34:00       67.333       46.204       27.577       39.998       29.182       30.298     1599.817      851.614      917.974        0.540        0.168       81.662       18.033        0.049      340.591       14.719      867.193
04/20/2014  10:35:00       76.490       83.109        3.257       52.689       42.020       43.452     2776.088     1765.706     1888.037        0.960        0.321      112.951       22.122        0.038      340.511       14.582      867.172
04/20/2014  10:36:00      120.094      103.757      111.933       94.425       83.980       73.182     8916.174     7052.603     5355.546        2.952        1.066      158.708       59.914        0.143      340.529       14.610      867.156
04/20/2014  10:37:00       82.006       46.871       29.840       59.257       55.398       44.232     3511.426     3068.954     1956.483        0.917        0.427       94.456       28.494        0.091      340.209       14.071      867.149
04/20/2014  10:38:00      190.354      120.480       38.163       99.901       85.504       60.532     9980.110     7310.997     3664.081        3.658        1.048      225.278       50.570        0.050      340.499       14.559      867.140
04/20/2014  10:39:00      156.333      134.776       28.310       82.018       80.817       43.527     6726.934     6531.328     1894.590        2.928        0.758      206.409       39.721        0.037      340.313       14.246      867.143
04/20/2014  10:40:00      110.665       33.182       17.998       99.550       62.093       49.484     9910.209     3855.593     2448.673        1.494        0.811      115.533       33.710        0.085      340.403       14.399      867.155
04/20/2014  10:41:00      112.499        5.821       27.711       91.656       83.713       52.769     8400.831     7007.885     2784.545        1.582        0.910      112.650       52.388        0.216      340.078       13.850      867.150
04/20/2014  10:42:00       81.089       49.929       26.160       79.275       49.311       41.904     6284.533     2431.534     1755.924        1.011        0.524       95.228       29.292        0.095      340.527       14.609      867.161
04/20/2014  10:43:00       98.363       43.532        9.375       80.827       52.639       45.798     6533.057     2770.895     2097.444        1.153        0.570      107.565       15.632        0.021      340.130       13.938      867.166
04/20/2014  10:44:00      -55.200       43.596        5.066       41.164       27.787       33.800     1694.515      772.135     1142.407        0.429        0.180       70.340       26.255        0.139      340.635       14.791      867.145
04/20/2014  10:45:00      -21.387       70.428       18.567       44.775       64.081       34.489     2004.792     4106.362     1189.478        0.653        0.365       73.604       32.909        0.200      341.092       15.565      867.145
04/20/2014  10:46:00       -0.847       69.957       17.475       35.956       45.123       28.006     1292.832     2036.066      784.344        0.466        0.206       69.962       26.772        0.146      341.010       15.426      867.139
04/20/2014  10:47:00       24.746      138.708       -6.404       60.264      101.236       44.833     3631.742    10248.795     2010.005        1.789        0.795      140.898       53.668        0.145      340.669       14.848      867.135
04/20/2014  10:48:00       51.160       60.708       28.271       80.759       68.385       53.238     6522.027     4676.549     2834.242        1.056        0.702       79.390       33.214        0.175      340.776       15.030      867.118
04/20/2014  10:49:00       88.597       80.924       21.104       68.739       52.280       52.899     4725.064     2733.183     2798.307        1.255        0.513      119.992       26.277        0.048      340.840       15.136      867.123
04/20/2014  10:50:00       71.029       75.836       44.900       70.191       50.006       40.190     4926.785     2500.600     1615.270        1.093        0.452      103.905       37.762        0.132      340.861       15.172      867.124
04/20/2014  10:51:00        4.608       66.087       98.099       59.022       74.716       64.170     3483.559     5582.457     4117.766        1.360        0.659       66.247       56.791        0.735      341.176       15.707      867.131
04/20/2014  10:52:00       27.771       46.564      101.929       47.661      131.371       76.271     2271.523    17258.415     5817.242        1.933        1.267       54.217       94.205        3.019      340.653       14.822      867.146
04/20/2014  10:53:00       60.244      -78.423       25.834       45.496       67.033       46.075     2069.855     4493.441     2122.900        0.956        0.434       98.891       44.342        0.201      340.632       14.786      867.150
04/20/2014  10:54:00       23.567      -56.825       26.219       39.057       46.160       31.601     1525.442     2130.738      998.648        0.456        0.233       61.518       22.189        0.130      340.970       15.358      867.150
04/20/2014  10:55:00       92.074     -130.858      -16.680       41.057       60.853       38.361     1685.674     3703.028     1471.601        1.637        0.343      160.004       22.878        0.020      340.379       14.359      867.161
04/20/2014  10:56:00       17.659      -33.906       10.464       24.301       23.427       28.257      590.530      548.836      798.458        0.175        0.097       38.229       18.145        0.225      340.359       14.327      867.166
04/20/2014  10:57:00       27.072       39.685       14.795       31.605       38.942       29.596      998.894     1516.487      875.928        0.296        0.170       48.040       29.850        0.386      340.716       14.929      867.146
04/20/2014  10:58:00      -33.619       20.504      -14.963       32.563       35.229       19.164     1060.338     1241.093      367.264        0.222        0.133       39.378       16.721        0.180      340.459       14.494      867.120
04/20/2014  10:59:00       41.604       31.727        9.145       37.685       35.080       23.187     1420.128     1230.640      537.616        0.300        0.159       52.321       18.768        0.129      340.781       15.039      867.106
04/20/2014  11:00:00       -5.986       -9.877       -2.979       60.556       59.493       24.657     3667.010     3539.362      607.945        0.398        0.391       11.549       12.683        1.206      340.854       15.161      867.086
04/20/2014  11:01:00      -47.223      -56.672       33.431       43.278       56.029       39.285     1872.960     3139.280     1543.279        0.656        0.328       73.768       23.728        0.103      341.134       15.635      867.073
04/20/2014  11:02:00      -18.144      -69.559       19.066       54.503       65.131       43.251     2970.608     4241.983     1870.658        0.731        0.454       71.886       33.335        0.215      341.148       15.659      867.046
04/20/2014  11:03:00      -46.662     -137.739      -25.011       78.956       72.753       50.074     6233.974     5292.966     2507.357        1.790        0.702      145.429       38.159        0.069      340.898       15.237      867.037
04/20/2014  11:04:00      -19.999      -42.238       15.730       54.206       54.045       30.526     2938.256     2920.888      931.830        0.461        0.340       46.733       26.225        0.315      341.224       15.790      867.031
04/20/2014  11:05:00      -32.512     -108.350      -19.187       51.437       44.744       25.942     2645.766     2002.034      673.012        0.924        0.266      113.122       24.177        0.046      340.517       14.592      867.039
04/20/2014  11:06:00       -0.256       34.226       22.361       40.236       42.125       41.288     1618.914     1774.484     1704.703        0.338        0.255       34.227       32.299        0.891      341.371       16.038      867.041
04/20/2014  11:07:00      155.614      120.616       25.586       79.617       48.733       48.795     6338.910     2374.923     2380.994        2.525        0.555      196.885       42.710        0.047      340.707       14.911      867.040
04/20/2014  11:08:00      201.521      101.187       22.697       67.597       62.347       50.408     4569.312     3887.176     2540.988        3.118        0.550      225.498       34.175        0.023      340.636       14.791      867.015
04/20/2014  11:09:00      149.860      119.372        7.749       79.786       62.452       53.926     6365.755     3900.243     2908.018        2.497        0.659      191.592       42.261        0.049      340.833       15.124      867.003
04/20/2014  11:10:00       31.377       92.433       15.287       69.918       62.415       45.237     4888.593     3895.676     2046.343        1.029        0.542       97.614       34.398        0.124      340.844       15.146      866.977
04/20/2014  11:11:00      104.753       85.575       10.969       79.060       54.867       38.048     6250.546     3010.408     1447.643        1.456        0.535      135.264       22.751        0.028      341.062       15.515      866.951
04/20/2014  11:12:00      212.049      137.234       -6.697       53.408       44.680       42.564     2852.361     1996.310     1811.660        3.525        0.333      252.583       15.591        0.004      340.467       14.504      866.929
04/20/2014  11:13:00      152.179       89.294        2.957       74.930       52.879       35.567     5614.471     2796.177     1265.037        2.041        0.484      176.442       29.145        0.027      340.614       14.753      866.924
04/20/2014  11:14:00        1.298       54.056       -4.248       30.758       49.436       27.366      946.057     2443.883      748.885        0.354        0.207       54.072       26.047        0.232      340.936       15.301      866.899
04/20/2014  11:15:00       19.290      -45.393       21.405       32.870       56.131       24.993     1080.426     3150.644      624.630        0.387        0.243       49.322       17.040        0.119      341.722       16.633      866.884
04/20/2014  11:16:00       23.973       -6.429       36.547       52.662       57.421       37.391     2773.310     3297.141     1398.053        0.471        0.373       24.820       24.152        0.947      341.532       16.310      866.895
04/20/2014  11:17:00       38.552      -64.243       34.424       44.461       87.758       45.115     1976.797     7701.459     2035.348        0.925        0.586       74.923       41.031        0.300      341.467       16.201      866.891
04/20/2014  11:18:00      115.195       88.338       49.588       48.611       46.533       57.750     2363.015     2165.281     3335.078        1.570        0.393      145.167       33.748        0.054      340.690       14.884      866.904
04/20/2014  11:19:00       70.206       64.347       12.626       52.981       38.403       34.134     2806.986     1474.759     1165.119        0.734        0.272       95.234       18.357        0.037      340.768       15.018      866.911
04/20/2014  11:20:00       10.371       40.351       27.904       28.937       31.095       27.400      837.352      966.902      750.780        0.253        0.128       41.662       20.781        0.249      341.334       15.975      866.904
04/20/2014  11:21:00       46.880       41.054       16.883       24.817       23.343       25.640      615.860      544.907      657.413        0.299        0.091       62.315       12.647        0.041      341.250       15.834      866.892
04/20/2014  11:22:00       43.324       -5.132       40.899       52.255       60.764       43.322     2730.553     3692.285     1876.763        0.594        0.415       43.627       24.328        0.311      341.734       16.653      866.882
04/20/2014  11:23:00      165.521      -35.231       35.826       80.718       98.486       65.324     6515.368     9699.572     4267.240        2.520        1.024      169.229       64.119        0.144      340.733       14.955      866.864
04/20/2014  11:24:00       45.948       47.776       65.055       75.415       65.874       32.161     5687.473     4339.354     1034.343        0.984        0.553       66.285       22.165        0.112      341.200       15.748      866.844
04/20/2014  11:25:00       92.060       35.861       36.349       90.394       68.237       44.534     8171.008     4656.338     1983.320        1.294        0.741       98.798       28.713        0.084      341.083       15.548      866.834
04/20/2014  11:26:00       95.933     -161.595      -22.307      120.029       85.344       56.535    14406.904     7283.535     3196.206        3.035        1.244      187.925       62.284        0.110      341.173       15.700      866.824
04/20/2014  11:27:00        3.361      -75.088        1.177       51.499       45.038       34.680     2652.122     2028.385     1202.697        0.577        0.294       75.164       32.510        0.187      340.737       14.965      866.843
04/20/2014  11:28:00       11.183        0.721       61.500       40.826       65.934       38.748     1666.757     4347.353     1501.436        0.571        0.376       11.206       29.172        6.777      341.665       16.536      866.822
04/20/2014  11:29:00      -89.030      -10.809        7.644       94.019       34.689       33.494     8839.566     1203.345     1121.859        0.963        0.558       89.683       41.291        0.212      341.218       15.779      866.828
04/20/2014  11:30:00      -36.056        5.808       19.483       33.367       37.916       26.845     1113.369     1437.619      720.670        0.249        0.164       36.521       15.686        0.184      341.407       16.100      866.820
04/20/2014  11:31:00      -44.110      -40.370       24.333       55.937       70.469       38.147     3128.949     4965.933     1455.201        0.686        0.478       59.794       20.184        0.114      341.585       16.400      866.830
04/20/2014  11:32:00      -42.710       -7.632       -0.835       39.004       60.673       30.901     1521.312     3681.267      954.891        0.402        0.308       43.387       29.182        0.452      341.134       15.635      866.834
04/20/2014  11:33:00      -12.955       81.241       -2.236       52.685       45.495       42.349     2775.753     2069.797     1793.449        0.670        0.332       82.267       31.242        0.144      341.216       15.775      866.854
04/20/2014  11:34:00       61.861       71.412       10.895       34.997       28.633       35.950     1224.816      819.853     1292.388        0.619        0.167       94.480       17.952        0.036      341.480       16.222      866.849
04/20/2014  11:35:00       62.900       25.683       11.269       59.766       47.807       39.023     3572.016     2285.531     1522.786        0.606        0.369       67.941       30.757        0.205      341.308       15.931      866.848
04/20/2014  11:36:00      144.984      111.118       37.015       80.458       62.613       62.594     6473.555     3920.355     3918.056        2.452        0.716      182.668       53.110        0.085      341.400       16.084      866.835
04/20/2014  11:37:00      180.578      106.580       34.434       59.610       56.505       49.600     3553.369     3192.772     2460.176        2.718        0.460      209.685       21.519        0.011      341.270       15.863      866.812
04/20/2014  11:38:00      111.605       55.509       25.137       52.180       39.890       37.496     2722.753     1591.211     1405.981        1.094        0.286      124.647       17.220        0.019      341.323       15.956      866.818
04/20/2014  11:39:00       36.068       34.302       54.181       52.689       52.543       46.378     2776.113     2760.796     2150.925        0.655        0.384       49.775       26.469        0.283      341.834       16.822      866.801
04/20/2014  11:40:00       27.672      116.582       19.354       55.774       59.760       45.481     3110.772     3571.299     2068.520        1.174        0.438      119.822       39.095        0.106      341.491       16.241      866.806
04/20/2014  11:41:00       29.719       29.768       13.778       45.306       59.034       32.148     2052.652     3485.027     1033.474        0.426        0.329       42.064       31.752        0.570      341.697       16.592      866.798
04/20/2014  11:42:00       31.276       47.762       -8.419       34.026       39.979       22.650     1157.796     1598.326      513.042        0.330        0.163       57.091       13.114        0.053      340.990       15.393      866.796
04/20/2014  11:43:00       37.025      -47.849       12.827       59.215       84.053       45.310     3506.440     7064.834     2052.986        0.822        0.631       60.501       51.998        0.739      341.370       16.037      866.778
04/20/2014  11:44:00       11.797        5.506       47.118       56.586       71.008       45.863     3202.002     5042.148     2103.395        0.637        0.517       13.019       43.050       10.935      341.870       16.884      866.751
04/20/2014  11:45:00      138.773       71.526       31.146       90.952       64.183       45.982     8272.348     4119.412     2114.345        1.992        0.725      156.122       32.448        0.043      341.288       15.895      866.722
04/20/2014  11:46:00      156.657      108.903        5.408       76.194       43.512       55.713     5805.592     1893.307     3103.943        2.361        0.540      190.791       28.054        0.022      341.385       16.058      866.694
04/20/2014  11:47:00       61.414       44.475       32.350       64.685       35.573       42.821     4184.161     1265.420     1833.611        0.704        0.364       75.827       33.895        0.200      341.466       16.199      866.678
04/20/2014  11:48:00       44.161       33.466       33.981       43.771       62.843       39.768     1915.859     3949.235     1581.499        0.583        0.372       55.409       25.192        0.207      341.400       16.086      866.671
04/20/2014  11:49:00       43.309       49.137       64.983       57.618       67.633       46.498     3319.825     4574.255     2162.057        0.928        0.503       65.499       47.211        0.520      341.664       16.533      866.655
04/20/2014  11:50:00       47.568      -96.557       49.040      105.132      121.798       75.450    11052.776    14834.809     5692.665        2.278        1.579      107.638       77.392        0.517      341.848       16.846      866.628
04/20/2014  11:51:00        6.269      -27.890       44.273       43.388       56.826       37.542     1882.544     3229.209     1409.399        0.465        0.326       28.586       17.652        0.381      341.784       16.738      866.623
04/20/2014  11:52:00       63.521     -123.337        8.622       94.443      105.256       44.837     8919.460    11078.929     2010.386        2.066        1.100      138.734       43.772        0.100      341.697       16.588      866.617
04/20/2014  11:53:00       82.394      -92.561        9.581       71.190       63.808       59.829     5068.048     4071.448     3579.507        1.408        0.636      123.921       54.320        0.192      341.427       16.131      866.637
04/20/2014  11:54:00       37.773      -37.721       -4.596       42.532       31.361       25.406     1808.958      983.541      645.465        0.315        0.172       53.382       22.346        0.175      341.084       15.551      866.633
04/20/2014  11:55:00        0.660       62.026        2.919       70.663       29.763       30.163     4993.251      885.858      909.836        0.532        0.339       62.030       29.140        0.221      341.163       15.684      866.617
04/20/2014  11:56:00       19.936       44.528       26.451       56.937       25.536       33.879     3241.843      652.106     1147.775        0.406        0.252       48.788       31.076        0.406      341.885       16.909      866.592
04/20/2014  11:57:00       48.530       69.163       64.247       44.948       42.594       38.297     2020.301     1814.229     1466.670        0.828        0.265       84.491        9.809        0.013      341.579       16.390      866.606
04/20/2014  11:58:00       92.550       77.680       36.501       55.944       49.572       38.966     3129.684     2457.370     1518.350        1.152        0.355      120.829       26.984        0.050      341.005       15.416      866.569
04/20/2014  11:59:00       89.110       86.266       71.174       85.308       88.084       71.776     7277.381     7758.742     5151.784        2.031        1.009      124.026       61.047        0.242      341.488       16.235      866.553
04/20/2014  12:00:00       93.765       80.434        9.804       67.385       59.159       42.390     4540.727     3499.771     1796.894        1.260        0.492      123.537       32.934        0.071      341.370       16.035      866.556
04/20/2014  12:01:00       28.368       27.876        8.786       46.577       49.674       39.822     2169.377     2467.509     1585.794        0.394        0.311       39.772       31.126        0.612      341.755       16.690      866.551
04/20/2014  12:02:00       45.100        2.235       36.819       39.690       74.941       39.717     1575.276     5616.188     1577.465        0.608        0.438       45.155       42.057        0.867      341.889       16.916      866.550
04/20/2014  12:03:00       34.747      -79.458        4.214       38.454       43.894       36.512     1478.734     1926.697     1333.125        0.614        0.237       86.724       26.422        0.093      341.476       16.216      866.535
04/20/2014  12:04:00       65.626      -66.147       24.993       68.444       82.564       54.550     4684.524     6816.841     2975.676        1.189        0.724       93.179       57.111        0.376      341.716       16.623      866.516
04/20/2014  12:05:00       74.616      -35.851       36.083       58.320       61.340       61.907     3401.273     3762.546     3832.463        0.957        0.550       82.782       50.158        0.367      341.977       17.066      866.502
04/20/2014  12:06:00       58.249      -32.557       28.382       61.771       62.520       53.196     3815.605     3908.771     2829.814        0.790        0.528       66.730       53.391        0.640      341.627       16.472      866.495
04/20/2014  12:07:00       39.063      -26.973        7.688       44.800       54.735       28.379     2007.044     2995.940      805.372        0.406        0.290       47.471       21.266        0.201      341.714       16.619      866.486
04/20/2014  12:08:00       38.377       66.170       32.535       38.150       27.871       32.477     1455.410      776.820     1054.783        0.510        0.164       76.494       16.309        0.045      341.371       16.037      866.457
04/20/2014  12:09:00       34.697       49.233       22.369       40.440       32.987       34.589     1635.426     1088.129     1196.406        0.402        0.196       60.231       27.132        0.203      341.754       16.687      866.444
04/20/2014  12:10:00       73.889       69.621       19.594       37.479       39.909       41.510     1404.701     1592.762     1723.115        0.770        0.236      101.521       23.498        0.054      341.710       16.612      866.432
04/20/2014  12:11:00       36.727      102.274        2.496       63.591       56.222       32.198     4043.877     3160.929     1036.736        1.003        0.412      108.668       30.219        0.077      341.451       16.172      866.413
04/20/2014  12:12:00      -41.397      116.563       -0.741       45.451       66.534       31.178     2065.787     4426.803      972.071        1.138        0.373      123.695       35.749        0.084      341.951       17.023      866.420
04/20/2014  12:13:00      -84.747      101.725        5.531       61.203       56.392       50.365     3745.867     3180.007     2536.626        1.351        0.473      132.401       48.718        0.135      342.193       17.433      866.399
04/20/2014  12:14:00     -102.439       74.963       -9.081       76.152       59.437       35.830     5799.127     3532.802     1283.812        1.340        0.531      126.938       37.128        0.086      341.632       16.480      866.382
04/20/2014  12:15:00       25.003       24.690        4.058       30.779       23.671       32.486      947.344      560.307     1055.315        0.191        0.128       35.139       24.268        0.477      342.111       17.294      866.378
04/20/2014  12:16:00       14.535       21.986       22.822       21.199       30.190       18.895      449.398      911.421      357.018        0.147        0.086       26.356       17.553        0.444      342.505       17.961      866.344
04/20/2014  12:17:00       31.586       16.442       36.417       43.689       28.722       23.930     1908.711      824.934      572.650        0.295        0.165       35.609       20.522        0.332      342.572       18.077      866.329
04/20/2014  12:18:00       16.703       -2.399       18.495       23.177       34.627       33.176      537.195     1199.057     1100.618        0.173        0.142       16.875       14.113        0.699      342.636       18.184      866.298
04/20/2014  12:19:00        7.133      -36.072       10.515       27.525       28.016       25.377      757.614      784.890      644.013        0.182        0.109       36.771       22.587        0.377      342.376       17.742      866.262
04/20/2014  12:20:00      -39.734      -22.549       24.596       38.877       31.503       23.588     1511.403      992.453      556.380        0.288        0.153       45.686       23.721        0.270      342.292       17.601      866.242
04/20/2014  12:21:00      -27.085      -18.345        7.461       42.006       18.557       23.408     1764.483      344.378      547.934        0.189        0.133       32.713       20.848        0.406      342.054       17.196      866.211
04/20/2014  12:22:00       13.796        6.206       26.608       33.998       26.953       24.370     1155.841      726.460      593.896        0.171        0.124       15.128       11.991        0.628      342.448       17.865      866.187
04/20/2014  12:23:00       69.901       45.196       26.052       44.631       31.033       40.255     1991.955      963.017     1620.430        0.609        0.229       83.239       28.506        0.117      342.102       17.278      866.147
04/20/2014  12:24:00       90.239       62.969       31.761       61.948       52.741       44.089     3837.569     2781.649     1943.848        1.084        0.428      110.037       25.790        0.055      341.985       17.079      866.120
04/20/2014  12:25:00      104.964       75.792       18.523       72.923       47.970       41.417     5317.730     2301.098     1715.346        1.322        0.467      129.468       18.316        0.020      342.063       17.210      866.106
04/20/2014  12:26:00       82.629       39.290       31.309       73.025       72.794       42.078     5332.706     5298.940     1770.597        1.087        0.620       91.494       29.825        0.106      341.862       16.869      866.088
04/20/2014  12:27:00       12.765      -21.795       14.628       39.290       27.951       24.788     1543.731      781.257      614.461        0.190        0.147       25.258       15.638        0.383      341.948       17.018      866.066
04/20/2014  12:28:00       45.303       71.183       85.686       59.093       66.346       50.781     3491.949     4401.845     2578.660        1.246        0.524       84.376       48.631        0.332      342.045       17.179      866.056
04/20/2014  12:29:00       93.775      109.971      103.199       74.584       65.884       67.830     5562.740     4340.725     4600.967        2.302        0.725      144.524       56.121        0.151      341.577       16.384      866.054
04/20/2014  12:30:00       52.690       39.140       64.579       57.147      101.034       73.336     3265.798    10207.953     5378.143        1.366        0.943       65.636       77.449        1.392      341.903       16.938      866.045
04/20/2014  12:31:00       95.706      111.021       82.801       78.290       84.857       53.773     6129.274     7200.753     2891.484        2.228        0.811      146.579       36.579        0.062      341.927       16.978      866.022
04/20/2014  12:32:00      118.691      143.510      112.770       90.790       61.460       61.763     8242.778     3777.340     3814.641        3.161        0.792      186.232       48.721        0.068      342.092       17.257      866.013
04/20/2014  12:33:00       92.554       66.057       64.833       74.728       89.851       58.959     5584.222     8073.214     3476.180        1.713        0.857      113.709       50.911        0.200      342.205       17.453      866.024
04/20/2014  12:34:00       63.834       19.539       32.581       71.657       60.410       46.762     5134.790     3649.339     2186.680        0.824        0.549       66.757       44.877        0.452      342.513       17.975      866.013
04/20/2014  12:35:00        8.331      -67.196        9.568       56.642       86.580       42.744     3208.322     7496.046     1827.090        0.860        0.627       67.710       42.906        0.402      342.635       18.181      866.017
04/20/2014  12:36:00       62.235       15.343       53.162      109.463       73.507       51.168    11982.105     5403.285     2618.129        1.347        1.000       64.098       47.083        0.540      342.619       18.155      866.002
04/20/2014  12:37:00       27.814      -32.371       41.856       46.884       91.497       48.569     2198.101     8371.711     2358.943        0.825        0.646       42.679       52.188        1.495      342.667       18.237      866.014
04/20/2014  12:38:00       48.069      -51.472       19.491       47.935       56.382       42.728     2297.781     3178.929     1825.645        0.632        0.365       70.427       32.401        0.212      342.243       17.517      866.010
04/20/2014  12:39:00       37.270      -65.625       11.847       35.350       70.172       33.428     1249.619     4924.121     1117.434        0.656        0.365       75.469       41.328        0.300      342.257       17.541      866.007
04/20/2014  12:40:00        1.292      -25.503       16.808       51.178       75.884       44.762     2619.193     5758.443     2003.598        0.566        0.519       25.536       53.267        4.351      342.745       18.370      866.001
04/20/2014  12:41:00      -59.514       55.676       14.457       77.977       58.822       52.439     6080.426     3460.021     2749.819        0.957        0.615       81.497       46.238        0.322      342.646       18.201      865.984
04/20/2014  12:42:00        2.445       36.727       14.094       29.996       54.771       35.501      899.732     2999.908     1260.309        0.336        0.258       36.809       24.404        0.440      342.701       18.296      865.994
04/20/2014  12:43:00      -74.947       46.418        7.597       57.683       37.724       32.725     3327.366     1423.090     1070.954        0.682        0.291       88.157       33.252        0.142      342.717       18.322      865.986
04/20/2014  12:44:00      -87.654       34.264        3.237       73.523       45.018       39.628     5405.661     2026.633     1570.370        0.893        0.450       94.113       42.197        0.201      342.734       18.354      865.983
04/20/2014  12:45:00      -30.206       78.094       25.923       38.610       50.039       34.970     1490.711     2503.921     1222.883        0.645        0.261       83.732       26.750        0.102      342.992       18.790      865.977
04/20/2014  12:46:00      -28.265        9.571       16.514       51.975       27.518       29.739     2701.422      757.226      884.425        0.275        0.217       29.841       32.297        1.171      342.811       18.483      865.967
04/20/2014  12:47:00       64.211       35.633       23.743       63.713       47.208       35.164     4059.370     2228.607     1236.500        0.674        0.376       73.436       19.568        0.071      342.535       18.014      865.948
04/20/2014  12:48:00      153.167      111.544       50.587       67.356       55.726       61.429     4536.895     3105.341     3773.529        2.494        0.571      189.479       36.528        0.037      342.004       17.109      865.924
04/20/2014  12:49:00      195.649      131.980       19.408      105.143       63.936       48.848    11055.132     4087.755     2386.159        3.680        0.876      236.002       35.422        0.023      342.004       17.106      865.921
04/20/2014  12:50:00      154.549       92.888        5.683       89.805       64.034       52.354     8064.931     4100.306     2740.901        2.372        0.745      180.315       35.802        0.039      342.129       17.320      865.904
04/20/2014  12:51:00       86.015       63.411       46.468       59.560       63.747       44.923     3547.379     4063.696     2018.089        1.160        0.481      106.862       38.729        0.131      342.393       17.771      865.893
04/20/2014  12:52:00      121.306      105.463       88.436       84.472       58.262       44.830     7135.528     3394.434     2009.763        2.310        0.627      160.741       45.780        0.081      341.922       16.970      865.884
04/20/2014  12:53:00       14.068      -15.122       48.108       38.595       56.905       30.370     1489.549     3238.233      922.351        0.419        0.283       20.654       29.063        1.980      342.292       17.600      865.860
04/20/2014  12:54:00      139.326       67.982       27.100       95.214      112.918       59.863     9065.721    12750.452     3583.571        2.508        1.270      155.026       56.482        0.133      341.771       16.713      865.837
04/20/2014  12:55:00      100.356       12.651       21.933       90.353       74.392       49.566     8163.704     5534.214     2456.800        1.343        0.808      101.150       30.472        0.091      341.823       16.802      865.849
04/20/2014  12:56:00       83.162      -76.591       -8.962       42.885       45.761       34.115     1839.129     2094.027     1163.837        0.898        0.255      113.058       28.364        0.063      341.433       16.145      865.833
04/20/2014  12:57:00       37.359      -16.904       26.977       52.323       60.827       41.839     2737.736     3699.967     1750.471        0.530        0.409       41.005       44.800        1.194      341.828       16.813      865.835
04/20/2014  12:58:00       20.168       15.218        5.623       30.681       44.405       32.332      941.295     1971.762     1045.361        0.231        0.198       25.265       24.014        0.903      342.233       17.501      865.813
04/20/2014  12:59:00       16.941       26.040       38.165       45.323       53.898       32.646     2054.206     2904.941     1065.752        0.422        0.301       31.066       10.069        0.105      342.661       18.226      865.771
04/20/2014  13:00:00       51.181      -95.671        7.492       43.778       72.002       41.648     1916.475     5184.226     1734.554        1.033        0.442      108.501       25.851        0.057      342.460       17.884      865.757
04/20/2014  13:01:00      131.817      -77.572       27.271       77.362      113.862       67.299     5984.806    12964.614     4529.169        2.380        1.174      152.948       72.660        0.226      342.613       18.145      865.736
04/20/2014  13:02:00      162.004     -175.620      -15.497       98.210      146.365       73.701     9645.264    21422.715     5431.783        4.691        1.825      238.930       94.609        0.157      342.575       18.079      865.700
04/20/2014  13:03:00      139.003     -261.320      -52.489      147.287      154.057       85.385    21693.577    23733.428     7290.653        7.153        2.636      295.990       95.144        0.103      342.548       18.033      865.682
04/20/2014  13:04:00       27.078     -111.183       14.742      119.232      125.198       77.041    14216.240    15674.442     5935.303        2.456        1.791      114.433       64.331        0.316      342.679       18.255      865.739
04/20/2014  13:05:00      -29.976      -86.940        4.326       76.161       71.345       50.023     5800.502     5090.050     2502.300        1.093        0.670       91.963       48.199        0.275      342.904       18.639      865.743
04/20/2014  13:06:00     -110.162     -107.438      -14.516       44.655       49.095       27.934     1994.040     2410.359      780.315        1.454        0.259      153.879       27.569        0.032      342.030       17.155      865.736
04/20/2014  13:07:00      -66.409      -89.064        0.217       50.708       73.342       38.948     2571.253     5379.047     1516.978        1.090        0.473      111.097       38.714        0.121      342.355       17.705      865.734
04/20/2014  13:08:00      -46.180       53.576       21.462       37.121       40.104       30.076     1377.934     1608.335      904.567        0.468        0.195       70.732        9.699        0.019      342.460       17.886      865.699
04/20/2014  13:09:00      -34.815       -4.863      -11.987       51.952       23.054       19.218     2699.035      531.482      369.345        0.249        0.180       35.153       11.598        0.109      342.304       17.620      865.681
04/20/2014  13:10:00       30.086       -8.199       10.738       28.901       35.599       31.822      835.274     1267.255     1012.641        0.210        0.156       31.183       24.380        0.611      342.682       18.264      865.668
04/20/2014  13:11:00       61.206      -55.852       25.558       49.813       74.832       39.644     2481.370     5599.792     1571.634        0.858        0.483       82.859       41.231        0.248      342.850       18.549      865.669
04/20/2014  13:12:00       53.809       18.203       54.402       62.425       60.269       54.538     3896.824     3632.373     2974.348        0.834        0.525       56.804       44.929        0.626      342.456       17.878      865.656
04/20/2014  13:13:00       58.745        0.164       12.599       71.034       62.557       42.760     5045.785     3913.382     1828.395        0.720        0.539       58.745       23.430        0.159      342.102       17.276      865.640
04/20/2014  13:14:00       29.308      -12.144       46.527       40.049       41.960       41.629     1603.932     1760.611     1732.974        0.413        0.255       31.725       34.000        1.149      342.777       18.424      865.631
04/20/2014  13:15:00      114.652       54.428       32.175       59.538       74.663       38.507     3544.723     5574.592     1482.801        1.387        0.530      126.915       23.994        0.036      341.972       17.055      865.623
04/20/2014  13:16:00       64.854       73.428       -9.265       55.307       51.907       38.637     3058.874     2694.356     1492.837        0.846        0.362       97.968       24.123        0.061      342.181       17.411      865.627
04/20/2014  13:17:00      -29.731       68.030      -20.747       23.265       54.860       20.254      541.238     3009.674      410.244        0.495        0.198       74.243       17.542        0.056      342.249       17.526      865.622
04/20/2014  13:18:00      -52.356       32.086        7.979       54.280       52.302       38.916     2946.282     2735.468     1514.485        0.551        0.360       61.405       23.207        0.143      342.950       18.719      865.626
04/20/2014  13:19:00      -23.769       23.907       10.397       32.734       29.744       27.203     1071.505      884.734      740.000        0.197        0.135       33.712       22.213        0.434      343.113       18.996      865.624
04/20/2014  13:20:00      -76.069      -12.670       11.938       75.664       54.030       24.892     5724.982     2919.233      619.615        0.767        0.463       77.117       31.351        0.165      343.203       19.148      865.609
04/20/2014  13:21:00     -178.951      -96.100       -5.732       79.083       59.516       41.780     6254.090     3542.143     1745.576        2.641        0.577      203.122       32.693        0.026      342.551       18.039      865.594
04/20/2014  13:22:00     -187.077      -55.722       -5.981       71.589       48.454       32.891     5125.048     2347.758     1081.830        2.334        0.428      195.200       34.323        0.031      342.523       17.989      865.586
04/20/2014  13:23:00     -148.128     -125.413      -10.224       81.832       51.583       46.283     6696.412     2660.775     2142.103        2.463        0.575      194.088       38.174        0.039      342.455       17.875      865.592
04/20/2014  13:24:00     -187.809      -98.651      -29.040       42.025       68.446       31.588     1766.066     4684.821      997.830        2.665        0.372      212.142       23.808        0.013      342.097       17.264      865.579
04/20/2014  13:25:00     -208.431      -55.156      -17.653       45.818       44.924       31.394     2099.281     2018.181      985.612        2.595        0.255      215.605       26.710        0.015      342.276       17.569      865.555
04/20/2014  13:26:00     -107.891      -47.345        2.034       73.356       60.224       39.564     5381.147     3626.898     1565.281        1.223        0.529      117.822       29.826        0.064      342.556       18.048      865.550
04/20/2014  13:27:00      -78.026      -63.628      -10.157       62.954       39.586       27.316     3963.168     1567.068      746.179        0.826        0.314      100.681       16.038        0.025      342.672       18.244      865.538
04/20/2014  13:28:00      -10.616      -45.992        3.124       44.626       44.327       33.479     1991.510     1964.869     1120.871        0.366        0.254       47.201       21.834        0.214      343.297       19.311      865.505
04/20/2014  13:29:00      -28.681     -168.975      -40.848       80.656       79.649       47.457     6505.327     6343.989     2252.173        2.307        0.755      171.392       30.412        0.031      343.054       18.892      865.494
04/20/2014  13:30:00       42.474     -121.106       -9.897       64.602       74.835       46.238     4173.449     5600.321     2137.951        1.424        0.596      128.338       30.087        0.055      342.874       18.589      865.488
04/20/2014  13:31:00     -144.588     -199.978      -21.816      100.134       93.010       40.620    10026.885     8650.819     1650.017        4.085        1.016      246.773       36.595        0.022      342.589       18.102      865.473
04/20/2014  13:32:00      -74.584     -128.364        5.734       96.500       88.541       49.278     9312.342     7839.512     2428.356        2.082        0.979      148.459       53.588        0.130      342.728       18.339      865.475
04/20/2014  13:33:00     -168.942     -140.088       -8.289       84.601       76.876       41.721     7157.354     5909.912     1740.652        3.152        0.740      219.467       38.219        0.030      342.662       18.225      865.455
04/20/2014  13:34:00     -167.545      -91.764       -3.538      101.948       62.422       48.771    10393.376     3896.519     2378.577        2.658        0.833      191.028       56.991        0.089      342.717       18.320      865.430
04/20/2014  13:35:00     -207.396      -96.848      -16.758       98.359       48.573       34.739     9674.589     2359.311     1206.823        3.295        0.662      228.894       42.351        0.034      342.458       17.877      865.394
04/20/2014  13:36:00     -157.284      -61.453       -7.916       62.121       51.718       29.970     3858.977     2674.758      898.213        1.800        0.372      168.863       28.016        0.028      342.525       17.993      865.375
04/20/2014  13:37:00     -101.193      -52.905       -3.819       56.498       37.739       26.683     3192.066     1424.243      711.967        0.919        0.266      114.188       28.007        0.060      342.625       18.166      865.363
04/20/2014  13:38:00     -107.499      -80.393       -0.583       95.232       55.249       42.426     9069.101     3052.469     1799.958        1.597        0.696      134.235       34.034        0.064      342.925       18.675      865.351
04/20/2014  13:39:00     -150.268      -98.511       -9.766       74.759       62.121       33.509     5588.845     3859.011     1122.861        2.147        0.529      179.680       24.666        0.019      342.679       18.257      865.345
04/20/2014  13:40:00     -179.832      -40.470       -4.207       34.447       33.840       23.860     1186.602     1145.140      569.291        1.845        0.145      184.329       18.282        0.010      342.388       17.762      865.341
04/20/2014  13:41:00     -108.329      -18.949       -2.894       42.015       32.774       21.979     1765.275     1074.134      483.093        0.771        0.166      109.974        9.882        0.008      342.568       18.068      865.340
04/20/2014  13:42:00      -19.033      -31.819       15.607       71.078       37.272       31.462     5052.071     1389.217      989.851        0.452        0.372       37.077       25.681        0.480      343.142       19.046      865.346
04/20/2014  13:43:00      -38.603     -181.010       -1.261       59.125       89.668       38.581     3495.777     8040.316     1488.478        2.364        0.651      185.081       15.753        0.007      342.813       18.484      865.356
04/20/2014  13:44:00      -32.678      -87.448       -1.341       76.861       77.533       37.349     5907.659     6011.370     1394.957        1.101        0.666       93.354       38.394        0.169      343.255       19.237      865.340
04/20/2014  13:45:00      -24.251       -1.339       17.855       39.972       35.564       22.312     1597.778     1264.820      497.808        0.213        0.168       24.288        9.853        0.165      343.628       19.874      865.328
04/20/2014  13:46:00      -83.886      -11.210       14.631       63.404       38.879       34.571     4020.089     1511.542     1195.124        0.705        0.336       84.631       35.092        0.172      342.906       18.643      865.309
04/20/2014  13:47:00      -87.526      -18.546      -14.157       67.597       54.569       31.058     4569.314     2977.805      964.616        0.836        0.426       89.469       26.760        0.089      343.036       18.865      865.281
04/20/2014  13:48:00      -60.509       20.437       -0.672       56.205       34.963       26.287     3158.992     1222.429      691.020        0.457        0.254       63.867       22.150        0.120      343.278       19.278      865.275
04/20/2014  13:49:00      -20.079       59.434       13.885       59.528       57.085       42.100     3543.542     3258.717     1772.430        0.635        0.429       62.734       33.235        0.281      343.555       19.750      865.269
04/20/2014  13:50:00      -26.044      103.990       -0.582       52.971       53.931       38.962     2805.936     2908.588     1518.001        0.936        0.362      107.202       30.496        0.081      343.100       18.973      865.250
04/20/2014  13:51:00       24.343       48.999       27.651       39.236       44.959       29.338     1539.489     2021.331      860.698        0.409        0.221       54.713       28.539        0.272      343.476       19.615      865.232
04/20/2014  13:52:00       34.335        9.184       10.583       32.924       55.855       31.819     1084.004     3119.835     1012.434        0.329        0.261       35.542       14.891        0.176      343.298       19.312      865.239
04/20/2014  13:53:00       28.036      -18.451       21.512       49.706       46.592       34.411     2470.666     2170.817     1184.128        0.371        0.291       33.562       30.551        0.829      343.277       19.276      865.238
04/20/2014  13:54:00       68.569      -58.265       16.794       44.648       93.089       41.056     1993.459     8665.536     1685.595        1.036        0.617       89.981       44.398        0.243      343.310       19.331      865.230
04/20/2014  13:55:00       83.634      -79.115       14.108       95.858      153.113       94.622     9188.724    23443.593     8953.288        2.751        2.079      115.126      111.352        0.936      343.084       18.946      865.221
04/20/2014  13:56:00       89.668     -151.145       -1.204       74.542       90.042       49.979     5556.506     8107.484     2497.898        2.352        0.808      175.742       54.654        0.097      342.857       18.557      865.235
04/20/2014  13:57:00      -28.320     -122.770        7.824       83.762       67.618       45.244     7015.994     4572.255     2047.055        1.478        0.682      125.994       32.997        0.069      343.377       19.446      865.222
04/20/2014  13:58:00      -92.509      -69.528       -8.459       52.490       78.681       46.859     2755.208     6190.742     2195.730        1.230        0.557      115.724       29.863        0.067      343.143       19.048      865.205
04/20/2014  13:59:00     -103.660       12.029       -6.411       49.504       25.931       28.299     2450.666      672.410      800.852        0.743        0.196      104.356       27.644        0.070      343.004       18.811      865.168
04/20/2014  14:00:00        0.298      -26.649       -0.427       27.181       50.103       36.113      738.804     2510.273     1304.130        0.263        0.228       26.651       14.926        0.314      343.107       18.986      865.157
04/20/2014  14:01:00      121.161     -151.257      -42.910      132.925      111.120       63.690    17669.069    12347.566     4056.358        3.673        1.704      193.800       81.686        0.178      343.209       19.156      865.130
04/20/2014  14:02:00      181.049     -256.778      -56.787       98.051      112.868       59.392     9613.923    12739.276     3527.427        6.390        1.294      314.187       63.831        0.041      343.081       18.937      865.098
04/20/2014  14:03:00      157.574     -232.697      -18.893       85.733      120.928       57.044     7350.154    14623.575     3254.053        5.228        1.261      281.030       62.654        0.050      343.319       19.344      865.089
04/20/2014  14:04:00       90.301     -135.745       14.521      101.629       91.500       59.927    10328.515     8372.185     3591.261        2.454        1.115      163.037       63.965        0.154      343.350       19.398      865.068
04/20/2014  14:05:00      113.103       24.903       66.394      111.102      136.109       72.400    12343.644    18525.767     5241.784        2.696        1.806      115.813       55.423        0.229      343.634       19.882      865.065
04/20/2014  14:06:00       98.939      113.488      117.355       94.883       75.860       75.611     9002.854     5754.782     5717.021        2.845        1.024      150.560       65.329        0.188      343.375       19.440      865.067
04/20/2014  14:07:00       76.942      -24.775       53.568       79.789       82.327       64.513     6366.347     6777.791     4161.979        1.335        0.865       80.833       60.383        0.558      342.859       18.563      865.071
04/20/2014  14:08:00       97.700       69.890       50.123       63.072       61.319       60.821     3978.047     3759.985     3699.183        1.419        0.572      120.124       43.981        0.134      342.732       18.347      865.066
04/20/2014  14:09:00       25.893      -25.593       11.235       39.524       66.919       31.205     1562.111     4478.132      973.763        0.423        0.351       36.407       25.462        0.489      342.885       18.607      865.052
04/20/2014  14:10:00      181.955       98.896       48.348       77.328       65.659       58.134     5979.566     4311.086     3379.504        2.945        0.684      207.095       36.355        0.031      343.276       19.272      865.044
04/20/2014  14:11:00      200.500      123.425       46.891       59.039       46.295       51.033     3485.572     2143.267     2604.317        3.293        0.412      235.444       19.238        0.007      342.929       18.680      865.049
04/20/2014  14:12:00       32.268       13.208       22.471       50.499       66.920       32.209     2550.111     4478.322     1037.405        0.489        0.403       34.867       25.458        0.533      343.193       19.133      865.048
04/20/2014  14:13:00       85.003      -63.424       35.868       70.423       87.897       44.716     4959.429     7725.938     1999.559        1.361        0.734      106.057       46.596        0.193      343.086       18.948      865.027
04/20/2014  14:14:00       16.095        2.761       34.452       32.389       46.907       28.403     1049.058     2200.225      806.751        0.275        0.203       16.330       23.626        2.093      343.499       19.653      865.003
04/20/2014  14:15:00       36.045       27.633       37.245       35.468       36.496       31.918     1257.999     1331.958     1018.742        0.353        0.180       45.419       20.692        0.208      343.420       19.520      864.993
04/20/2014  14:16:00      125.536      -43.385       32.589       91.550      159.620       78.080     8381.315    25478.526     6096.484        2.932        1.998      132.822       83.519        0.395      343.202       19.147      864.963
04/20/2014  14:17:00       27.988      -15.939        4.265       64.348      135.530       50.749     4140.680    18368.295     2575.504        1.307        1.254       32.208       29.890        0.861      343.854       20.258      864.933
04/20/2014  14:18:00       29.389      -28.374       38.039       69.503       89.862       55.358     4830.610     8075.206     3064.510        0.954        0.799       40.851       39.972        0.957      343.747       20.076      864.934
04/20/2014  14:19:00       46.094       26.017       53.040       63.322       58.722       40.140     4009.672     3448.297     1611.249        0.734        0.453       52.930       24.045        0.206      343.546       19.735      864.921
04/20/2014  14:20:00      115.374       58.891       10.545       75.203       45.214       49.557     5655.512     2044.342     2455.917        1.352        0.508      129.535       41.913        0.105      343.539       19.720      864.905
04/20/2014  14:21:00       79.824        6.246       11.253       50.567       51.049       41.743     2557.031     2606.021     1742.475        0.672        0.345       80.068       28.582        0.127      343.453       19.575      864.901
04/20/2014  14:22:00       27.001      -43.256       14.501       66.986       67.202       39.625     4487.141     4516.115     1570.126        0.669        0.529       50.991       33.929        0.443      343.683       19.968      864.889
04/20/2014  14:23:00       18.777      -27.029       36.571       48.944       65.768       56.859     2395.515     4325.438     3232.900        0.619        0.498       32.911       29.945        0.828      343.537       19.717      864.891
04/20/2014  14:24:00       82.306      -81.681        5.394       32.743       30.766       28.705     1072.100      946.520      823.971        0.816        0.142      115.957       19.076        0.027      342.861       18.567      864.895
04/20/2014  14:25:00        8.381     -114.777        3.319       45.599       64.457       49.267     2079.266     4154.742     2427.206        1.096        0.433      115.082       39.248        0.116      343.434       19.543      864.865
04/20/2014  14:26:00       73.715      -75.596      -23.699       53.406       69.501       42.316     2852.187     4830.451     1790.675        1.059        0.474      105.587       40.153        0.145      343.110       18.991      864.866
04/20/2014  14:27:00        4.993      -94.194      -12.086       27.786       44.798       20.032      772.034     2006.852      401.297        0.611        0.159       94.327       12.503        0.018      343.060       18.908      864.860
04/20/2014  14:28:00      -12.509        4.669      -19.553       48.179       43.276       25.779     2321.170     1872.839      664.564        0.271        0.243       13.352       19.122        2.051      343.486       19.633      864.824
04/20/2014  14:29:00       64.553       -0.575       17.705       61.919       52.123       47.371     3834.013     2716.804     2243.998        0.664        0.440       64.556       25.405        0.155      343.588       19.806      864.793
04/20/2014  14:30:00      -62.847      137.757      -17.947       54.005      103.947       55.440     2916.554    10804.955     3073.576        2.002        0.840      151.416       58.519        0.149      343.491       19.639      864.771
04/20/2014  14:31:00      -74.280      165.959      -27.685       46.483       71.080       41.392     2160.652     5052.363     1713.274        2.137        0.446      181.824       38.033        0.044      343.167       19.086      864.775
04/20/2014  14:32:00     -103.662      116.803      -34.171       80.306      118.014       30.200     6448.996    13927.263      912.018        2.342        1.064      156.169       40.243        0.066      342.998       18.799      864.774
04/20/2014  14:33:00      -88.775      -14.718      -15.416       27.347       76.966       34.290      747.850     5923.782     1175.781        0.809        0.392       89.987       32.994        0.134      343.107       18.985      864.758
04/20/2014  14:34:00     -125.840      195.631      -29.686       41.770       57.490       38.743     1744.707     3305.131     1501.057        3.077        0.328      232.609       28.532        0.015      343.148       19.053      864.746
04/20/2014  14:35:00     -167.352       85.274      -46.776       46.480       51.072       22.761     2160.377     2608.369      518.076        2.138        0.264      187.825       16.961        0.008      343.059       18.902      864.741
04/20/2014  14:36:00       39.313      -36.188       -5.170      106.983       28.067       38.551    11445.275      787.767     1486.197        0.830        0.686       53.433       43.342        0.658      343.044       18.877      864.740
04/20/2014  14:37:00       31.948      -72.562       16.507       59.471       46.253       56.204     3536.776     2139.362     3158.845        0.769        0.442       79.284       25.636        0.105      343.198       19.140      864.709
04/20/2014  14:38:00      -75.442       47.379      -14.527       95.329       77.677       29.706     9087.580     6033.768      882.468        1.207        0.800       89.085       27.094        0.093      343.481       19.621      864.703
04/20/2014  14:39:00      -82.157       41.067       18.976       77.846       69.317       38.366     6059.968     4804.797     1471.943        1.056        0.617       91.849       40.994        0.199      344.056       20.605      864.691
04/20/2014  14:40:00     -172.460        4.570      -15.792       77.182       59.453       34.454     5957.087     3534.700     1187.071        2.034        0.534      172.520       35.697        0.043      343.561       19.757      864.673
04/20/2014  14:41:00     -127.395       61.524      -12.799       78.636       89.080       39.090     6183.693     7935.173     1528.031        1.791        0.782      141.473       40.803        0.083      343.564       19.764      864.692
04/20/2014  14:42:00      -39.747      248.590      -31.355       39.209       62.330       37.969     1537.326     3885.044     1441.644        3.561        0.343      251.748       34.562        0.019      343.294       19.300      864.698
04/20/2014  14:43:00       13.606      205.716      -24.157       78.779       91.549       49.707     6206.054     8381.301     2470.824        3.007        0.853      206.166       53.695        0.068      343.318       19.342      864.696
04/20/2014  14:44:00       -7.812      148.685      -30.585       61.179       59.972       35.687     3742.840     3596.589     1273.548        1.586        0.431      148.890       34.773        0.055      343.418       19.515      864.689
04/20/2014  14:45:00      -47.551       60.204       -4.829       48.685       47.065       32.929     2370.274     2215.118     1084.330        0.579        0.283       76.718       25.484        0.110      343.661       19.931      864.678
04/20/2014  14:46:00      -51.825       31.450       -3.387       34.930       50.904       27.697     1220.099     2591.230      767.100        0.413        0.229       60.622       24.802        0.167      343.727       20.043      864.660
04/20/2014  14:47:00     -151.124       64.356      -23.687       47.450       55.651       31.624     2251.536     3097.079     1000.108        1.694        0.317      164.256       25.355        0.024      343.459       19.585      864.639
04/20/2014  14:48:00      -79.901       66.221       -8.101       47.224       35.586       30.472     2230.146     1266.393      928.547        0.763        0.221      103.775       28.327        0.075      343.792       20.153      864.622
04/20/2014  14:49:00      -74.750       74.278      -13.026       30.584       31.463       26.751      935.360      989.919      715.592        0.696        0.132      105.379       21.086        0.040      343.559       19.756      864.586
04/20/2014  14:50:00      -39.644       77.745        6.305       49.924       55.629       38.617     2492.428     3094.641     1491.305        0.737        0.354       87.269       35.745        0.168      343.867       20.283      864.545
04/20/2014  14:51:00     -183.862       46.313      -27.754       85.716       63.935       41.798     7347.229     4087.648     1747.063        2.495        0.659      189.605       35.307        0.035      343.717       20.025      864.510
04/20/2014  14:52:00     -145.690       36.058      -12.277       88.165       60.415       37.692     7773.002     3649.967     1420.681        1.776        0.642      150.086       36.256        0.058      343.836       20.228      864.483
04/20/2014  14:53:00      -99.701      -48.212       14.921      136.036       66.985       53.007    18505.846     4487.033     2809.756        1.914        1.290      110.746       45.849        0.171      344.110       20.695      864.461
04/20/2014  14:54:00     -260.303      -44.470        0.491       82.464       60.043       40.433     6800.243     3605.153     1634.855        4.089        0.602      264.074       41.542        0.025      343.475       19.607      864.451
04/20/2014  14:55:00     -306.712     -143.809        0.099       92.595       71.329       46.136     8573.778     5087.842     2128.548        6.527        0.790      338.752       47.639        0.020      343.425       19.525      864.424
04/20/2014  14:56:00     -278.440      -90.003       -1.890       88.383       90.702       47.890     7811.637     8226.872     2293.478        5.198        0.917      292.625       40.444        0.019      343.556       19.746      864.406
04/20/2014  14:57:00     -323.096      -87.964        3.006      113.268       78.977       53.165    12829.592     6237.380     2826.565        6.701        1.095      334.856       46.754        0.019      343.578       19.785      864.378
04/20/2014  14:58:00     -204.045      -50.821        0.860       60.712       57.756       31.160     3685.967     3335.765      970.968        2.610        0.400      210.279       21.036        0.010      343.502       19.656      864.383
04/20/2014  14:59:00      -80.826      -13.458        2.235       58.206       63.303       34.893     3387.920     4007.311     1217.487        0.766        0.431       81.939       37.526        0.210      343.617       19.854      864.397
04/20/2014  15:00:00      -57.523       13.583       10.915       75.800       38.571       34.054     5745.704     1487.685     1159.683        0.600        0.420       59.105       34.241        0.336      343.883       20.309      864.395
04/20/2014  15:01:00       11.224       31.460       30.243       58.905       38.253       27.122     3469.740     1463.258      735.586        0.385        0.283       33.402       28.987        0.753      344.051       20.596      864.391
04/20/2014  15:02:00      114.169      198.312      -11.952       76.633      121.701       69.202     5872.592    14811.233     4788.884        3.898        1.274      228.828       62.199        0.074      343.768       20.109      864.367
04/20/2014  15:03:00       11.386      152.849      -14.965       76.384      128.274       60.029     5834.462    16454.269     3603.487        2.480        1.295      153.273       62.009        0.164      343.989       20.489      864.364
04/20/2014  15:04:00      152.763      152.518        2.699      128.912       97.259       86.640    16618.286     9459.304     7506.496        4.009        1.679      215.867       55.001        0.065      343.623       19.863      864.358
04/20/2014  15:05:00       79.271      209.351       -3.492       90.598      117.856       80.510     8207.925    13890.149     6481.830        3.935        1.429      223.857       77.212        0.119      343.527       19.698      864.353
04/20/2014  15:06:00       69.501      321.819      -42.587       85.926      123.224       69.277     7383.218    15184.119     4799.350        6.878        1.368      329.238       74.064        0.051      343.442       19.553      864.345
04/20/2014  15:07:00      137.346      129.365       11.965       80.653       67.997       64.780     6504.953     4623.605     4196.510        2.553        0.766      188.677       42.015        0.050      343.477       19.613      864.356
04/20/2014  15:08:00       42.501      288.603      -40.045       72.791      102.816       46.294     5298.461    10571.146     2143.117        5.235        0.901      291.716       55.049        0.036      343.408       19.496      864.329
04/20/2014  15:09:00       14.578      113.839        2.503       71.581       83.200       47.429     5123.858     6922.267     2249.541        1.373        0.715      114.768       46.500        0.164      343.878       20.300      864.342
04/20/2014  15:10:00       40.481      173.067      -13.665       70.334       79.714       58.274     4946.941     6354.280     3395.899        2.323        0.735      177.738       49.169        0.077      343.699       19.992      864.327
04/20/2014  15:11:00      141.862      173.170        1.268      127.223       81.506       59.849    16185.721     6643.239     3581.847        3.826        1.321      223.858       59.407        0.070      343.773       20.117      864.315
04/20/2014  15:12:00      220.077      125.423        7.415       91.419       59.996       57.500     8357.456     3599.514     3306.223        3.974        0.763      253.308       35.477        0.020      343.651       19.911      864.332
04/20/2014  15:13:00       19.275      106.905      -15.106       42.249       50.351       26.816     1785.010     2535.272      719.104        0.853        0.252      108.629       25.598        0.056      343.469       19.602      864.330
04/20/2014  15:14:00       19.378       37.718       -6.341       40.478       39.855       21.230     1638.446     1588.443      450.718        0.276        0.184       42.405       19.301        0.207      343.820       20.202      864.299
04/20/2014  15:15:00       20.440      -55.719       -5.868       43.269       35.564       29.173     1872.220     1264.817      851.044        0.377        0.199       59.350       32.424        0.298      343.101       18.977      864.294
04/20/2014  15:16:00       54.436      -64.850       -6.001       38.285       54.121       30.428     1465.759     2929.051      925.861        0.626        0.266       84.669       26.559        0.098      343.559       19.756      864.275
04/20/2014  15:17:00       67.643     -142.153       -9.964       59.714       64.784       34.900     3565.747     4197.001     1218.042        1.693        0.449      157.426       29.524        0.035      343.523       19.693      864.261
04/20/2014  15:18:00       57.982      -88.733       11.208       55.368       83.782       50.551     3065.658     7019.415     2555.430        1.200        0.632      105.997       53.512        0.255      343.780       20.131      864.231
04/20/2014  15:19:00       19.994      -29.480       -0.412       44.202       85.803       30.535     1953.773     7362.143      932.391        0.576        0.512       35.621       20.488        0.331      343.510       19.671      864.218
04/20/2014  15:20:00       99.143       82.644        3.213       51.625       44.806       46.442     2665.150     2007.594     2156.866        1.175        0.341      129.071       17.631        0.019      343.769       20.115      864.226
04/20/2014  15:21:00      169.620      112.102       30.233       86.311       69.657       66.752     7449.672     4852.092     4455.796        2.950        0.838      203.317       40.910        0.040      343.702       19.998      864.198
04/20/2014  15:22:00      179.488      126.669       52.208       94.705       52.860       57.750     8969.019     2794.213     3335.049        3.304        0.755      219.684       35.020        0.025      343.877       20.296      864.187
04/20/2014  15:23:00       52.202       74.770       39.069       53.092       48.245       66.411     2818.784     2327.627     4410.415        0.970        0.478       91.190       31.812        0.122      344.054       20.600      864.177
04/20/2014  15:24:00       14.137       17.991       14.504       20.330       24.847       19.319      413.312      617.371      373.236        0.107        0.070       22.881       17.876        0.610      344.286       20.997      864.166
04/20/2014  15:25:00       12.807      -17.455       17.481       24.279       26.883       23.577      589.448      722.692      555.878        0.132        0.093       21.650       15.546        0.516      344.073       20.634      864.153
04/20/2014  15:26:00       12.696        5.043       26.220       18.644       19.307       11.656      347.585      372.748      135.862        0.086        0.043       13.661        5.745        0.177      344.186       20.828      864.152
04/20/2014  15:27:00       -6.047       85.531        0.956       42.495       60.825       39.781     1805.809     3699.694     1582.519        0.722        0.354       85.744       35.358        0.170      344.093       20.668      864.158
04/20/2014  15:28:00      -41.901      156.444      -13.398       49.857       79.437       39.861     2485.707     6310.225     1588.927        1.840        0.519      161.958       35.054        0.047      343.799       20.164      864.136
04/20/2014  15:29:00      -60.020      133.102      -16.497       46.351       62.894       31.614     2148.454     3955.699      999.433        1.435        0.355      146.009       26.886        0.034      343.847       20.247      864.127
04/20/2014  15:30:00      -63.877       87.574      -11.451       41.941       55.889       28.855     1759.065     3123.547      832.627        0.880        0.286      108.395       16.381        0.023      344.044       20.585      864.109
04/20/2014  15:31:00      -95.576       40.801      -17.329       40.768       37.215       27.199     1662.039     1384.984      739.770        0.744        0.189      103.920       15.187        0.021      344.035       20.567      864.092
04/20/2014  15:32:00      -51.624       36.750        1.152       75.553       49.261       30.996     5708.190     2426.679      960.742        0.655        0.455       63.368       30.933        0.238      344.515       21.388      864.074
04/20/2014  15:33:00       22.009      -48.940       31.960       56.180       80.352       54.738     3156.196     6456.474     2996.273        0.825        0.630       53.661       40.272        0.563      344.215       20.876      864.050
04/20/2014  15:34:00       68.239      -30.964       48.821       71.245       82.284       57.056     5075.832     6770.628     3255.352        1.155        0.755       74.935       63.467        0.717      344.172       20.801      864.016
04/20/2014  15:35:00       84.410       29.383       49.574       89.571      105.254       51.709     8022.933    11078.310     2673.816        1.611        1.089       89.378       41.379        0.214      344.106       20.689      863.998
04/20/2014  15:36:00       50.406      -47.873       49.464      103.904      103.493       58.470    10796.084    10710.889     3418.684        1.610        1.246       69.517       48.841        0.494      344.174       20.806      863.979
04/20/2014  15:37:00      201.133     -197.178      -11.978      112.456      138.750       84.620    12646.448    19251.602     7160.484        5.926        1.953      281.662      100.094        0.126      343.919       20.367      863.963
04/20/2014  15:38:00      110.199       35.848       37.999       53.800       68.377       40.589     2894.440     4675.471     1647.437        1.204        0.461      115.883       18.280        0.025      343.625       19.869      863.998
04/20/2014  15:39:00       43.991       52.901       70.476       56.523       59.247       46.358     3194.897     3510.158     2149.033        0.928        0.443       68.802       31.407        0.208      343.970       20.457      863.995
04/20/2014  15:40:00       75.735      -11.485       14.948       54.516       75.744       35.108     2972.032     5737.150     1232.552        0.801        0.497       76.601       38.354        0.251      343.468       19.601      863.995
04/20/2014  15:41:00      -11.921      -34.919       19.965       57.748       49.927       37.780     3334.877     2492.672     1427.343        0.451        0.363       36.898       32.026        0.753      343.907       20.350      863.979
04/20/2014  15:42:00       41.558       59.877       18.210       92.183       53.596       42.399     8497.674     2872.565     1797.677        0.940        0.658       72.885       34.316        0.222      343.908       20.351      863.965
04/20/2014  15:43:00      -30.867      192.435      -26.830       50.710       67.979       36.485     2571.512     4621.102     1331.165        2.361        0.426      194.894       34.151        0.031      343.847       20.245      863.955
04/20/2014  15:44:00       29.429      200.203      -15.408       77.521      173.971       68.161     6009.490    30265.838     4645.862        4.104        2.046      202.354       92.095        0.207      344.067       20.622      863.942
04/20/2014  15:45:00      144.967       97.850        6.056      119.294       87.362       58.175    14231.130     7632.044     3384.292        2.793        1.262      174.900       48.713        0.078      343.783       20.134      863.938
04/20/2014  15:46:00       46.779      288.573      -35.267       87.367      140.980       71.248     7632.976    19875.436     5076.291        5.964        1.629      292.340       77.552        0.070      343.978       20.468      863.931
04/20/2014  15:47:00       82.884      144.096      -14.272       69.118       87.162       59.983     4777.229     7597.260     3597.912        2.190        0.799      166.233       55.998        0.113      344.016       20.533      863.955
04/20/2014  15:48:00       54.208      103.204       29.750       92.317       58.764       43.205     8522.361     3453.256     1866.629        1.416        0.692      116.574       29.634        0.065      343.904       20.343      863.927
04/20/2014  15:49:00      -13.676      106.776        2.792       49.411       55.268       41.913     2441.463     3054.597     1756.705        0.942        0.363      107.649       38.094        0.125      343.933       20.393      863.900
04/20/2014  15:50:00      -31.330      170.750      -14.600       47.302       78.734       35.504     2237.464     6198.988     1260.510        2.002        0.485      173.601       39.045        0.051      344.126       20.722      863.909
04/20/2014  15:51:00      -44.888       69.831        2.034       41.237       47.598       43.092     1700.463     2265.563     1856.925        0.636        0.291       83.014       36.082        0.189      344.341       21.091      863.890
04/20/2014  15:52:00      -98.092       85.026      -15.832       63.659       63.155       36.155     4052.464     3988.495     1307.173        1.322        0.467      129.813       34.832        0.072      344.310       21.037      863.878
04/20/2014  15:53:00      -13.414       74.196        9.271       55.606       64.579       38.291     3091.975     4170.489     1466.174        0.725        0.436       75.399       33.358        0.196      344.526       21.408      863.878
04/20/2014  15:54:00      321.993      177.213       62.838      144.663      104.174       69.324    20927.476    10852.223     4805.783        8.780        1.829      367.538       60.533        0.027      344.207       20.858      863.850
04/20/2014  15:55:00      158.790      129.911       69.797      101.535      104.296       86.097    10309.437    10877.703     7412.695        3.778        1.430      205.161       46.321        0.051      344.349       21.102      863.862
04/20/2014  15:56:00       68.501        9.970       34.034       55.885      102.382       52.176     3123.114    10482.087     2722.354        1.114        0.816       69.222       50.571        0.534      343.908       20.352      863.863
04/20/2014  15:57:00      154.406       24.978       33.765       99.775       81.592       65.858     9955.053     6657.317     4337.227        2.327        1.047      156.413       41.674        0.071      343.957       20.433      863.871
04/20/2014  15:58:00       48.639       77.647       95.430      101.821       76.577       49.909    10367.512     5864.026     2490.871        1.811        0.936       91.623       52.805        0.332      343.977       20.469      863.847
04/20/2014  15:59:00       73.908     -146.363       19.232       99.746      150.406       76.543     9949.173    22622.013     5858.840        3.283        1.922      163.965       95.255        0.337      343.947       20.415      863.813
04/20/2014  16:00:00       99.385     -212.231      -20.576       51.965       48.034       28.469     2700.329     2307.230      810.486        3.058        0.291      234.349       22.354        0.009      343.867       20.277      863.799
04/20/2014  16:01:00       17.784       71.420       -0.891       62.693      104.524       41.196     3930.394    10925.215     1697.149        1.098        0.828       73.601       35.328        0.230      343.971       20.458      863.815
04/20/2014  16:02:00      107.422      230.628       -5.573      156.502      111.962       69.322    24492.883    12535.458     4805.556        5.329        2.092      254.419       71.477        0.079      344.125       20.718      863.824
04/20/2014  16:03:00      -90.128      188.757      -18.651       81.676      104.696       55.019     6671.043    10961.180     3027.036        3.238        1.033      209.171       51.121        0.060      344.668       21.648      863.776
04/20/2014  16:04:00      152.926      207.521      -19.478      176.875      130.383       91.482    31284.875    16999.698     8369.025        6.173        2.833      257.781       81.685        0.100      344.380       21.155      863.764
04/20/2014  16:05:00      234.011      165.425       12.908      131.479      104.402       72.954    17286.638    10899.798     5322.290        5.789        1.675      286.577       50.174        0.031      344.383       21.158      863.742
04/20/2014  16:06:00      110.823      114.448        4.253      142.919       99.283       64.929    20425.928     9857.019     4215.796        2.994        1.725      159.312       62.333        0.153      344.524       21.403      863.773
04/20/2014  16:07:00       35.785      267.115      -31.246       57.705      160.943       61.783     3329.846    25902.693     3817.117        5.332        1.652      269.501       79.879        0.088      344.274       20.975      863.780
04/20/2014  16:08:00      185.457      149.210       21.678      145.646      111.159       59.710    21212.891    12356.403     3565.235        4.712        1.857      238.029       18.713        0.006      344.247       20.928      863.782
04/20/2014  16:09:00      198.540      155.857        3.812      121.443       75.914       63.890    14748.297     5762.876     4081.989        4.415        1.230      252.407       41.345        0.027      344.138       20.741      863.783
04/20/2014  16:10:00       64.866      194.234      -17.829       96.615      104.508       56.025     9334.364    10921.919     3138.759        3.282        1.170      204.779       65.841        0.103      344.066       20.619      863.791
04/20/2014  16:11:00       45.413      181.329      -29.090       35.750       95.348       33.305     1278.078     9091.180     1109.216        2.363        0.574      186.929       48.205        0.067      343.862       20.270      863.812
04/20/2014  16:12:00      103.528       96.228       -3.223       89.940       67.548       53.210     8089.250     4562.730     2831.255        1.773        0.774      141.343       50.328        0.127      344.015       20.533      863.809
04/20/2014  16:13:00      159.797      111.027       10.667       81.038       57.044       48.401     6567.189     3253.972     2342.704        2.507        0.608      194.582       34.742        0.032      344.082       20.647      863.788
04/20/2014  16:14:00      153.474      146.943       11.972      103.743       76.095       55.129    10762.596     5790.389     3039.225        3.244        0.980      212.477       36.159        0.029      344.164       20.786      863.796
04/20/2014  16:15:00       -8.288      269.155      -49.995       68.994       87.210       26.437     4760.189     7605.512      698.912        4.404        0.653      269.283       35.245        0.017      343.837       20.226      863.847
04/20/2014  16:16:00     -109.148       56.037      -26.295       37.947       36.310       19.351     1439.975     1318.439      374.460        0.944        0.157      122.692       18.913        0.024      343.976       20.466      863.810
04/20/2014  16:17:00      -44.260       88.371        5.719       67.296       97.979       43.366     4528.781     9599.798     1880.586        1.290        0.800       98.835       38.470        0.152      344.152       20.767      863.771
04/20/2014  16:18:00      -60.932      123.554      -16.961       32.466       82.688       25.582     1054.039     6837.372      654.421        1.390        0.427      137.761       11.856        0.007      344.056       20.600      863.766
04/20/2014  16:19:00     -117.309      128.291      -20.327       87.648       70.566       39.400     7682.236     4979.600     1552.327        2.242        0.711      173.839       47.739        0.075      344.178       20.810      863.748
04/20/2014  16:20:00     -123.006      153.797      -35.285       76.795       61.568       39.936     5897.428     3790.617     1594.881        2.565        0.564      196.936       46.251        0.055      344.081       20.644      863.736
04/20/2014  16:21:00     -109.061      139.436      -20.956       53.231       83.272       35.991     2833.519     6934.278     1295.346        2.142        0.553      177.021       31.252        0.031      344.322       21.058      863.733
04/20/2014  16:22:00      -69.006       70.081       -1.388       42.515       46.507       28.150     1807.502     2162.878      792.444        0.722        0.238       98.352       23.530        0.057      344.460       21.294      863.737
04/20/2014  16:23:00      -59.696      116.691       -4.336       63.388       58.404       43.769     4018.074     3411.081     1915.739        1.327        0.467      131.074       39.066        0.089      344.528       21.412      863.739
04/20/2014  16:24:00     -108.926      102.286      -23.184       50.017       52.631       31.615     2501.735     2770.035      999.526        1.457        0.314      149.423       29.393        0.039      344.210       20.867      863.734
04/20/2014  16:25:00      -24.502      191.748      -26.130      101.656       97.121       44.577    10334.027     9432.482     1987.106        2.990        1.088      193.307       39.649        0.042      344.125       20.719      863.710
04/20/2014  16:26:00       35.041       74.093      -15.635      103.417       61.541       41.161    10695.032     3787.270     1694.208        1.157        0.809       81.961       50.393        0.378      344.326       21.065      863.690
04/20/2014  16:27:00       -3.044      -32.910       20.756       41.960       41.701       29.809     1760.663     1739.011      888.575        0.295        0.219       33.050       26.221        0.629      344.697       21.698      863.691
04/20/2014  16:28:00       58.133       34.461       32.336       61.702       86.778       38.098     3807.145     7530.414     1451.480        0.920        0.639       67.580       25.514        0.143      344.162       20.786      863.677
04/20/2014  16:29:00      142.576       69.519       13.082       97.350       61.622       43.135     9477.013     3797.230     1860.666        2.023        0.757      158.622       34.819        0.048      344.258       20.947      863.661
04/20/2014  16:30:00       52.119       -2.966       20.735       62.898       67.644       45.603     3956.180     4575.698     2079.657        0.688        0.531       52.204       40.170        0.592      344.198       20.845      863.634
04/20/2014  16:31:00       55.481       -7.078       25.454       65.279       85.361       45.874     4261.405     7286.527     2104.454        0.871        0.683       55.931       28.838        0.266      344.161       20.783      863.610
04/20/2014  16:32:00      186.049       84.174       42.044      142.122       78.733       73.440    20198.714     6198.889     5393.489        3.762        1.590      204.204       50.714        0.062      344.453       21.279      863.600
04/20/2014  16:33:00       83.978      148.203       -8.543       99.278      119.278       84.857     9856.066    14227.186     7200.704        3.018        1.564      170.342       77.433        0.207      344.276       20.979      863.613
04/20/2014  16:34:00      195.058      155.852       23.278      106.039       71.778       58.649    11244.237     5152.020     3439.752        4.135        0.992      249.675       38.253        0.023      344.139       20.743      863.621
04/20/2014  16:35:00      118.858      154.502        7.247       76.019       93.141       74.457     5778.854     8675.283     5543.850        2.902        1.000      194.930       64.161        0.108      344.379       21.153      863.624
04/20/2014  16:36:00      262.774      136.759       33.825      118.339      101.620       69.636    14004.021    10326.533     4849.227        5.903        1.459      296.232       45.391        0.023      344.246       20.925      863.619
04/20/2014  16:37:00      206.347      195.102        9.218      122.942       96.394       96.069    15114.702     9291.804     9229.300        5.718        1.682      283.979       69.935        0.061      344.015       20.530      863.632
04/20/2014  16:38:00      135.884      149.319        3.135      108.394       82.262       76.627    11749.276     6766.977     5871.682        3.257        1.219      201.893       55.016        0.074      343.991       20.491      863.629
04/20/2014  16:39:00      208.174      147.151       16.421      108.563       74.756       65.715    11785.850     5588.478     4318.410        4.347        1.085      254.931       42.342        0.028      343.985       20.480      863.625
04/20/2014  16:40:00      180.628      117.597       10.123      105.698       82.671       55.151    11172.092     6834.491     3041.665        3.380        1.052      215.535       17.061        0.006      344.083       20.647      863.615
04/20/2014  16:41:00      206.222      161.174        5.336      112.385       93.693       72.753    12630.388     8778.469     5292.993        4.761        1.335      261.734       54.730        0.044      344.204       20.854      863.630
04/20/2014  16:42:00       89.274      191.164      -27.776       70.580      101.881       48.043     4981.573    10379.681     2308.118        3.147        0.883      210.982       41.723        0.039      344.292       21.005      863.656
04/20/2014  16:43:00       44.781      102.290       -8.211       37.663       62.325       35.637     1418.513     3884.360     1270.030        0.955        0.329      111.662       32.441        0.084      344.134       20.736      863.678
04/20/2014  16:44:00      -56.606       39.924      -17.915       60.089       44.219       22.767     3610.669     1955.313      518.341        0.560        0.304       69.269       20.703        0.089      344.203       20.854      863.654
04/20/2014  16:45:00       75.998       30.208       19.181       68.867       43.282       21.787     4742.623     1873.339      474.691        0.707        0.355       81.782       27.507        0.113      344.101       20.680      863.637
04/20/2014  16:46:00       57.975       45.501       16.798       60.624       44.442       31.511     3675.272     1975.101      992.920        0.618        0.332       73.698       24.928        0.114      344.054       20.601      863.623
04/20/2014  16:47:00       39.959      132.126      -18.191       48.253      105.039       36.191     2328.362    11033.184     1309.769        1.703        0.734      138.036       54.520        0.156      344.161       20.782      863.619
04/20/2014  16:48:00       -9.184      142.308      -25.674       83.427      110.305       50.415     6959.981    12167.288     2541.703        2.133        1.083      142.604       39.828        0.078      344.090       20.661      863.611
04/20/2014  16:49:00      -91.799      125.359      -11.359       44.543       54.556       39.221     1984.097     2976.350     1538.323        1.538        0.325      155.376       29.094        0.035      344.384       21.162      863.594
04/20/2014  16:50:00      -69.640       73.355        1.731       51.757       42.959       36.767     2678.737     1845.455     1351.781        0.805        0.294      101.147       29.367        0.084      344.469       21.310      863.584
04/20/2014  16:51:00      -47.690       95.488      -10.953       26.142       46.299       30.417      683.424     2143.577      925.208        0.763        0.188      106.735       27.433        0.066      344.197       20.844      863.595
04/20/2014  16:52:00      -16.818       50.273        5.198       26.365       37.028       25.204      695.116     1371.048      635.252        0.277        0.135       53.011       21.560        0.165      344.375       21.149      863.592
04/20/2014  16:53:00      119.811       92.110       54.739       76.076       72.808       48.995     5787.518     5301.001     2400.542        1.966        0.674      151.125       46.423        0.094      343.950       20.421      863.582
04/20/2014  16:54:00       37.138       59.831       38.689       68.363       74.201       53.836     4673.456     5505.716     2898.335        0.976        0.654       70.420       34.252        0.237      344.025       20.551      863.549
04/20/2014  16:55:00       75.910       76.495        3.685       75.976       64.304       49.798     5772.284     4135.056     2479.855        1.200        0.619      107.768       45.452        0.178      344.267       20.964      863.547
04/20/2014  16:56:00      191.682      130.686       24.932       76.477       65.085       57.128     5848.785     4236.056     3263.635        3.389        0.667      231.993       35.369        0.023      344.166       20.788      863.540
04/20/2014  16:57:00      177.668      112.015       23.287      103.120       83.725       53.694    10633.819     7009.824     2883.076        3.259        1.026      210.032       57.654        0.075      344.159       20.777      863.544
04/20/2014  16:58:00       91.156       37.868       49.234       82.459       66.772       60.428     6799.485     4458.544     3651.589        1.354        0.745       98.709       30.166        0.093      344.045       20.584      863.545
04/20/2014  16:59:00       36.064       47.734       54.248       51.095       33.558       32.350     2610.739     1126.154     1046.520        0.565        0.239       59.826       24.591        0.169      344.007       20.520      863.552
04/20/2014  17:00:00       -1.938       30.200       78.550       32.282       78.881       34.686     1042.157     6222.260     1203.142        0.777        0.423       30.262       38.085        1.584      343.827       20.213      863.546
04/20/2014  17:01:00       18.303       28.621       72.208       43.330       71.214       32.740     1877.531     5071.451     1071.936        0.719        0.401       33.973       29.657        0.762      344.123       20.719      863.541
04/20/2014  17:02:00       41.753       36.505       28.097       47.016       61.333       38.902     2210.503     3761.761     1513.378        0.567        0.374       55.461       28.341        0.261      343.897       20.332      863.559
04/20/2014  17:03:00       14.465       23.362       39.021       32.362       47.156       36.830     1047.293     2223.664     1356.453        0.345        0.231       27.477       35.906        1.708      343.589       19.806      863.562
04/20/2014  17:04:00       52.105       45.042       16.356       25.389       44.759       34.081      644.595     2003.351     1161.488        0.441        0.190       68.874       29.698        0.186      343.829       20.217      863.564
04/20/2014  17:05:00       25.384       11.762       -6.223       24.126       22.934       27.138      582.082      525.948      736.478        0.133        0.092       27.977       15.188        0.295      344.115       20.706      863.561
04/20/2014  17:06:00       88.824       54.223       23.677       21.684       20.076       26.143      470.204      403.034      683.444        0.647        0.078      104.067       12.404        0.014      344.064       20.618      863.556
04/20/2014  17:07:00       79.934       49.782       13.132       52.909       23.043       23.981     2799.320      530.965      575.110        0.647        0.195       94.168       28.079        0.089      344.089       20.661      863.554
04/20/2014  17:08:00       84.200       38.897       21.431       54.241       34.152       31.102     2942.092     1166.362      967.362        0.707        0.254       92.750       19.532        0.044      343.820       20.202      863.560
04/20/2014  17:09:00       62.463       53.757        9.284       39.346       35.921       36.410     1548.130     1290.318     1325.674        0.552        0.208       82.411       13.887        0.028      344.113       20.703      863.560
04/20/2014  17:10:00       50.634       45.376        1.206       43.113       37.493       27.062     1858.698     1405.761      732.371        0.431        0.200       67.991       21.713        0.102      344.161       20.783      863.554
04/20/2014  17:11:00       38.988      155.123      -29.561       27.201       51.568       20.495      739.886     2659.293      420.042        1.514        0.191      159.948       24.236        0.023      344.136       20.738      863.543
04/20/2014  17:12:00       20.198       34.488      -13.361       50.437       56.154       19.746     2543.860     3153.238      389.902        0.393        0.304       39.967       24.147        0.365      344.313       21.044      863.523
04/20/2014  17:13:00       -1.729      124.042       -8.691       71.462       74.567       38.692     5106.766     5560.276     1497.065        1.381        0.608      124.054       29.885        0.058      344.363       21.129      863.507
04/20/2014  17:14:00       62.616      136.751      -21.075       43.318       53.472       36.572     1876.460     2859.294     1337.497        1.457        0.304      150.405       24.852        0.027      344.192       20.837      863.498
04/20/2014  17:15:00       24.625      111.614       -9.243       41.208       60.526       33.891     1698.111     3663.343     1148.605        0.983        0.326      114.299       37.781        0.109      344.259       20.951      863.497
04/20/2014  17:16:00       10.886      131.948      -25.300       33.755       24.023       15.301     1139.376      577.098      234.126        1.006        0.098      132.396        8.377        0.004      344.300       21.020      863.499
04/20/2014  17:17:00        6.497      108.207      -30.710       44.703       52.769       19.805     1998.374     2784.563      392.244        0.893        0.259      108.402       15.570        0.021      344.250       20.936      863.506
04/20/2014  17:18:00       -2.123      206.397      -35.637       42.303       70.143       27.393     1789.519     4919.971      750.365        2.567        0.373      206.408       34.482        0.028      344.348       21.101      863.506
04/20/2014  17:19:00       84.212       61.745       25.898       81.211       72.268       42.182     6595.291     5222.692     1779.286        1.258        0.680      104.423       42.028        0.162      344.317       21.050      863.507
04/20/2014  17:20:00      119.189       81.363       26.600       87.852       60.347       50.746     7718.022     3641.725     2575.192        1.773        0.697      144.312       25.788        0.032      344.347       21.099      863.497
04/20/2014  17:21:00       55.781       73.366        3.329       60.895       67.388       47.090     3708.194     4541.128     2217.490        0.948        0.523       92.164       37.828        0.168      344.474       21.318      863.500
04/20/2014  17:22:00       98.579      123.035        5.549      118.999       88.212       63.923    14160.655     7781.428     4086.117        2.545        1.301      157.656       53.697        0.116      344.384       21.162      863.501
04/20/2014  17:23:00      134.696       67.785       25.865      107.402       67.747       50.837    11535.164     4589.619     2584.449        2.105        0.935      150.791       30.121        0.040      344.475       21.319      863.499
04/20/2014  17:24:00      159.516       66.472       23.557      120.173       70.829       46.777    14441.623     5016.768     2188.089        2.603        1.082      172.812       27.702        0.026      344.417       21.219      863.505
04/20/2014  17:25:00      137.848      124.197        1.779      100.958       72.956       60.768    10192.521     5322.534     3692.800        2.682        0.960      185.545       43.086        0.054      344.406       21.200      863.518
04/20/2014  17:26:00      123.537       82.983       10.414       80.692       52.776       42.062     6511.174     2785.350     1769.238        1.666        0.553      148.821       28.813        0.037      344.199       20.848      863.549
04/20/2014  17:27:00       83.902      110.423       -2.928       70.002       59.646       52.811     4900.330     3557.636     2788.989        1.524        0.562      138.682       37.192        0.072      344.171       20.799      863.562
04/20/2014  17:28:00       93.652      127.031        1.595       86.208       86.624       52.516     7431.820     7503.750     2757.970        2.130        0.885      157.821       54.707        0.120      344.170       20.796      863.574
04/20/2014  17:29:00      114.560       91.612       14.332       55.223       38.773       35.652     3049.597     1503.362     1271.076        1.377        0.291      146.686       20.815        0.020      344.069       20.626      863.596
04/20/2014  17:30:00        2.316       25.480       -3.228       16.873       16.552       12.863      284.705      273.956      165.467        0.069        0.036       25.586        4.453        0.030      344.162       20.784      863.581
04/20/2014  17:31:00        0.214        2.002        2.582       34.185       21.882       32.478     1168.631      478.801     1054.848        0.136        0.135        2.013        9.329       21.469      343.768       20.115      863.562
04/20/2014  17:32:00       11.700       14.860       -7.920       20.608       23.544       18.751      424.708      554.298      351.615        0.088        0.067       18.913       14.055        0.552      343.873       20.291      863.546
04/20/2014  17:33:00       -7.909       61.257       -9.869       35.685       36.285       17.160     1273.384     1316.568      294.482        0.340        0.144       61.765       20.720        0.113      344.131       20.732      863.531
04/20/2014  17:34:00       79.058       49.743       49.562       46.274       72.848       53.228     2141.304     5306.899     2833.255        1.073        0.514       93.405       46.145        0.244      343.488       19.635      863.522
04/20/2014  17:35:00       71.518       34.930       15.846       66.559       61.969       50.789     4430.126     3840.177     2579.473        0.872        0.542       79.592       35.808        0.202      344.048       20.590      863.503
04/20/2014  17:36:00       51.017      -23.662       38.595       54.668       76.728       34.560     2988.633     5887.222     1194.403        0.736        0.504       56.237       46.198        0.675      343.797       20.161      863.493
04/20/2014  17:37:00       52.977       23.119       48.447       86.686       55.772       49.751     7514.502     3110.496     2475.211        0.939        0.655       57.802       31.253        0.292      344.019       20.541      863.491
04/20/2014  17:38:00        5.449      -44.724        3.416       65.417       61.495       33.276     4279.321     3781.665     1107.314        0.560        0.458       45.055       28.196        0.392      343.586       19.801      863.492
04/20/2014  17:39:00       22.730      -51.302       -0.715       40.928       62.736       25.529     1675.118     3935.800      651.715        0.470        0.313       56.112       23.653        0.178      344.473       21.317      863.468
04/20/2014  17:40:00       59.777     -110.115        6.118       58.709       68.969       42.704     3446.754     4756.670     1823.593        1.288        0.501      125.294       41.213        0.108      344.510       21.381      863.460
04/20/2014  17:41:00       12.103       18.218       40.136       40.751       46.275       28.853     1660.647     2141.340      832.496        0.336        0.232       21.872       18.968        0.752      344.184       20.823      863.443
04/20/2014  17:42:00       11.075        5.191        3.155       33.639       54.546       38.737     1131.610     2975.217     1500.570        0.288        0.280       12.231       26.646        4.746      344.169       20.796      863.432
04/20/2014  17:43:00       21.213       61.371       92.727       50.800       49.762       28.738     2580.616     2476.210      825.896        0.935        0.294       64.934       24.552        0.143      344.140       20.747      863.423
04/20/2014  17:44:00       95.077       28.418        4.682       39.223       25.734       29.530     1538.462      662.230      872.028        0.647        0.154       99.234       22.950        0.053      343.797       20.161      863.427
04/20/2014  17:45:00       27.187       15.002       -2.384       24.599       30.113       27.048      605.127      906.785      731.601        0.161        0.112       31.051       12.966        0.174      343.821       20.203      863.409
04/20/2014  17:46:00       31.037      -71.669       10.600       43.773       69.518       48.904     1916.039     4832.686     2391.645        0.767        0.457       78.100       42.082        0.290      344.368       21.137      863.386
04/20/2014  17:47:00       15.489       78.107      100.069       60.751       57.397       44.596     3690.733     3294.380     1988.824        1.266        0.449       79.628       33.946        0.182      343.734       20.053      863.375
04/20/2014  17:48:00      122.059      -77.065       35.226       99.989      107.628       52.168     9997.839    11583.799     2721.529        2.319        1.215      144.352       53.805        0.139      343.956       20.431      863.365
04/20/2014  17:49:00       46.378       58.551       94.922       63.039       74.494       64.907     3973.908     5549.429     4212.902        1.416        0.687       74.694       48.695        0.425      343.900       20.338      863.360
04/20/2014  17:50:00      152.982      -91.654       13.219      101.749      117.561       66.443    10352.858    13820.706     4414.630        3.028        1.429      178.337       77.043        0.187      343.967       20.450      863.375
04/20/2014  17:51:00      104.152     -213.999      -15.110       56.928       81.990       38.306     3240.815     6722.304     1467.373        3.415        0.572      237.998       36.267        0.023      344.212       20.867      863.385
04/20/2014  17:52:00       73.923     -170.252      -36.422       47.810       67.841       36.424     2285.834     4602.386     1326.677        2.199        0.411      185.608       21.507        0.013      344.230       20.900      863.394
04/20/2014  17:53:00       37.732      -55.466       15.734       49.995       76.430       42.841     2499.536     5841.611     1835.334        0.746        0.509       67.083       47.195        0.495      344.401       21.193      863.394
04/20/2014  17:54:00       -4.198       13.687       16.217       29.938       26.367       20.731      896.304      695.201      429.756        0.124        0.101       14.317       16.966        1.404      344.266       20.965      863.396
04/20/2014  17:55:00       93.460      -64.491       14.202       45.105       68.343       37.863     2034.490     4670.811     1433.574        1.062        0.407      113.551       33.582        0.087      344.342       21.092      863.408
04/20/2014  17:56:00       79.547     -113.195      -12.243       64.558       69.373       41.677     4167.697     4812.614     1736.971        1.500        0.536      138.350       37.752        0.074      344.327       21.066      863.419
04/20/2014  17:57:00       53.045      -60.037       11.841       46.124       50.926       36.305     2127.426     2593.436     1318.044        0.630        0.302       80.113       35.451        0.196      344.291       21.005      863.428
04/20/2014  17:58:00       63.569      -44.772        8.175       30.596       47.926       26.618      936.135     2296.884      708.502        0.503        0.197       77.753       27.433        0.124      344.273       20.977      863.420
04/20/2014  17:59:00        5.006       -1.962       44.544       31.187       51.064       29.514      972.615     2607.523      871.053        0.323        0.223        5.377       27.963       27.047      344.004       20.515      863.409
04/20/2014  18:00:00       37.737      -68.631        3.351       38.938       88.703       38.971     1516.141     7868.146     1518.773        0.852        0.545       78.322       49.549        0.400      344.055       20.602      863.409
04/20/2014  18:01:00      -30.316      -31.379       16.316       43.619       48.052       34.741     1902.655     2309.008     1206.945        0.379        0.271       43.632       27.828        0.407      344.109       20.695      863.397
04/20/2014  18:02:00       65.290      -90.581      -12.579       48.390       59.707       42.380     2341.614     3564.934     1796.046        1.016        0.385      111.659       35.672        0.102      344.181       20.818      863.391
04/20/2014  18:03:00       63.173     -100.161        3.550       56.819       57.350       34.187     3228.392     3289.004     1168.772        1.086        0.384      118.419       36.174        0.093      344.247       20.930      863.391
04/20/2014  18:04:00       23.925        4.357       38.406       42.349       37.318       26.244     1793.475     1392.644      688.760        0.297        0.194       24.319       21.362        0.772      344.058       20.608      863.395
04/20/2014  18:05:00        6.825      -18.768        6.265       36.848       34.342       32.719     1357.746     1179.378     1070.514        0.202        0.180       19.971       27.225        1.858      344.034       20.568      863.385
04/20/2014  18:06:00       14.583      -56.166       21.129       35.329       41.379       30.135     1248.106     1712.197      908.105        0.384        0.193       58.028       26.366        0.206      344.104       20.686      863.380
04/20/2014  18:07:00       20.601      -44.252       16.014       45.324       49.887       41.241     2054.280     2488.755     1700.821        0.444        0.312       48.812       32.768        0.451      344.003       20.514      863.383
04/20/2014  18:08:00       39.806      -72.258      -14.240       51.162       45.651       37.538     2617.556     2084.033     1409.132        0.656        0.306       82.497       32.164        0.152      344.070       20.627      863.388
04/20/2014  18:09:00       -6.786       10.310       22.775       41.577       34.272       27.176     1728.642     1174.585      738.550        0.216        0.182       12.343       18.638        2.280      344.131       20.731      863.389
04/20/2014  18:10:00      -11.149      -32.836       20.147       27.606       59.360       28.576      762.074     3523.623      816.571        0.335        0.255       34.677       26.992        0.606      344.045       20.586      863.390
04/20/2014  18:11:00      -15.957      -56.961      -17.597       38.147       58.074       33.415     1455.161     3372.547     1116.591        0.488        0.297       59.154       33.586        0.322      344.313       21.042      863.386
04/20/2014  18:12:00       22.382      -79.652        1.782       34.543       76.390       48.344     1193.239     5835.478     2337.154        0.811        0.468       82.737       41.195        0.248      344.055       20.602      863.377
04/20/2014  18:13:00       22.505      -42.285       16.095       45.226       68.791       47.405     2045.402     4732.168     2247.258        0.579        0.451       47.901       36.625        0.585      344.102       20.682      863.377
04/20/2014  18:14:00        7.757       21.014       75.980       49.256       62.840       45.522     2426.144     3948.893     2072.252        0.736        0.422       22.400       35.124        2.459      343.920       20.372      863.381
04/20/2014  18:15:00       52.720      -31.361       33.085       55.339       65.609       52.859     3062.453     4304.507     2794.052        0.751        0.508       61.342       55.623        0.822      343.873       20.291      863.388
04/20/2014  18:16:00       68.252      -49.716       -3.656       32.814       47.747       27.003     1076.750     2279.745      729.185        0.561        0.204       84.440       22.918        0.074      343.748       20.078      863.396
04/20/2014  18:17:00       65.942      -36.946       24.658       29.621       39.164       26.857      877.418     1533.794      721.321        0.473        0.157       75.587       22.157        0.086      343.681       19.964      863.406
04/20/2014  18:18:00       21.759      -20.412       29.808       32.088       49.183       24.092     1029.633     2419.007      580.412        0.290        0.201       29.835       20.413        0.468      344.075       20.638      863.401
04/20/2014  18:19:00       27.587      -82.730        1.866       28.469       55.776       31.907      810.485     3110.927     1018.029        0.627        0.247       87.208       35.098        0.162      344.264       20.961      863.398
04/20/2014  18:20:00      -22.162      -33.106       27.542       27.577       41.959       31.190      760.465     1760.571      972.845        0.292        0.175       39.839       13.331        0.112      344.348       21.103      863.394
04/20/2014  18:21:00      -12.874      -32.670       25.026       26.446       38.849       32.268      699.404     1509.267     1041.222        0.255        0.162       35.115       16.257        0.214      344.139       20.745      863.387
04/20/2014  18:22:00      -12.943       -7.056       32.811       16.969       23.372       12.275      287.930      546.246      150.675        0.114        0.049       14.742        3.318        0.051      344.270       20.969      863.387
04/20/2014  18:23:00      -11.145        4.693        6.549       24.863       27.316       24.047      618.163      746.157      578.280        0.107        0.097       12.093       11.212        0.860      343.772       20.119      863.381
04/20/2014  18:24:00        7.287       48.477       -0.313       36.938       46.991       29.828     1364.434     2208.140      889.731        0.343        0.223       49.022       27.634        0.318      343.322       19.353      863.378
04/20/2014  18:25:00      -31.736       10.184       26.695       23.036       37.155       19.629      530.650     1380.524      385.307        0.206        0.115       33.330       10.841        0.106      343.629       19.876      863.372
04/20/2014  18:26:00       -0.389       14.380        4.777       26.755       20.921       21.702      715.833      437.668      470.971        0.093        0.081       14.386       17.432        1.468      343.481       19.623      863.379
04/20/2014  18:27:00       27.934        9.251       -7.989       27.307       20.369       15.711      745.683      414.910      246.841        0.117        0.070       29.426       11.065        0.141      343.275       19.272      863.375
04/20/2014  18:28:00        3.930       10.257       20.583       24.834       13.239       15.598      616.707      175.273      243.285        0.079        0.052       10.984       10.324        0.883      343.582       19.794      863.377
04/20/2014  18:29:00       -1.458       20.577        7.353        9.343       22.095       13.982       87.298      488.194      195.501        0.063        0.039       20.629        7.128        0.119      343.695       19.988      863.377
04/20/2014  18:30:00      -33.506        1.802        3.517       50.353       40.876       20.946     2535.382     1670.865      438.726        0.289        0.232       33.555       24.460        0.531      343.917       20.366      863.359
04/20/2014  18:31:00     -104.079        6.697       -3.754       34.419       32.062       17.319     1184.683     1027.961      299.942        0.670        0.126      104.295        9.813        0.009      344.523       21.403      863.355
04/20/2014  18:32:00      -38.973       39.942       -2.337       29.879       16.415       14.995      892.728      269.467      224.862        0.225        0.069       55.805       12.209        0.048      344.356       21.116      863.353
04/20/2014  18:33:00       38.942       25.355       12.647       26.220       20.643       21.290      687.506      426.134      453.279        0.194        0.078       46.469       15.124        0.106      343.383       19.457      863.357
04/20/2014  18:34:00       29.198       36.445        4.508       56.512       30.377       24.273     3193.640      922.762      589.170        0.345        0.235       46.698       23.965        0.263      343.573       19.781      863.360
04/20/2014  18:35:00      -37.052       55.509       -8.242       31.818       36.830       22.895     1012.361     1356.418      524.179        0.371        0.145       66.739       16.646        0.062      344.309       21.035      863.360
04/20/2014  18:36:00      -57.457      -17.459        7.154       43.108       32.401       18.290     1858.308     1049.841      334.534        0.345        0.162       60.051       15.411        0.066      344.398       21.190      863.353
04/20/2014  18:37:00      -16.085       -0.919       14.199       27.591       15.967       15.215      761.242      254.930      231.503        0.085        0.062       16.111        8.454        0.275      344.058       20.607      863.356
04/20/2014  18:38:00       25.360       13.111        8.552       20.210       12.498       14.448      408.432      156.209      208.747        0.083        0.039       28.549        7.116        0.062      343.811       20.187      863.359
04/20/2014  18:39:00       56.441       17.590       44.451       23.204       28.791       28.209      538.411      828.944      795.755        0.382        0.108       59.118       18.863        0.102      343.287       19.292      863.360
04/20/2014  18:40:00      139.674       97.907       24.445       46.846       37.541       33.903     2194.562     1409.337     1149.380        1.722        0.238      170.571       24.654        0.021      344.049       20.591      863.355
04/20/2014  18:41:00      100.297       93.146       66.102       68.827       44.371       43.100     4737.154     1968.751     1857.586        1.583        0.428      136.878       26.711        0.038      343.937       20.400      863.346
04/20/2014  18:42:00      225.003      126.824       35.185       71.815       61.759       66.022     5157.365     3814.192     4358.957        4.064        0.667      258.284       29.690        0.013      344.021       20.541      863.363
04/20/2014  18:43:00       86.860       72.224       28.870       47.670       35.123       47.480     2272.415     1233.607     2254.334        0.968        0.288      112.964       27.739        0.060      343.947       20.418      863.362
04/20/2014  18:44:00       37.915       51.175       -3.444       35.036       32.826       25.049     1227.509     1077.533      627.449        0.350        0.147       63.690       13.876        0.047      343.686       19.973      863.375
04/20/2014  18:45:00       41.374       65.406       -3.001       48.174       38.645       29.058     2320.745     1493.465      844.391        0.533        0.233       77.394       25.227        0.106      344.052       20.598      863.382
04/20/2014  18:46:00       19.274      205.973      -27.137       48.893       83.099       34.324     2390.511     6905.460     1178.114        2.700        0.524      206.872       36.992        0.032      344.017       20.535      863.393
04/20/2014  18:47:00       55.002      195.455       -9.093       81.998       94.846       53.865     6723.655     8995.721     2901.442        2.996        0.931      203.047       65.767        0.105      344.011       20.524      863.386
04/20/2014  18:48:00       11.934      154.555      -15.331       63.003       67.442       40.895     3969.416     4548.462     1672.424        1.723        0.510      155.015       33.760        0.047      344.011       20.525      863.386
04/20/2014  18:49:00      -20.861      153.447      -12.872       46.646       66.521       36.602     2175.858     4425.002     1339.688        1.604        0.397      154.859       27.263        0.031      344.008       20.519      863.409
04/20/2014  18:50:00       20.725      180.780      -13.187       92.485      106.185       62.009     8553.489    11275.216     3845.070        2.847        1.184      181.964       63.922        0.123      343.978       20.469      863.415
04/20/2014  18:51:00       81.528      192.316       -1.655      104.779      123.647       73.589    10978.563    15288.633     5415.332        3.765        1.584      208.883       75.922        0.132      343.917       20.364      863.410
04/20/2014  18:52:00      -39.711      319.729      -43.640       91.306      127.866       60.967     8336.820    16349.739     3716.955        6.705        1.420      322.186       72.483        0.051      343.931       20.387      863.409
04/20/2014  18:53:00      -10.289      314.961      -45.838       65.172       97.712       39.028     4247.346     9547.643     1523.163        5.836        0.766      315.129       39.525        0.016      343.933       20.391      863.418
04/20/2014  18:54:00       30.350      205.778      -17.301       60.820       99.397       53.838     3699.063     9879.694     2898.530        3.002        0.824      208.005       52.561        0.064      343.900       20.335      863.416
04/20/2014  18:55:00       27.455      232.867      -23.061       67.116      103.523       59.463     4504.533    10716.941     3535.824        3.713        0.938      234.480       60.589        0.067      343.884       20.306      863.409
04/20/2014  18:56:00       48.247      246.897      -34.500       58.546       76.936       41.328     3427.604     5919.180     1708.010        3.776        0.553      251.567       39.695        0.025      343.900       20.334      863.402
04/20/2014  18:57:00       25.280      133.316      -10.168       73.852       74.990       44.104     5454.139     5623.544     1945.142        1.577        0.651      135.692       45.946        0.115      343.872       20.289      863.394
04/20/2014  18:58:00       27.233      308.228      -45.619       55.227       71.831       33.437     3050.051     5159.751     1118.045        5.358        0.466      309.429       25.000        0.007      343.889       20.315      863.398
04/20/2014  18:59:00       36.442      225.217      -28.254       69.073      102.098       55.641     4771.057    10424.059     3095.960        3.557        0.915      228.146       57.784        0.064      343.843       20.238      863.406
04/20/2014  19:00:00       28.673      179.924      -26.970       62.737       94.832       48.914     3935.977     8993.128     2392.613        2.462        0.766      182.194       52.011        0.081      343.840       20.232      863.415
04/20/2014  19:01:00       35.967      154.697      -20.083       67.928       93.529       45.607     4614.210     8747.735     2080.007        2.053        0.772      158.823       49.755        0.098      343.832       20.219      863.409
04/20/2014  19:02:00       40.644      142.195        3.153       69.730       97.548       58.757     4862.312     9515.677     3452.425        1.985        0.892      147.890       61.819        0.175      343.811       20.184      863.416
04/20/2014  19:03:00       19.155      190.818      -13.371       62.562       91.497       52.467     3914.007     8371.610     2752.801        2.599        0.752      191.777       54.847        0.082      343.813       20.188      863.412
04/20/2014  19:04:00        2.848      238.822      -29.695       65.590       74.720       43.024     4302.069     5583.116     1851.106        3.483        0.587      238.839       41.631        0.030      343.815       20.188      863.411
04/20/2014  19:05:00       38.578      297.918      -40.676       51.753      114.662       55.174     2678.413    13147.481     3044.190        5.538        0.944      300.405       64.710        0.046      343.803       20.169      863.418
04/20/2014  19:06:00      -16.651      234.632      -26.256       71.529       84.754       49.584     5116.342     7183.171     2458.552        3.539        0.738      235.222       48.187        0.042      343.781       20.134      863.412
04/20/2014  19:07:00       -1.155      287.217      -49.163       80.872      128.532       44.527     6540.337    16520.524     1982.660        5.497        1.252      287.219       58.428        0.041      343.757       20.091      863.415
04/20/2014  19:08:00      -46.544      207.138      -22.931       55.784       89.192       47.850     3111.836     7955.194     2289.642        2.947        0.668      212.303       41.723        0.039      343.749       20.078      863.411
04/20/2014  19:09:00       35.517      246.456      -11.129       90.266      124.426       76.769     8147.924    15481.806     5893.463        4.582        1.476      249.002       80.320        0.104      343.710       20.010      863.417
04/20/2014  19:10:00      -20.130      274.872      -37.169       74.300       88.801       44.975     5520.430     7885.612     2022.748        4.638        0.771      275.608       48.518        0.031      343.677       19.953      863.422
04/20/2014  19:11:00      -71.844      251.375      -29.971       52.828       64.378       37.032     2790.787     4144.496     1371.350        3.878        0.415      261.440       30.682        0.014      343.668       19.937      863.436
04/20/2014  19:12:00      -35.314      251.498      -30.496       49.959       65.293       38.554     2495.943     4263.134     1486.376        3.684        0.412      253.965       26.316        0.011      343.651       19.908      863.437
04/20/2014  19:13:00      -16.002      214.994      -18.093       52.126       76.600       43.483     2717.154     5867.625     1890.757        2.864        0.524      215.589       45.872        0.045      343.618       19.854      863.450
04/20/2014  19:14:00       15.298      276.010      -41.182       51.007       63.509       37.518     2601.668     4033.414     1407.577        4.308        0.402      276.434       23.588        0.007      343.637       19.884      863.449
04/20/2014  19:15:00       11.561      122.010       -4.923       52.498       69.011       43.157     2756.088     4762.545     1862.539        1.221        0.469      122.557       38.321        0.098      343.590       19.807      863.460
04/20/2014  19:16:00       14.291      279.999      -34.208       63.615       87.380       36.752     4046.868     7635.284     1350.726        4.640        0.652      280.363       41.006        0.021      343.622       19.859      863.454
04/20/2014  19:17:00      -40.218      195.175      -21.324       47.751       50.536       34.063     2280.114     2553.930     1160.283        2.308        0.300      199.275       27.134        0.019      343.622       19.862      863.453
04/20/2014  19:18:00      -21.260      229.879      -25.752       55.546       55.151       30.591     3085.339     3041.639      935.835        3.051        0.353      230.860       32.442        0.020      343.611       19.840      863.452
04/20/2014  19:19:00      -14.511      183.884      -22.217       75.657      109.796       41.884     5724.040    12055.143     1754.288        2.702        0.977      184.456       45.525        0.061      343.585       19.797      863.461
04/20/2014  19:20:00      -46.121      194.959      -20.039       56.206       68.614       46.311     3159.151     4707.869     2144.734        2.527        0.501      200.340       43.311        0.047      343.590       19.807      863.453
04/20/2014  19:21:00      -57.920      287.111      -41.728       90.412       64.337       40.855     8174.294     4139.269     1669.146        5.075        0.699      292.895       41.032        0.020      343.588       19.799      863.465
04/20/2014  19:22:00      -47.394      319.216      -49.469       58.069       65.613       35.415     3371.952     4305.018     1254.198        5.776        0.447      322.715       23.049        0.005      343.572       19.774      863.465
04/20/2014  19:23:00      -48.478      319.616      -33.230       87.157       78.954       48.893     7596.267     6233.676     2390.573        6.091        0.811      323.272       46.249        0.020      343.502       19.657      863.469
04/20/2014  19:24:00      -77.409      298.871      -40.083       61.296       89.136       36.809     3757.140     7945.253     1354.912        5.499        0.653      308.733       26.157        0.007      343.499       19.648      863.468
04/20/2014  19:25:00      -47.640      262.227      -44.536       43.580       53.114       29.384     1899.218     2821.134      863.423        3.930        0.279      266.520       24.049        0.008      343.519       19.683      863.473
04/20/2014  19:26:00      -30.342      230.525      -27.076       56.366       60.123       33.953     3177.105     3614.737     1152.784        3.137        0.397      232.513       28.765        0.015      343.479       19.615      863.468
04/20/2014  19:27:00      -75.301      333.613      -45.875       91.383       67.788       48.179     8350.921     4595.269     2321.186        6.717        0.763      342.005       44.514        0.017      343.447       19.562      863.471
04/20/2014  19:28:00      -84.101      275.607      -24.815       76.598       81.054       52.291     5867.323     6569.687     2734.356        4.941        0.759      288.153       48.664        0.029      343.404       19.487      863.475
04/20/2014  19:29:00      -64.549      259.292      -27.740       61.946       81.583       35.298     3837.335     6655.802     1245.935        4.195        0.587      267.205       33.671        0.016      343.409       19.496      863.484
04/20/2014  19:30:00      -19.526      184.920       -8.165       54.342       82.080       44.066     2953.019     6737.069     1941.777        2.314        0.582      185.948       40.759        0.048      343.365       19.421      863.489
04/20/2014  19:31:00      -35.425      188.189      -21.213       80.307      113.584       40.522     6449.288    12901.310     1641.992        2.905        1.050      191.495       33.372        0.030      343.348       19.395      863.516
04/20/2014  19:32:00      -14.217      204.561      -13.673       82.223       87.491       54.987     6760.552     7654.715     3023.541        2.983        0.872      205.055       49.238        0.058      343.326       19.357      863.535
04/20/2014  19:33:00        9.259      232.064      -14.961       59.835       80.931       53.029     3580.281     6549.883     2812.124        3.355        0.647      232.248       39.244        0.029      343.307       19.322      863.552
04/20/2014  19:34:00      -42.325      175.783       -6.049       70.939       94.667       51.308     5032.304     8961.868     2632.509        2.467        0.831      180.807       48.983        0.073      343.250       19.227      863.556
04/20/2014  19:35:00      -64.537      223.943      -30.824       70.506       66.146       36.619     4971.055     4375.284     1340.967        3.297        0.534      233.057       21.241        0.008      343.266       19.253      863.571
04/20/2014  19:36:00      -46.924      145.040      -11.185       45.183       61.036       40.445     2041.462     3725.427     1635.835        1.538        0.370      152.441       29.166        0.037      343.223       19.183      863.576
04/20/2014  19:37:00      -22.127      196.082      -29.417       68.742       98.739       45.043     4725.445     9749.428     2028.882        2.815        0.825      197.326       55.116        0.078      343.217       19.170      863.573
04/20/2014  19:38:00      -53.325      188.716      -25.579       41.569       74.362       37.733     1727.997     5529.736     1423.790        2.389        0.434      196.105       36.050        0.034      343.209       19.157      863.569
04/20/2014  19:39:00      -18.726      203.652      -21.193       69.012       83.020       50.436     4762.673     6892.261     2543.815        2.823        0.710      204.511       48.273        0.056      343.162       19.074      863.572
04/20/2014  19:40:00        1.856      136.421       -1.794       64.038       77.704       51.371     4100.906     6037.987     2638.931        1.570        0.639      136.434       49.850        0.134      343.072       18.927      863.575
04/20/2014  19:41:00      -34.119      151.629        1.598       78.964       66.655       43.795     6235.264     4442.899     1918.041        1.837        0.630      155.421       42.924        0.076      343.072       18.925      863.575
04/20/2014  19:42:00      -53.735      289.500      -30.039       91.360      116.857       48.460     8346.736    13655.466     2348.372        5.597        1.218      294.445       55.876        0.036      343.054       18.892      863.561
04/20/2014  19:43:00        9.289      229.342       -8.820       84.064      139.288       66.975     7066.734    19401.267     4485.647        4.185        1.548      229.530       82.174        0.128      342.996       18.795      863.550
04/20/2014  19:44:00       -8.290      317.577      -44.454       77.667      104.601       54.486     6032.226    10941.343     2968.768        6.142        0.997      317.685       58.664        0.034      343.033       18.856      863.559
04/20/2014  19:45:00      -15.721      283.511      -29.278       65.872       81.131       49.567     4339.173     6582.303     2456.844        4.743        0.669      283.947       47.733        0.028      343.007       18.811      863.557
04/20/2014  19:46:00       13.474      209.699      -25.951       49.487       88.646       43.391     2448.940     7858.161     1882.794        2.851        0.609      210.132       46.171        0.048      342.978       18.762      863.563
04/20/2014  19:47:00       -0.022      148.169       -6.430       79.038       75.607       58.843     6247.041     5716.464     3462.443        1.871        0.771      148.169       58.868        0.158      342.954       18.722      863.581
04/20/2014  19:48:00        5.601      249.744      -28.308       78.372       98.281       54.027     6142.130     9659.129     2918.903        4.096        0.936      249.806       57.110        0.052      342.940       18.698      863.588
04/20/2014  19:49:00       -2.517      326.084      -40.587       68.413      136.529       49.032     4680.333    18640.102     2404.171        6.685        1.286      326.094       60.761        0.035      342.933       18.688      863.600
04/20/2014  19:50:00       26.720      239.519      -20.216       76.160      146.868       69.767     5800.287    21570.264     4867.399        4.536        1.612      241.005       75.168        0.097      342.917       18.659      863.616
04/20/2014  19:51:00        9.911      130.452        5.337       55.182      107.718       48.035     3045.034    11603.272     2307.358        1.705        0.848      130.828       54.197        0.172      342.895       18.623      863.641
04/20/2014  19:52:00        1.960      230.390      -18.902       79.186       85.710       49.835     6270.474     7346.165     2483.550        3.477        0.805      230.399       55.613        0.058      342.884       18.604      863.659
04/20/2014  19:53:00       -8.788      220.629      -12.197       66.795      106.780       57.530     4461.618    11402.003     3309.646        3.403        0.959      220.804       60.254        0.074      342.889       18.611      863.671
04/20/2014  19:54:00       14.880      186.296      -19.904       41.925      120.109       40.605     1757.699    14426.056     1648.765        2.657        0.892      186.890       57.989        0.096      342.852       18.547      863.686
04/20/2014  19:55:00      110.057      100.621       14.848      118.946       72.289       56.908    14148.070     5225.716     3238.516        2.253        1.131      149.121       56.772        0.145      342.813       18.483      863.706
04/20/2014  19:56:00       43.638      107.181       -5.289       47.732       70.827       37.614     2278.347     5016.531     1414.849        1.106        0.435      115.724       35.807        0.096      342.769       18.411      863.726
04/20/2014  19:57:00       54.443       97.500        3.319       58.599       61.380       46.498     3433.875     3767.445     2162.025        1.092        0.468      111.670       36.313        0.106      342.771       18.412      863.749
04/20/2014  19:58:00       61.863      169.963      -10.681       92.633      126.341       58.952     8580.832    15961.960     3475.371        3.042        1.401      180.871       68.112        0.142      342.773       18.415      863.771
04/20/2014  19:59:00       59.998      152.133       -7.090       68.704      112.887       53.304     4720.193    12743.565     2841.286        2.355        1.015      163.536       63.046        0.149      342.765       18.401      863.786
04/20/2014  20:00:00       52.950      164.764      -10.719       67.459       75.097       46.980     4550.712     5639.628     2207.128        2.123        0.620      173.063       54.443        0.099      342.790       18.445      863.820
04/20/2014  20:01:00       63.877      119.073        3.057       77.267       45.579       43.335     5970.146     2077.436     1877.953        1.409        0.496      135.125       37.052        0.075      342.726       18.338      863.839
04/20/2014  20:02:00       37.328      145.827      -25.525       38.035       61.340       24.976     1446.689     3762.607      623.779        1.457        0.292      150.528       24.176        0.026      342.736       18.353      863.863
04/20/2014  20:03:00       24.964      104.404      -15.880       31.643       70.707       30.228     1001.281     4999.442      913.747        0.934        0.346      107.347       39.308        0.134      342.721       18.330      863.885
04/20/2014  20:04:00        7.492      140.775      -13.547       43.434       47.805       29.756     1886.521     2285.357      885.432        1.256        0.253      140.974       19.167        0.018      342.745       18.369      863.896
04/20/2014  20:05:00       23.871       93.144        0.211       44.746       55.636       44.196     2002.225     3095.366     1953.309        0.815        0.353       96.154       41.864        0.190      342.703       18.298      863.923
04/20/2014  20:06:00      -37.019      208.394      -34.193       45.982       48.646       25.614     2114.390     2366.460      656.084        2.555        0.257      211.657       23.480        0.012      342.745       18.367      863.950
04/20/2014  20:07:00      -34.649      103.136       -2.007       48.414       51.442       33.871     2343.934     2646.328     1147.263        0.899        0.307      108.800       34.861        0.103      342.699       18.292      863.955
04/20/2014  20:08:00      -32.904       62.498       -6.244       53.406       51.161       29.842     2852.235     2617.492      890.543        0.569        0.318       70.631       23.882        0.114      342.758       18.390      863.962
04/20/2014  20:09:00      -79.715       65.787      -12.772       51.596       34.257       34.883     2662.131     1173.519     1216.801        0.795        0.253      103.355       25.842        0.063      342.830       18.513      863.959
04/20/2014  20:10:00      -65.849       92.096       -2.483       43.618       85.852       35.429     1902.535     7370.508     1255.181        1.167        0.526      113.215       35.051        0.096      342.771       18.414      863.958
04/20/2014  20:11:00     -145.601       90.744      -25.052       55.876       42.307       32.255     3122.106     1789.868     1040.364        1.801        0.298      171.564       35.182        0.042      342.692       18.277      863.975
04/20/2014  20:12:00     -177.590      183.162      -46.341       72.072       68.582       42.338     5194.405     4703.423     1792.509        3.946        0.585      255.121       44.214        0.030      342.513       17.972      863.986
04/20/2014  20:13:00     -146.748      131.741      -28.824       75.661       69.360       49.418     5724.643     4810.838     2442.141        2.635        0.649      197.207       46.970        0.057      342.469       17.899      863.986
04/20/2014  20:14:00     -168.444      175.521      -23.573       74.505      110.606       47.579     5550.997    12233.733     2263.727        3.989        1.002      243.272       35.203        0.021      342.488       17.929      863.996
04/20/2014  20:15:00      -85.663       75.512       -3.079       59.619       52.063       43.403     3554.387     2710.535     1883.853        1.060        0.407      114.193       37.849        0.110      342.425       17.826      864.008
04/20/2014  20:16:00     -114.035      171.969      -27.558       70.107       73.992       44.008     4914.978     5474.866     1936.663        2.783        0.616      206.342       44.679        0.047      342.505       17.959      864.028
04/20/2014  20:17:00     -118.637      145.640      -17.919       89.146       83.595       40.916     7947.000     6988.139     1674.092        2.610        0.830      187.845       32.983        0.031      342.526       17.994      864.034
04/20/2014  20:18:00      -61.031      152.663      -14.531       53.242       66.546       42.876     2834.675     4428.343     1838.320        1.817        0.455      164.411       38.804        0.056      342.500       17.952      864.053
04/20/2014  20:19:00     -159.058      195.195      -41.634       85.294       88.197       55.017     7275.123     7778.723     3026.824        4.160        0.904      251.794       59.198        0.055      342.533       18.007      864.066
04/20/2014  20:20:00     -202.802       82.894      -22.068      123.768      100.034       52.082    15318.485    10006.742     2712.582        3.826        1.402      219.089       48.139        0.048      342.601       18.123      864.064
04/20/2014  20:21:00     -238.360       49.279      -29.000      119.051       92.122       54.328    14173.252     8486.450     2951.529        4.284        1.281      243.400       57.019        0.055      342.659       18.220      864.062
04/20/2014  20:22:00     -196.285       80.461      -41.115       63.909       78.575       46.242     4084.380     6174.046     2138.367        2.954        0.620      212.136       33.799        0.025      342.725       18.334      864.087
04/20/2014  20:23:00     -200.461      113.174      -31.751      107.597       95.356       49.968    11577.175     9092.722     2496.814        3.858        1.158      230.202       44.580        0.038      342.649       18.203      864.107
04/20/2014  20:24:00     -304.441      231.920      -72.872      106.175      114.845       63.524    11273.140    13189.455     4035.266        9.013        1.425      382.716       70.026        0.033      342.697       18.285      864.125
04/20/2014  20:25:00     -200.901      254.448      -55.898       73.815      116.201       46.731     5448.666    13502.627     2183.825        6.468        1.057      324.199       45.525        0.020      342.646       18.198      864.150
04/20/2014  20:26:00     -152.262      120.120      -21.442       78.689       73.450       47.733     6191.950     5394.924     2278.469        2.597        0.693      193.939       52.597        0.074      342.604       18.128      864.153
04/20/2014  20:27:00     -164.594      327.593      -50.404       75.003      122.272       58.338     5625.402    14950.399     3403.282        8.046        1.199      366.617       54.092        0.022      342.617       18.149      864.184
04/20/2014  20:28:00     -157.376       98.161      -20.069       72.239       85.820       47.846     5218.449     7365.097     2289.203        2.484        0.744      185.480       38.492        0.043      342.630       18.172      864.175
04/20/2014  20:29:00      -97.808      206.064      -24.780       53.369      113.125       37.689     2848.219    12797.206     1420.436        3.485        0.853      228.098       42.314        0.034      342.603       18.125      864.176
04/20/2014  20:30:00     -142.180      145.172      -32.092       70.812       59.578       43.171     5014.383     3549.521     1863.728        2.637        0.521      203.200       23.104        0.013      342.586       18.097      864.177
04/20/2014  20:31:00     -103.047      196.298      -33.335       73.587       86.234       38.214     5414.992     7436.298     1460.323        3.228        0.716      221.702       34.093        0.024      342.605       18.127      864.170
04/20/2014  20:32:00     -131.534      131.969      -30.454       43.955       72.666       32.724     1932.004     5280.405     1070.833        2.196        0.414      186.326       35.166        0.036      342.545       18.028      864.184
04/20/2014  20:33:00      -88.789       84.918      -29.153       46.099       51.055       33.617     2125.094     2606.633     1130.125        1.090        0.293      122.860       34.332        0.078      342.593       18.111      864.170
04/20/2014  20:34:00      -98.539      125.924      -32.384       37.249       56.449       26.475     1387.516     3186.485      700.901        1.594        0.264      159.896       25.482        0.025      342.545       18.030      864.178
04/20/2014  20:35:00     -118.500      113.739      -17.983       70.077       68.527       42.930     4910.758     4695.965     1842.962        1.937        0.572      164.252       37.062        0.051      342.526       17.996      864.188
04/20/2014  20:36:00      -76.201      196.318      -41.468       71.634       73.745       37.382     5131.427     5438.395     1397.403        2.901        0.598      210.588       26.488        0.016      342.575       18.077      864.212
04/20/2014  20:37:00      -61.549       89.667       -9.746       56.562       80.892       32.395     3199.221     6543.502     1049.466        1.136        0.540      108.758       42.179        0.150      342.497       17.948      864.235
04/20/2014  20:38:00      -23.208      132.078       13.524       57.950       79.882       40.055     3358.194     6381.066     1604.375        1.475        0.567      134.101       33.980        0.064      342.425       17.824      864.252
04/20/2014  20:39:00      -58.028       65.790       -7.408       39.608       52.686       25.419     1568.757     2775.791      646.151        0.637        0.250       87.725       27.685        0.100      342.510       17.971      864.283
04/20/2014  20:40:00      -96.015       85.219      -11.577       80.794       47.677       31.220     6527.683     2273.126      974.710        1.319        0.489      128.379       33.390        0.068      342.536       18.013      864.306
04/20/2014  20:41:00     -165.555      103.720      -17.966       70.882       63.172       37.407     5024.239     3990.654     1399.314        2.445        0.521      195.362       27.731        0.020      342.514       17.975      864.330
04/20/2014  20:42:00     -164.916      109.222      -20.189       92.563      103.898       44.946     8567.975    10794.749     2020.106        3.045        1.069      197.805       42.174        0.045      342.413       17.801      864.340
04/20/2014  20:43:00      -83.039       49.587      -17.197       70.182       74.022       38.031     4925.478     5479.293     1446.369        1.075        0.593       96.717       43.233        0.200      342.372       17.736      864.358
04/20/2014  20:44:00      -28.594      122.436        4.925       64.893       75.246       53.048     4211.042     5661.937     2814.131        1.426        0.634      125.730       37.149        0.087      342.248       17.523      864.367
04/20/2014  20:45:00     -133.822      193.867      -38.682       47.682       61.635       33.769     2273.605     3798.925     1140.349        3.210        0.361      235.569       21.784        0.009      342.280       17.575      864.381
04/20/2014  20:46:00      -63.651       79.891      -14.733       48.126       77.690       40.761     2316.108     6035.707     1661.449        1.033        0.501      102.147       37.824        0.137      342.236       17.504      864.389
04/20/2014  20:47:00     -137.875      141.794      -23.659       81.576       78.268       41.531     6654.576     6125.832     1724.793        2.709        0.725      197.776       37.530        0.036      342.270       17.559      864.408
04/20/2014  20:48:00     -172.922      122.302      -12.533      103.100       61.984       50.069    10629.573     3842.060     2506.876        3.099        0.849      211.801       43.337        0.042      342.266       17.553      864.401
04/20/2014  20:49:00     -145.728      135.326      -16.117       61.840       73.751       50.393     3824.169     5439.244     2539.428        2.580        0.590      198.872       40.327        0.041      342.245       17.517      864.409
04/20/2014  20:50:00     -138.578      149.343      -24.279       56.231       64.090       39.851     3161.951     4107.589     1588.136        2.548        0.443      203.733       32.430        0.025      342.233       17.495      864.403
04/20/2014  20:51:00     -117.040      158.283      -24.155       59.019       86.108       38.744     3483.300     7414.653     1501.065        2.586        0.620      196.855       40.056        0.041      342.231       17.493      864.401
04/20/2014  20:52:00      -99.777      142.989      -19.601       41.862       70.764       38.211     1752.457     5007.508     1460.044        1.950        0.411      174.360       37.028        0.045      342.212       17.463      864.404
04/20/2014  20:53:00     -160.919      168.824      -41.145       47.138       84.099       35.842     2221.993     7072.631     1284.620        3.333        0.529      233.231       30.238        0.017      342.280       17.576      864.397
04/20/2014  20:54:00     -150.931      124.403      -18.761       68.080       77.149       53.803     4634.839     5952.000     2894.802        2.604        0.674      195.592       44.857        0.053      342.271       17.562      864.398
04/20/2014  20:55:00     -161.705      119.635       -9.783       84.865      101.276       52.618     7202.113    10256.915     2768.663        3.039        1.011      201.150       49.970        0.062      342.236       17.502      864.392
04/20/2014  20:56:00     -150.809      111.629      -30.048       55.651       83.569       37.694     3097.077     6983.717     1420.868        2.380        0.575      187.628       40.575        0.047      342.245       17.517      864.400
04/20/2014  20:57:00     -158.648      157.994      -33.358       60.962       71.648       47.368     3716.316     5133.365     2243.681        3.117        0.555      223.900       44.009        0.039      342.261       17.542      864.409
04/20/2014  20:58:00     -165.115      108.828      -43.532       66.798       69.071       30.295     4461.977     4770.857      917.757        2.557        0.508      197.754       30.518        0.024      342.316       17.638      864.436
04/20/2014  20:59:00     -101.480       73.396      -12.264       51.346       49.270       36.424     2636.435     2427.498     1326.674        1.111        0.320      125.241       28.822        0.053      342.266       17.554      864.447
04/20/2014  21:00:00     -131.429      121.234      -31.048       39.921       56.163       31.318     1593.711     3154.263      980.818        1.933        0.286      178.805       27.501        0.024      342.273       17.566      864.468
04/20/2014  21:01:00     -121.972      129.690      -28.355       47.284       50.197       33.136     2235.746     2519.767     1098.025        1.918        0.293      178.036       29.926        0.028      342.255       17.535      864.479
04/20/2014  21:02:00     -103.722      119.960      -25.309       53.623       47.762       25.454     2875.410     2281.184      647.928        1.580        0.290      158.583       23.118        0.021      342.241       17.512      864.491
04/20/2014  21:03:00      -85.150       84.997      -19.901       43.772       40.721       24.200     1915.958     1658.203      585.645        0.951        0.208      120.312       19.999        0.028      342.253       17.533      864.502
04/20/2014  21:04:00     -112.802      140.038      -25.362       69.219       77.230       30.754     4791.203     5964.461      945.803        2.234        0.585      179.820       23.055        0.016      342.286       17.588      864.504
04/20/2014  21:05:00      -80.992       94.516      -20.523       36.280       51.624       26.550     1316.243     2665.013      704.916        1.030        0.234      124.471       23.505        0.036      342.225       17.486      864.516
04/20/2014  21:06:00      -75.253       50.331       -0.402       44.838       36.832       31.981     2010.489     1356.624     1022.813        0.629        0.219       90.533       25.557        0.080      342.121       17.309      864.519
04/20/2014  21:07:00      -74.491       45.322      -15.864       26.838       26.784       14.306      720.275      717.383      204.660        0.475        0.082       87.195       13.066        0.022      342.234       17.501      864.519
04/20/2014  21:08:00      -78.145       53.254      -14.878       26.967       22.362       17.626      727.211      500.054      310.678        0.535        0.077       94.566       12.324        0.017      342.259       17.543      864.516
04/20/2014  21:09:00      -82.770       45.324       -7.166       37.400       28.059       24.826     1398.736      787.331      616.319        0.588        0.140       94.367       23.508        0.062      342.269       17.558      864.513
04/20/2014  21:10:00      -47.252      111.259       -1.032       56.039       69.066       37.120     3140.348     4770.130     1377.860        1.195        0.464      120.877       36.601        0.092      342.212       17.463      864.526
04/20/2014  21:11:00     -104.377       52.024      -14.442       48.599       37.708       24.074     2361.840     1421.924      579.550        0.909        0.218      116.623       24.467        0.044      342.220       17.476      864.525
04/20/2014  21:12:00      -74.957       86.686      -18.827       45.103       64.521       31.882     2034.282     4162.997     1016.439        1.035        0.361      114.600       24.768        0.047      342.218       17.472      864.540
04/20/2014  21:13:00      -79.961       80.968       -4.609       48.615       58.116       33.433     2363.434     3377.478     1117.761        0.991        0.343      113.796       27.094        0.057      342.154       17.365      864.560
04/20/2014  21:14:00      -83.343       81.397       -3.283       67.891       53.157       27.828     4609.161     2825.662      774.398        1.089        0.410      116.497       28.318        0.059      342.086       17.249      864.559
04/20/2014  21:15:00      -75.329       85.449       -8.831       46.049       86.309       40.062     2120.502     7449.190     1604.984        1.211        0.559      113.912       31.865        0.078      342.113       17.295      864.575
04/20/2014  21:16:00     -102.072       85.452      -16.987       52.665       42.287       35.071     2773.563     1788.189     1229.992        1.190        0.290      133.119       32.083        0.058      342.088       17.253      864.585
04/20/2014  21:17:00      -71.394       56.104        2.010       53.137       61.585       35.829     2823.560     3792.708     1283.737        0.807        0.395       90.801       37.237        0.168      342.045       17.179      864.584
04/20/2014  21:18:00      -86.770      102.498      -22.382       45.431       66.521       32.872     2063.978     4425.061     1080.556        1.305        0.378      134.294       32.497        0.059      342.120       17.307      864.598
04/20/2014  21:19:00     -133.481      111.600      -24.509       70.496       69.446       35.230     4969.734     4822.811     1241.187        2.095        0.552      173.988       46.267        0.071      342.058       17.200      864.604
04/20/2014  21:20:00      -74.464       96.487      -18.837       49.197       41.823       22.656     2420.367     1749.201      513.314        0.995        0.234      121.880       24.804        0.041      342.044       17.180      864.610
04/20/2014  21:21:00      -69.571       64.791       -8.630       36.311       39.447       21.907     1318.454     1556.047      479.910        0.623        0.168       95.068       21.942        0.053      342.053       17.193      864.607
04/20/2014  21:22:00      -65.529       65.245      -13.069       32.215       27.266       19.807     1037.816      743.411      392.304        0.545        0.109       92.471       18.711        0.041      341.986       17.078      864.599
04/20/2014  21:23:00      -74.888       57.573      -16.477       45.949       34.782       17.779     2111.316     1209.805      316.089        0.642        0.182       94.461        9.662        0.010      341.990       17.086      864.590
04/20/2014  21:24:00     -142.667      116.056      -27.942       64.824       64.618       34.688     4202.100     4175.504     1203.276        2.209        0.479      183.910       32.137        0.031      342.035       17.162      864.583
04/20/2014  21:25:00     -113.994       83.316      -17.078       59.905       54.931       31.432     3588.619     3017.427      987.990        1.391        0.380      141.196       25.898        0.034      342.015       17.128      864.576
04/20/2014  21:26:00     -100.909       33.312      -15.479       30.631       27.083       19.565      938.252      733.505      382.803        0.679        0.103      106.265       10.907        0.011      342.041       17.173      864.574
04/20/2014  21:27:00     -129.607       75.615      -29.914       69.897       50.775       34.015     4885.606     2578.084     1156.989        1.601        0.431      150.052       44.745        0.089      342.005       17.111      864.575
04/20/2014  21:28:00     -149.267       28.240      -13.322       68.157       44.911       34.364     4645.373     2017.008     1180.890        1.555        0.392      151.915       31.640        0.043      342.015       17.128      864.588
04/20/2014  21:29:00      -86.864       13.915       -7.146       50.902       43.030       27.075     2590.977     1851.554      733.055        0.648        0.259       87.972       22.506        0.065      341.986       17.080      864.601
04/20/2014  21:30:00     -118.997       22.772       -7.133       43.293       43.060       25.783     1874.317     1854.130      664.777        0.956        0.220      121.156       24.213        0.040      341.969       17.051      864.600
04/20/2014  21:31:00     -110.569       18.100       -8.536       44.654       35.401       25.182     1993.952     1253.236      634.156        0.825        0.194      112.041       22.555        0.041      341.890       16.916      864.607
04/20/2014  21:32:00     -145.300      -38.713      -14.968       34.869       28.484       21.778     1215.830      811.361      474.283        1.267        0.125      150.369        9.424        0.004      341.902       16.937      864.618
04/20/2014  21:33:00     -140.262       -9.885      -14.068       42.194       37.049       18.462     1780.309     1372.605      340.847        1.173        0.175      140.610       16.471        0.014      341.862       16.870      864.617
04/20/2014  21:34:00      -95.622      -19.543       -9.745       32.717       45.164       17.357     1070.412     2039.802      301.272        0.652        0.171       97.598       12.289        0.016      341.838       16.828      864.626
04/20/2014  21:35:00     -120.657       -2.465      -16.938       28.583       31.680       25.683      816.986     1003.629      659.629        0.867        0.124      120.682       20.126        0.028      341.808       16.777      864.622
04/20/2014  21:36:00     -146.707      -25.849      -16.079       41.289       33.274       21.443     1704.793     1107.141      459.789        1.286        0.164      148.967       16.243        0.012      341.720       16.628      864.614
04/20/2014  21:37:00     -136.689      -31.889      -12.482       40.681       43.011       27.816     1654.943     1849.976      773.757        1.207        0.214      140.360       29.626        0.045      341.710       16.612      864.608
04/20/2014  21:38:00     -159.558       11.921      -15.232       33.030       43.609       21.117     1090.957     1901.774      445.931        1.464        0.172      160.002       16.110        0.010      341.693       16.583      864.610
04/20/2014  21:39:00     -112.230      -10.371        0.107       48.641       45.001       25.499     2365.925     2025.124      650.221        0.887        0.252      112.708       24.924        0.049      341.552       16.343      864.611
04/20/2014  21:40:00      -93.261      -13.139       -0.205       35.217       49.047       20.837     1240.262     2405.577      434.199        0.647        0.204       94.182       17.527        0.035      341.565       16.365      864.605
04/20/2014  21:41:00        2.738       -2.516        6.474       57.343       34.480       25.935     3288.272     1188.848      672.641        0.260        0.257        3.719       25.731       47.883      341.369       16.032      864.601
04/20/2014  21:42:00      -64.908      -34.536       -4.581       60.693       24.043       24.800     3683.597      578.082      615.016        0.515        0.244       73.525       25.901        0.124      341.449       16.170      864.607
04/20/2014  21:43:00        6.455      -12.978       25.114       42.259       32.715       28.553     1785.848     1070.283      815.301        0.226        0.184       14.495       25.771        3.161      341.411       16.105      864.638
04/20/2014  21:44:00       24.982      -68.599       10.038       28.361       44.547       30.114      804.353     1984.463      906.836        0.456        0.185       73.007       27.981        0.147      341.501       16.258      864.678
04/20/2014  21:45:00       20.980      -47.434       -1.182       52.926       65.294       40.733     2801.197     4263.361     1659.145        0.571        0.436       51.867       43.885        0.716      341.326       15.961      864.719
04/20/2014  21:46:00       47.138      -38.616       24.424       66.037       62.028       40.188     4360.847     3847.432     1615.068        0.706        0.491       60.935       43.662        0.513      341.150       15.662      864.748
04/20/2014  21:47:00       69.638      -36.390       35.909       64.701       59.087       48.684     4186.197     3491.277     2370.113        0.875        0.502       78.573       48.436        0.380      341.097       15.573      864.767
04/20/2014  21:48:00       62.576       -6.315       33.458       45.174       53.314       41.091     2040.647     2842.344     1688.487        0.582        0.329       62.894       31.544        0.252      340.969       15.357      864.778
04/20/2014  21:49:00       84.624      -50.644       10.531       72.972       60.482       49.811     5324.851     3658.018     2481.160        1.065        0.573       98.621       39.187        0.158      341.159       15.677      864.794
04/20/2014  21:50:00       47.365      -31.524       18.611       32.351       35.019       34.478     1046.608     1226.311     1188.703        0.352        0.173       56.896       20.369        0.128      341.095       15.570      864.795
04/20/2014  21:51:00      -13.330       28.121       -6.248       33.260       17.888       10.159     1106.224      319.973      103.206        0.127        0.076       31.121        8.455        0.074      341.839       16.830      864.760
04/20/2014  21:52:00     -101.880      -22.285       -6.067       32.074       30.859       14.382     1028.767      952.273      206.837        0.655        0.109      104.289        8.805        0.007      341.822       16.803      864.733
04/20/2014  21:53:00      -65.818      -13.769        3.765       57.554       32.886       22.978     3312.449     1081.521      527.969        0.473        0.246       67.243       33.167        0.243      341.707       16.608      864.723
04/20/2014  21:54:00       60.573       -8.958        4.271       52.383       26.568       27.934     2744.013      705.856      780.321        0.400        0.212       61.232       17.123        0.078      340.990       15.393      864.723
04/20/2014  21:55:00       59.076       -4.013        7.011       26.895       22.689       27.777      723.353      514.784      771.563        0.278        0.100       59.213       18.255        0.095      340.786       15.047      864.737
04/20/2014  21:56:00       83.375       11.337        4.069       38.220       51.592       22.268     1460.788     2661.729      495.855        0.586        0.231       84.142       19.155        0.052      341.163       15.686      864.759
04/20/2014  21:57:00       95.364       67.371       52.076       32.263       26.646       29.558     1040.914      709.992      873.692        0.948        0.131      116.761       15.120        0.017      341.370       16.036      864.755
04/20/2014  21:58:00       15.329        4.646       -1.434       28.589       23.555       29.656      817.314      554.861      879.472        0.125        0.113       16.017       13.987        0.763      340.993       15.397      864.760
04/20/2014  21:59:00       -1.292      -35.300        1.291       43.839       26.794       25.663     1921.897      717.913      658.566        0.227        0.165       35.324       23.768        0.453      340.774       15.027      864.775
04/20/2014  22:00:00       47.188      -20.055        3.895       28.410       27.397       22.454      807.152      750.600      504.176        0.235        0.103       51.272       15.098        0.087      341.251       15.835      864.784
04/20/2014  22:01:00       37.550       -1.386       24.686       32.083       26.211       19.899     1029.341      687.013      395.988        0.207        0.106       37.576       17.661        0.221      340.913       15.262      864.794
04/20/2014  22:02:00      -16.087      -13.186       -0.623       13.528        8.236        9.505      183.013       67.826       90.353        0.039        0.017       20.800        9.242        0.197      341.384       16.060      864.811
04/20/2014  22:03:00      -59.932      -15.013       -0.405       30.669       23.700       13.527      940.612      561.676      182.981        0.275        0.084       61.784       14.960        0.059      341.596       16.419      864.808
04/20/2014  22:04:00      -66.024      -21.517       -2.387       29.305       21.842       12.783      858.757      477.088      163.397        0.316        0.075       69.442        9.038        0.017      341.439       16.154      864.799
04/20/2014  22:05:00      -29.919      -37.865       10.889       33.608       27.229       17.639     1129.522      741.402      311.132        0.231        0.109       48.259       16.733        0.120      341.363       16.024      864.790
04/20/2014  22:06:00      -26.941      -17.218        5.175       23.507       19.196       13.208      552.592      368.473      174.455        0.107        0.055       31.973       14.699        0.211      341.239       15.814      864.770
04/20/2014  22:07:00      -31.813       -0.884        2.274       12.387       16.137        8.084      153.445      260.394       65.345        0.075        0.024       31.825        6.609        0.043      341.462       16.192      864.752
04/20/2014  22:08:00      -26.957        3.065       -2.183        9.444        8.771        8.176       89.190       76.926       66.850        0.049        0.012       27.131        7.412        0.075      341.835       16.823      864.760
04/20/2014  22:09:00      -18.671       15.101       -2.282        8.559        6.674        5.113       73.250       44.537       26.143        0.036        0.007       24.014        4.467        0.035      341.696       16.588      864.744
04/20/2014  22:10:00       10.735       -5.160        5.737       29.998       22.084       15.233      899.856      487.725      232.052        0.090        0.081       11.911       19.817        2.768      341.425       16.130      864.741
04/20/2014  22:11:00       50.008      -28.663        4.983       28.789       21.757       20.007      828.804      473.353      400.261        0.252        0.085       57.640        7.130        0.015      340.999       15.407      864.746
04/20/2014  22:12:00       10.665       -1.614       17.891       22.300       10.070       13.606      497.274      101.401      185.132        0.061        0.039       10.787       13.563        1.581      340.879       15.203      864.756
04/20/2014  22:13:00       39.925      -21.911        0.420       18.838       14.044       16.506      354.863      197.247      272.457        0.145        0.041       45.542        8.915        0.038      340.969       15.356      864.754
04/20/2014  22:14:00       40.152      -15.029       12.628       22.570       16.350       20.559      509.399      267.318      422.662        0.160        0.060       42.872       13.123        0.094      341.064       15.517      864.743
04/20/2014  22:15:00        8.314        3.926       17.671       20.731       12.811       16.515      429.772      164.128      272.748        0.063        0.043        9.195        4.025        0.192      340.917       15.268      864.740
04/20/2014  22:16:00       14.270        2.825       23.151       30.182       18.273       16.494      910.949      333.887      272.061        0.113        0.076       14.547        6.697        0.212      340.697       14.898      864.732
04/20/2014  22:17:00        2.219       -6.643       11.860       23.417       17.957       17.035      548.342      322.460      290.206        0.068        0.058        7.004       15.454        4.868      340.730       14.952      864.715
04/20/2014  22:18:00      -53.894      -34.202       -1.563       22.197       22.816       10.745      492.711      520.582      115.464        0.260        0.056       63.830        7.807        0.015      341.442       16.157      864.711
04/20/2014  22:19:00      -80.610       -9.214       -0.273       37.026       23.604       14.686     1370.931      557.127      215.684        0.436        0.107       81.135       16.029        0.039      341.328       15.965      864.709
04/20/2014  22:20:00      -92.558       -0.893       -7.234       33.360       20.928       17.035     1112.911      437.985      290.202        0.523        0.092       92.562       14.991        0.026      341.011       15.428      864.695
04/20/2014  22:21:00      -59.649        9.079        3.106       38.561       27.575       21.328     1486.984      760.387      454.879        0.318        0.135       60.336       22.414        0.138      340.892       15.226      864.689
04/20/2014  22:22:00     -102.291        5.858       -4.901       40.078       29.704       19.170     1606.229      882.331      367.501        0.669        0.143      102.458       18.203        0.032      340.933       15.296      864.685
04/20/2014  22:23:00      -53.496       -5.771        1.378       49.761       25.273       21.346     2476.115      638.730      455.670        0.323        0.179       53.806       25.254        0.220      340.710       14.918      864.670
04/20/2014  22:24:00      -48.254      -13.695        4.078       41.535       41.146       29.485     1725.177     1692.974      869.388        0.341        0.214       50.160       27.520        0.301      340.695       14.893      864.651
04/20/2014  22:25:00      -59.752      -39.933        7.474       33.467       30.267       22.183     1120.055      916.073      492.086        0.387        0.126       71.867       16.741        0.054      340.769       15.018      864.637
04/20/2014  22:26:00      -46.997       -5.442        3.340       32.404       24.576       19.941     1050.006      603.982      397.633        0.215        0.103       47.311       21.513        0.207      340.651       14.818      864.624
04/20/2014  22:27:00      -57.902      -20.096       -2.359       21.423       23.621       13.339      458.966      557.933      177.923        0.248        0.060       61.290        8.210        0.018      340.769       15.019      864.608
04/20/2014  22:28:00      -46.886      -28.129        7.617       16.783       24.536       10.966      281.673      602.015      120.260        0.203        0.050       54.677        5.716        0.011      340.807       15.083      864.600
04/20/2014  22:29:00      -54.226      -21.838        4.798       39.300       19.743       16.369     1544.469      389.767      267.949        0.282        0.110       58.458       20.601        0.124      340.625       14.775      864.601
04/20/2014  22:30:00      -61.878      -26.810       -3.431       19.336       24.035       13.302      373.889      577.666      176.934        0.284        0.056       67.436        7.539        0.012      340.655       14.824      864.594
04/20/2014  22:31:00      -58.274       -6.517       -4.369       27.538       29.439       13.569      758.369      866.646      184.127        0.263        0.090       58.637       14.445        0.061      340.564       14.673      864.564
04/20/2014  22:32:00      -69.466      -17.547        1.604       22.673       27.421       16.806      514.045      751.897      282.426        0.334        0.077       71.648       14.542        0.041      340.557       14.661      864.547
04/20/2014  22:33:00      -90.783      -40.942        2.065       36.648       29.650       16.567     1343.071      879.146      274.477        0.621        0.125       99.589       18.757        0.035      340.587       14.711      864.524
04/20/2014  22:34:00     -134.198      -20.725       -8.066       43.974       26.175       25.056     1933.671      685.125      627.805        1.087        0.162      135.789       24.205        0.032      340.436       14.454      864.512
04/20/2014  22:35:00     -110.624       -6.492       -2.417       48.635       36.705       20.648     2365.411     1347.226      426.328        0.821        0.207      110.814       17.674        0.025      340.369       14.342      864.515
04/20/2014  22:36:00     -132.464       14.557      -11.939       38.036       30.457       22.072     1446.711      927.642      487.164        1.038        0.143      133.262       21.565        0.026      340.343       14.297      864.530
04/20/2014  22:37:00     -111.055       -6.750      -12.403       34.433       24.849       13.432     1185.603      617.479      180.411        0.726        0.099      111.260        7.934        0.005      340.323       14.264      864.531
04/20/2014  22:38:00     -115.520        7.221      -13.105       34.478       24.546       17.913     1188.761      602.483      320.876        0.784        0.106      115.745       17.957        0.024      340.250       14.139      864.506
04/20/2014  22:39:00     -138.489        3.732       -9.247       26.975       20.164       17.328      727.638      406.582      300.272        1.036        0.072      138.539       13.932        0.010      340.233       14.112      864.484
04/20/2014  22:40:00      -77.219      -14.490        2.478       35.710       23.945       16.379     1275.204      573.368      268.276        0.415        0.106       78.567       20.053        0.065      340.306       14.236      864.485
04/20/2014  22:41:00     -101.305      -13.850       -0.875       19.351       20.024       13.343      374.464      400.944      178.026        0.570        0.048      102.247        9.969        0.010      340.313       14.247      864.470
04/20/2014  22:42:00      -93.171      -32.688      -10.457       15.953       17.927       10.388      254.483      321.394      107.911        0.527        0.034       98.739        9.415        0.009      340.444       14.470      864.457
04/20/2014  22:43:00      -72.214      -45.326        0.209       17.801       17.830       16.948      316.860      317.925      287.224        0.410        0.046       85.260       12.940        0.023      340.525       14.607      864.453
04/20/2014  22:44:00      -70.211      -21.969        1.323       21.939       17.131       15.081      481.326      293.456      227.450        0.321        0.050       73.568       12.968        0.031      340.473       14.519      864.443
04/20/2014  22:45:00      -55.031      -32.873        3.445       49.073       19.449       14.297     2408.144      378.279      204.407        0.356        0.150       64.102       12.608        0.039      340.513       14.586      864.424
04/20/2014  22:46:00      -69.557      -49.067        2.125       35.014       29.961       19.688     1225.965      897.666      387.615        0.488        0.126       85.122       17.692        0.043      340.528       14.610      864.419
04/20/2014  22:47:00      -92.632      -53.767        0.484       57.034       33.024       18.938     3252.904     1090.615      358.662        0.809        0.235      107.105       20.788        0.038      340.515       14.589      864.417
04/20/2014  22:48:00     -117.932      -57.369       -1.413       36.762       25.325       19.679     1351.456      641.378      387.268        0.979        0.119      131.145       17.727        0.018      340.463       14.501      864.402
04/20/2014  22:49:00      -91.571      -15.393        5.069       37.339       32.423       16.979     1394.223     1051.247      288.282        0.569        0.137       92.856       19.420        0.044      340.331       14.277      864.398
04/20/2014  22:50:00     -108.713      -26.206        1.951       32.483       27.843       17.569     1055.164      775.220      308.655        0.732        0.107      111.827       15.715        0.020      340.217       14.084      864.407
04/20/2014  22:51:00      -72.953       -8.800        4.669       48.745       24.140       19.707     2376.099      582.729      388.381        0.438        0.167       73.482       24.745        0.113      340.124       13.926      864.411
04/20/2014  22:52:00      -95.603      -16.776       -2.703       46.736       28.998       17.239     2184.296      840.904      297.177        0.637        0.166       97.064       19.194        0.039      340.229       14.106      864.411
04/20/2014  22:53:00     -108.686      -24.436        4.822       34.432       21.195       16.384     1185.591      449.235      268.426        0.717        0.095      111.400       15.930        0.020      340.251       14.143      864.420
04/20/2014  22:54:00      -97.620      -45.972        4.031       33.448       32.012       21.479     1118.753     1024.743      461.355        0.713        0.130      107.903       14.377        0.018      340.312       14.246      864.438
04/20/2014  22:55:00     -101.475      -33.230       -4.181       39.985       31.654       20.650     1598.783     1001.952      426.432        0.722        0.151      106.777       18.585        0.030      340.402       14.398      864.437
04/20/2014  22:56:00      -82.050      -12.536        1.928       52.116       27.108       23.694     2716.055      734.819      561.415        0.545        0.201       83.002       28.704        0.120      340.238       14.120      864.437
04/20/2014  22:57:00      -68.066      -25.959        3.371       48.677       28.915       21.255     2369.452      836.091      451.756        0.449        0.183       72.848       20.360        0.078      340.165       13.996      864.443
04/20/2014  22:58:00     -106.778      -19.694        0.688       34.375       29.776       19.810     1181.622      886.596      392.454        0.712        0.123      108.579       14.628        0.018      340.119       13.919      864.450
04/20/2014  22:59:00      -76.883       -6.823        2.664       43.872       33.809       22.753     1924.733     1143.039      517.706        0.477        0.179       77.186       23.962        0.096      340.060       13.820      864.457
04/20/2014  23:00:00     -111.478       -2.923       -5.257       43.932       27.574       23.907     1930.039      760.310      571.564        0.786        0.163      111.517       27.473        0.061      340.062       13.823      864.473
04/20/2014  23:01:00      -92.457      -13.957       -1.303       42.068       38.652       26.074     1769.738     1493.981      679.862        0.634        0.197       93.505       22.291        0.057      340.032       13.773      864.491
04/20/2014  23:02:00     -116.650      -29.272        1.307       48.508       36.089       28.615     2353.003     1302.445      818.795        0.947        0.224      120.267       23.933        0.040      339.983       13.689      864.501
04/20/2014  23:03:00     -151.681      -38.116       -2.310       31.961       25.809       17.312     1021.512      666.091      299.720        1.323        0.099      156.396       17.273        0.012      339.940       13.618      864.502
04/20/2014  23:04:00     -137.339      -42.352        5.261       40.061       28.642       21.932     1604.882      820.339      481.026        1.179        0.145      143.721       18.235        0.016      339.894       13.541      864.508
04/20/2014  23:05:00     -129.230      -27.921        0.860       51.570       33.074       21.786     2659.495     1093.872      474.609        1.085        0.211      132.212       26.822        0.041      339.863       13.488      864.507
04/20/2014  23:06:00     -138.233      -45.312        0.258       45.402       30.547       22.860     2061.329      933.119      522.596        1.234        0.176      145.470       20.567        0.020      339.901       13.551      864.493
04/20/2014  23:07:00     -129.552      -32.877        1.175       58.635       32.969       25.390     3438.045     1086.970      644.647        1.152        0.258      133.659       23.483        0.031      339.949       13.634      864.482
04/20/2014  23:08:00      -87.963      -16.293        0.303       68.989       30.527       25.228     4759.474      931.891      636.467        0.716        0.316       89.459       31.892        0.127      339.777       13.344      864.486
04/20/2014  23:09:00      -93.525      -10.156       -2.616       39.854       37.208       21.541     1588.363     1384.460      463.993        0.615        0.172       94.074       14.605        0.024      339.856       13.477      864.485
04/20/2014  23:10:00     -105.103       -9.282       -6.335       38.059       26.748       23.967     1448.513      715.459      574.402        0.696        0.137      105.512       18.555        0.031      339.897       13.545      864.476
04/20/2014  23:11:00     -134.134       -0.820       -8.328       40.927       28.312       20.558     1675.009      801.595      422.621        1.048        0.145      134.137       18.087        0.018      339.841       13.451      864.469
04/20/2014  23:12:00     -132.050        1.509      -12.035       36.308       27.322       18.914     1318.266      746.502      357.747        1.000        0.121      132.058       16.816        0.016      339.761       13.316      864.474
04/20/2014  23:13:00     -113.187      -11.041       -7.284       55.938       37.317       26.547     3129.006     1392.556      704.723        0.911        0.261      113.725       31.458        0.077      339.697       13.207      864.477
04/20/2014  23:14:00      -98.639      -31.250        3.644       54.224       47.729       20.623     2940.250     2278.023      425.303        0.818        0.282      103.471       30.369        0.086      339.676       13.173      864.484
04/20/2014  23:15:00      -89.929      -28.655       -1.113       38.994       30.603       18.263     1520.537      936.528      333.536        0.585        0.140       94.384       17.349        0.034      339.678       13.177      864.498
04/20/2014  23:16:00      -93.510      -26.714        1.008       40.686       27.700       18.404     1655.314      767.290      338.690        0.611        0.138       97.251       20.113        0.043      339.774       13.338      864.504
04/20/2014  23:17:00      -87.164      -52.648        5.623       45.760       27.715       20.568     2093.990      768.098      423.029        0.684        0.164      101.830       22.895        0.051      339.971       13.671      864.508
04/20/2014  23:18:00     -128.683      -37.351        1.923       40.642       24.472       17.984     1651.758      598.858      323.409        1.027        0.129      133.994       21.480        0.026      339.991       13.703      864.507
04/20/2014  23:19:00     -100.957      -81.892       -2.844       46.051       49.336       26.566     2120.653     2434.026      705.729        1.108        0.263      129.995       27.896        0.046      339.890       13.534      864.515
04/20/2014  23:20:00     -128.039      -88.508        1.366       54.962       44.547       27.835     3020.808     1984.462      774.772        1.500        0.289      155.652       26.655        0.029      339.913       13.571      864.507
04/20/2014  23:21:00     -161.047      -69.655       -2.544       56.780       53.284       31.929     3223.951     2839.164     1019.455        1.894        0.354      175.465       32.420        0.034      339.812       13.401      864.486
04/20/2014  23:22:00     -178.731      -50.841      -13.794       37.303       27.480       21.085     1391.520      755.132      444.579        1.866        0.130      185.822       20.478        0.012      339.852       13.468      864.482
04/20/2014  23:23:00     -170.328      -59.120       -5.580       55.479       49.695       27.859     3077.879     2469.602      776.119        1.943        0.316      180.296       19.224        0.011      339.732       13.265      864.470
04/20/2014  23:24:00     -120.132      -37.728       10.650       61.571       53.121       31.680     3791.011     2821.865     1003.616        1.179        0.381      125.917       28.803        0.052      339.622       13.082      864.463
04/20/2014  23:25:00     -153.740      -84.019       -5.864       42.858       42.092       31.869     1836.837     1771.724     1015.615        1.768        0.231      175.201       27.679        0.025      339.691       13.198      864.467
04/20/2014  23:26:00     -178.260      -48.503      -16.111       41.953       29.423       25.304     1760.030      865.736      640.282        1.883        0.163      184.740       24.748        0.018      339.699       13.211      864.480
04/20/2014  23:27:00      -98.621      -30.604       -4.095       36.304       34.662       21.246     1317.976     1201.456      451.383        0.682        0.149      103.260       15.799        0.023      339.702       13.216      864.471
04/20/2014  23:28:00     -143.311      -50.267       -1.949       80.313       45.250       25.079     6450.161     2047.571      628.973        1.610        0.456      151.871       31.522        0.043      339.602       13.047      864.465
04/20/2014  23:29:00     -157.151      -60.131        1.524       60.199       41.891       27.519     3623.896     1754.861      757.303        1.722        0.307      168.263       28.365        0.028      339.446       12.784      864.470
04/20/2014  23:30:00     -109.764      -71.550       -0.948       51.057       40.802       26.415     2606.866     1664.821      697.768        1.107        0.248      131.025       28.436        0.047      339.481       12.844      864.480
04/20/2014  23:31:00     -149.039      -41.824      -11.009       27.951       30.844       20.366      781.243      951.323      414.757        1.311        0.107      154.796       14.658        0.009      339.482       12.845      864.473
04/20/2014  23:32:00      -83.384      -36.084        2.820       63.526       29.705       23.876     4035.499      882.377      570.066        0.687        0.274       90.856       26.421        0.085      339.523       12.914      864.463
04/20/2014  23:33:00     -100.223      -65.442       -4.823       52.921       24.831       24.413     2800.597      616.590      595.990        0.918        0.201      119.696       28.928        0.058      339.488       12.855      864.450
04/20/2014  23:34:00     -133.300      -51.181       -4.754       38.039       31.065       21.638     1446.971      965.047      468.219        1.165        0.144      142.788       20.816        0.021      339.467       12.819      864.439
04/20/2014  23:35:00     -102.666      -44.786        0.051       42.425       37.538       24.464     1799.875     1409.111      598.511        0.818        0.190      112.009       19.269        0.030      339.429       12.757      864.433
04/20/2014  23:36:00      -31.882      -39.414        8.926       35.078       30.315       16.242     1230.437      918.997      263.799        0.253        0.121       50.694        6.283        0.015      339.485       12.850      864.432
04/20/2014  23:37:00     -116.358      -56.328       -1.027       32.249       23.354       21.933     1040.014      545.418      481.048        0.939        0.103      129.275       19.672        0.023      339.472       12.828      864.423
04/20/2014  23:38:00     -107.503      -48.835      -10.120       23.823       21.482       17.561      567.516      461.495      308.386        0.769        0.067      118.075       10.722        0.008      339.509       12.890      864.415
04/20/2014  23:39:00      -91.434      -37.216       -2.450       35.811       25.415       18.879     1282.409      645.912      356.426        0.602        0.114       98.718       18.349        0.035      339.448       12.789      864.397
04/20/2014  23:40:00      -98.992      -48.523       -3.805       34.691       31.807       27.157     1203.442     1011.706      737.500        0.756        0.148      110.244       24.107        0.048      339.400       12.707      864.391
04/20/2014  23:41:00     -146.587      -48.767       -6.531       28.764       21.282       17.084      827.369      452.938      291.863        1.274        0.079      154.486       14.876        0.009      339.294       12.529      864.402
04/20/2014  23:42:00     -114.415      -40.669       -7.927       30.635       22.852       19.333      938.493      522.231      373.756        0.832        0.092      121.428       16.933        0.019      339.392       12.693      864.417
04/20/2014  23:43:00     -124.170      -35.498       -0.855       26.263       24.472       17.331      689.732      598.871      300.372        0.913        0.079      129.145       15.860        0.015      339.429       12.756      864.416
04/20/2014  23:44:00     -105.426      -40.201       -8.097       27.790       28.743       16.699      772.308      826.179      278.859        0.734        0.094      112.831       11.083        0.010      339.483       12.846      864.416
04/20/2014  23:45:00      -78.396      -64.112        1.068       51.628       30.939       23.654     2665.401      957.235      559.514        0.722        0.209      101.273       24.227        0.057      339.461       12.810      864.426
04/20/2014  23:46:00      -66.161      -65.738        7.873       47.744       39.198       27.244     2279.447     1536.508      742.225        0.666        0.228       93.267       17.303        0.034      339.414       12.730      864.445
04/20/2014  23:47:00     -125.655     -106.610       -2.099       53.081       43.580       26.210     2817.617     1899.250      686.976        1.628        0.270      164.787       25.283        0.024      339.388       12.687      864.440
04/20/2014  23:48:00     -109.611      -84.716        0.512       49.335       40.853       23.657     2433.964     1668.994      559.661        1.193        0.233      138.533       24.760        0.032      339.366       12.650      864.444
04/20/2014  23:49:00      -38.418      -29.129       14.259       60.914       34.093       29.833     3710.475     1162.321      890.013        0.414        0.288       48.213       36.307        0.567      339.324       12.578      864.450
04/20/2014  23:50:00      -74.509      -59.700        4.610       35.826       32.671       22.843     1283.498     1067.403      521.820        0.600        0.144       95.476       19.467        0.042      339.330       12.589      864.467
04/20/2014  23:51:00      -95.635      -65.222        7.331       42.499       23.353       25.846     1806.166      545.385      667.993        0.824        0.151      115.758       24.920        0.046      339.347       12.619      864.465
04/20/2014  23:52:00      -92.345      -56.619        0.972       43.013       26.443       23.768     1850.084      699.253      564.894        0.742        0.156      108.320       24.625        0.052      339.337       12.601      864.464
04/20/2014  23:53:00      -27.480      -43.344        9.530       43.961       26.336       19.167     1932.613      693.571      367.389        0.286        0.150       51.321       15.720        0.094      339.485       12.849      864.465
04/20/2014  23:54:00      -55.323      -54.642        3.904       32.372       31.743       16.135     1047.968     1007.623      260.328        0.419        0.116       77.759       15.094        0.038      339.401       12.707      864.469
04/20/2014  23:55:00      -46.524      -26.380       11.046       29.564       21.966       20.965      874.009      482.511      439.523        0.239        0.090       53.482       15.771        0.087      339.316       12.564      864.469
04/20/2014  23:56:00      -84.685      -46.474       -2.868       19.256       23.024       14.751      370.783      530.110      217.590        0.523        0.056       96.599       10.460        0.012      339.403       12.712      864.472
04/20/2014  23:57:00      -78.920      -59.356      -16.301       35.449       16.955       17.462     1256.598      287.478      304.922        0.593        0.092       98.750       18.451        0.035      339.405       12.717      864.473
04/20/2014  23:58:00      -98.266      -48.582       -3.075       37.036       22.807       18.932     1371.645      520.169      358.418        0.714        0.113      109.619       20.088        0.034      339.328       12.585      864.476
04/20/2014  23:59:00     -107.583      -75.800       -3.926       47.901       31.794       21.395     2294.492     1010.836      457.767        1.055        0.188      131.605       20.579        0.024      339.290       12.521      864.479
